GEFSSE_500_meanwind_000.txt.gz
Wind_Speed
17 18 18 18 18 18 19 19 16 11 9 8 9 11 11 10 12 13 13 14 14 15 17 17 16 16 16 17 18 19 19 19 19 20 19 19 18 16 13 11 9 9 10
19 19 20 19 18 17 18 18 14 12 10 9 9 9 9 9 12 13 14 15 14 15 15 15 15 15 17 19 20 21 22 23 23 23 22 21 20 17 16 14 11 10 10
20 20 21 19 18 17 18 16 14 12 12 10 10 9 9 9 12 15 17 17 16 15 15 14 15 15 17 19 22 23 25 26 25 25 24 24 22 20 19 18 16 14 13
20 19 19 18 18 18 18 16 13 13 12 11 10 9 9 9 11 15 19 19 18 17 16 17 18 18 19 20 22 25 27 28 27 28 28 28 25 23 23 23 22 20 18
21 19 17 17 18 18 18 15 12 12 12 12 12 11 11 11 10 12 17 18 19 20 20 21 22 22 23 24 25 26 27 29 29 30 29 28 26 26 26 25 25 24 23
20 18 17 17 19 19 17 13 12 12 12 12 13 13 13 13 13 13 14 16 19 21 22 23 23 24 25 27 28 28 28 27 29 29 27 27 27 28 29 29 28 28 28
18 17 18 18 19 19 16 12 12 12 12 12 13 13 13 14 15 17 17 18 20 21 22 23 24 24 25 26 27 27 28 27 28 27 26 26 28 30 31 33 33 33 33
17 18 19 20 20 19 16 13 13 11 11 11 11 11 12 14 15 16 18 20 21 23 24 26 27 28 28 28 28 28 29 29 29 29 30 30 30 32 34 36 37 38 38
16 17 20 22 22 20 17 15 14 13 11 10 8 7 8 9 10 12 15 17 20 22 24 26 27 29 30 31 31 31 31 32 33 33 34 34 35 36 38 39 40 41 42
17 18 21 23 22 22 20 18 16 14 13 12 10 9 12 12 13 13 14 15 17 19 21 23 25 27 29 31 32 33 33 34 35 35 37 37 38 39 40 41 42 44 46
18 20 22 25 24 24 23 21 19 17 16 14 12 12 14 15 18 18 19 19 20 21 22 23 24 26 28 30 32 33 34 35 35 36 38 39 41 42 43 42 42 43 42
21 21 23 25 27 26 25 23 22 20 19 17 15 15 18 21 23 24 24 24 25 25 27 27 27 28 29 31 33 34 35 36 37 38 39 40 40 40 39 37 36 34 34
22 22 23 25 27 27 26 25 24 21 20 20 20 22 25 29 29 30 31 29 29 30 31 32 32 33 34 35 36 36 36 36 36 37 37 37 36 36 35 34 34 34 36
24 22 22 24 26 26 27 27 25 24 23 23 24 25 27 29 30 32 35 34 33 33 34 34 35 36 36 35 35 35 35 35 34 34 34 34 35 36 37 37 38 39 40
26 25 24 23 24 26 28 29 27 28 28 26 25 26 28 29 30 33 35 35 34 34 33 33 34 35 34 33 32 31 30 31 31 33 34 35 36 38 39 40 41 42 43
27 27 27 26 24 23 25 27 28 31 30 29 29 29 30 31 30 31 30 29 28 31 31 31 34 35 34 32 32 32 32 33 34 36 37 38 39 39 40 42 43 44 46
28 28 27 27 25 22 23 25 27 30 30 28 29 30 30 31 29 25 27 26 26 29 30 32 35 37 36 35 34 35 36 37 38 39 40 40 41 41 43 44 45 46 48
27 27 25 25 24 22 23 24 23 26 26 26 28 29 31 30 25 26 27 27 29 31 33 37 40 40 37 36 35 36 38 39 40 41 41 42 43 44 45 46 48 50 52
28 27 25 23 22 22 22 22 22 23 23 25 27 29 30 27 26 29 30 32 34 35 39 42 43 41 39 38 37 39 40 41 42 42 43 45 46 48 49 52 54 57 60
28 27 24 21 22 23 22 21 22 23 25 27 29 30 29 29 30 32 34 36 38 40 42 44 45 44 42 39 39 40 42 42 43 45 47 49 51 53 56 59 61 64 66
28 26 23 19 23 25 23 22 22 25 27 29 31 31 30 29 32 35 37 39 42 43 44 46 45 43 42 40 40 42 44 46 47 49 52 55 57 60 63 65 67 69 71
28 25 24 21 23 26 25 24 25 27 28 30 29 28 28 30 34 37 40 41 43 44 44 41 39 39 41 42 43 45 46 48 51 54 57 59 62 64 66 68 70 71 73
28 27 26 24 24 26 27 27 28 29 29 27 26 27 31 35 38 40 41 42 42 40 37 37 39 41 44 47 49 51 53 54 55 56 59 62 64 65 67 68 70 71 72
28 28 28 27 26 27 29 30 30 29 28 28 29 32 37 39 39 41 42 41 38 37 38 40 43 45 47 50 54 59 62 65 66 65 63 64 66 67 68 68 69 71 73
27 28 29 29 29 30 31 31 30 28 28 30 33 37 39 40 41 42 40 38 39 39 41 44 47 49 52 55 58 61 64 67 71 73 71 69 67 67 68 70 73 76 80
27 27 28 29 30 30 32 31 29 29 31 33 36 39 39 40 41 39 38 39 41 42 44 46 49 53 56 59 62 65 67 68 68 69 70 71 74 75 76 77 81 86 89

GEFSSE_500_meanwind_006.txt.gz
Wind_Speed
15 16 16 16 16 16 17 17 18 18 16 14 12 10 9 9 10 11 13 14 15 16 16 18 20 20 21 21 21 21 21 21 22 23 23 23 23 23 24 24 23 21 19
15 15 17 19 18 16 16 16 17 18 16 13 11 11 10 9 10 11 13 14 15 16 16 18 19 20 21 21 22 22 22 22 23 24 25 26 27 27 28 27 25 23 21
17 16 18 19 18 17 16 16 16 16 14 12 11 10 9 9 10 11 13 15 16 16 17 18 18 19 19 19 20 21 22 23 25 26 28 29 31 31 30 30 28 26 25
19 18 19 20 19 17 17 16 15 14 12 11 10 10 9 9 10 10 11 13 15 17 18 18 18 19 20 20 21 22 23 25 26 28 30 31 32 33 33 32 31 29 29
20 19 20 21 20 18 16 15 15 14 12 10 10 10 10 11 11 11 12 12 13 15 17 19 20 21 22 22 23 24 25 27 28 29 31 32 32 33 33 33 33 31 32
21 20 21 22 20 18 16 15 16 14 11 10 9 10 11 12 12 12 14 15 16 16 16 18 20 22 23 23 24 24 25 26 27 27 29 30 30 31 31 31 31 31 32
22 20 22 22 20 17 16 16 16 14 12 11 10 9 10 10 11 12 14 15 17 18 19 21 23 24 26 27 27 28 29 29 30 30 31 31 31 31 31 31 31 31 30
21 20 21 20 19 17 17 17 17 16 14 12 10 9 9 8 7 8 9 12 14 16 18 20 22 24 26 28 28 30 31 32 33 33 34 35 35 35 34 34 34 34 34
19 18 19 19 19 18 18 19 19 18 16 14 12 11 10 9 7 8 10 12 14 15 17 19 20 22 23 24 25 26 28 29 31 33 34 36 37 37 37 37 37 37 37
18 18 19 19 19 19 19 20 20 20 18 17 16 15 15 13 12 13 16 18 20 22 24 25 25 26 27 27 27 28 29 30 31 33 34 35 36 37 37 37 38 38 39
18 19 20 18 17 18 19 21 21 21 21 20 18 18 18 16 15 17 20 22 25 27 29 31 31 32 31 31 31 31 31 33 34 35 36 37 37 38 38 38 39 41 41
20 20 21 19 18 19 20 21 22 23 24 24 22 21 20 19 19 21 23 26 29 30 33 34 34 35 35 35 34 33 32 33 34 35 35 35 36 38 38 38 39 39 39
23 22 23 22 21 21 21 20 21 23 25 26 27 24 23 22 22 24 25 28 30 33 34 33 32 32 32 33 33 32 32 33 34 34 33 32 32 33 34 35 35 36 36
26 25 25 25 25 24 23 20 19 21 24 26 29 28 25 24 25 25 27 30 32 34 32 29 26 26 26 28 29 30 31 33 34 35 35 34 34 34 34 35 36 37 38
26 27 27 27 28 27 24 21 20 21 22 24 27 28 27 27 27 28 31 33 33 32 29 25 24 25 26 27 29 31 34 35 36 36 36 36 36 36 37 38 39 40 41
26 28 30 29 30 29 27 24 23 22 22 22 24 25 27 28 29 31 32 32 33 31 27 25 26 27 29 32 34 36 38 39 40 39 38 38 38 39 39 40 41 42 43
27 29 30 30 30 30 28 26 24 24 22 22 23 23 25 26 27 29 30 32 32 30 28 27 28 31 33 36 38 41 42 43 43 42 40 39 40 40 41 42 43 44 45
28 29 30 31 30 30 28 27 26 25 24 22 22 22 23 24 25 28 30 32 32 31 30 30 32 34 36 38 41 44 44 43 42 40 39 39 40 41 43 44 46 47 47
31 30 30 31 31 30 28 27 27 27 26 23 21 21 22 23 25 28 31 32 32 30 31 32 34 36 38 40 42 42 40 38 38 38 39 40 42 43 45 47 48 50 52
34 31 30 31 31 30 29 27 28 29 27 24 22 22 23 24 27 30 32 31 29 29 32 34 36 37 39 40 40 39 36 37 38 40 41 43 45 47 49 51 53 55 56
36 33 31 31 30 30 29 28 29 30 27 24 24 23 24 26 28 31 30 28 29 32 35 37 38 40 40 39 38 38 39 40 42 43 44 46 49 52 55 57 58 60 61
36 35 32 32 31 30 30 29 28 27 27 26 25 26 26 28 31 32 31 32 34 36 38 39 40 42 41 40 39 39 40 42 45 47 49 52 54 57 59 61 62 63 64
36 36 34 34 34 33 31 29 27 28 29 28 28 29 30 32 34 34 35 36 38 40 41 42 42 42 42 42 42 42 43 44 45 47 52 56 59 60 61 62 62 62 63
37 37 37 36 35 35 32 30 29 29 30 31 31 33 34 35 37 38 38 40 42 43 43 43 43 42 42 43 45 47 50 52 54 53 53 56 59 60 61 61 61 61 63
38 37 38 37 36 34 33 32 32 31 31 32 33 35 37 38 39 40 42 44 44 44 44 44 43 42 43 45 48 51 54 58 61 62 59 59 60 60 60 61 62 64 66
39 38 38 38 37 34 33 34 34 33 33 34 35 37 38 40 41 42 45 46 44 44 44 43 43 44 46 50 53 56 59 62 64 65 64 64 64 62 63 64 66 69 73

GEFSSE_500_meanwind_012.txt.gz
Wind_Speed
15 13 13 14 15 15 14 12 11 11 11 10 10 9 9 10 10 9 9 9 11 12 13 14 15 15 16 17 18 20 20 21 21 21 21 22 22 22 23 23 23 24 24
16 16 15 15 16 16 15 14 13 12 12 11 10 10 10 11 11 11 10 11 12 13 14 15 16 16 16 17 17 18 19 20 20 20 21 22 23 23 24 25 26 27 28
18 18 17 17 17 17 16 15 14 14 13 12 10 10 10 11 11 12 12 13 14 15 15 16 17 17 17 17 18 18 18 18 19 19 20 21 23 24 25 26 28 28 29
18 18 18 18 17 17 16 15 15 15 15 13 11 10 10 11 12 13 14 13 13 14 15 16 17 18 18 18 19 20 20 21 21 22 22 23 25 26 26 27 28 28 28
21 20 19 18 17 17 17 16 15 16 15 14 12 12 11 12 12 13 14 14 14 13 13 13 15 16 17 17 19 20 21 22 23 23 23 24 25 25 25 25 26 27 27
24 24 23 22 21 19 18 17 16 16 15 14 14 13 12 13 13 13 13 14 14 14 14 15 16 17 17 18 19 21 22 23 24 25 26 26 27 27 27 28 29 29 30
26 27 28 28 27 25 21 18 17 16 16 15 15 15 14 13 13 12 13 13 13 12 12 13 14 15 16 17 18 19 21 22 23 24 25 25 26 27 28 29 30 31 32
27 27 27 28 29 27 23 20 18 18 17 16 16 16 15 14 13 12 12 12 11 9 9 11 13 15 16 17 19 20 21 22 22 22 23 24 25 26 28 29 30 31 32
28 27 27 28 28 26 24 21 20 19 18 17 18 18 17 16 15 14 14 14 12 12 13 16 19 20 22 23 25 26 26 25 25 25 25 25 27 28 29 30 31 33 34
28 27 28 28 28 26 24 22 21 20 19 19 19 20 20 20 19 18 18 18 17 17 17 19 21 23 24 25 25 26 27 27 27 27 27 27 28 28 29 30 31 32 34
28 27 29 29 28 27 24 22 21 20 21 21 21 21 23 23 23 22 21 22 21 20 20 21 23 24 24 23 22 21 22 23 24 25 26 27 28 29 29 30 30 30 31
30 28 29 31 30 28 25 24 23 21 21 22 23 23 24 25 26 25 24 24 25 24 23 23 24 25 24 21 18 17 18 19 21 23 24 26 28 29 30 30 30 30 30
32 30 30 32 31 30 28 26 25 23 22 23 24 25 26 28 28 28 27 27 27 27 26 25 26 26 26 22 19 18 19 20 22 24 25 28 30 31 32 33 33 33 32
33 31 32 33 33 32 31 30 28 26 25 24 24 26 28 29 30 30 31 30 28 27 27 27 28 28 27 24 22 21 22 24 26 28 30 32 35 36 37 37 36 36 35
35 33 33 35 35 35 34 33 31 30 29 27 26 27 28 29 30 30 31 31 29 28 28 29 29 30 29 27 25 25 27 28 30 32 34 36 38 39 38 37 37 36 37
36 36 34 35 36 37 36 36 34 33 32 30 29 28 28 29 29 29 30 31 30 30 30 30 30 31 31 29 29 29 30 31 33 35 36 38 38 37 35 34 34 34 36
39 38 37 36 36 37 37 37 37 36 35 33 31 29 29 30 30 30 30 30 31 31 30 30 31 33 32 31 31 31 32 34 36 37 38 38 37 36 35 35 36 36 38
40 40 39 37 37 38 37 37 37 38 37 35 32 31 31 31 31 31 31 31 31 31 31 31 32 33 33 32 32 32 34 37 38 38 39 39 38 37 38 39 40 41 42
39 40 41 39 39 38 38 37 37 38 38 36 34 32 32 33 33 33 32 31 31 31 31 31 33 33 33 33 33 35 37 38 39 40 40 40 40 41 42 43 44 45 46
40 40 41 41 41 40 38 37 37 38 38 37 35 33 33 34 34 34 33 33 32 32 32 33 33 34 34 35 37 39 40 40 41 42 42 42 42 44 46 47 49 50 52
42 41 40 42 42 42 40 39 39 39 38 37 35 34 34 34 35 36 35 34 33 33 34 34 35 36 37 39 41 42 43 43 44 45 45 44 45 47 49 51 53 55 56
45 44 41 41 44 44 43 42 41 40 38 36 35 35 34 34 36 37 36 35 35 36 36 37 38 39 40 42 44 46 47 46 47 48 47 47 49 50 53 55 57 60 61
46 45 43 41 44 46 45 44 43 41 38 35 35 35 35 35 36 37 37 37 38 39 39 40 42 43 43 45 47 48 48 48 48 49 49 51 52 55 57 60 62 65 66
46 45 43 42 44 45 45 44 43 41 37 36 36 36 35 35 35 36 38 39 41 43 43 44 45 46 47 48 49 50 50 51 51 48 48 51 54 57 60 63 66 68 70
46 45 43 43 44 45 45 43 42 40 37 36 36 36 36 36 36 37 39 41 43 44 45 46 47 48 49 51 51 51 51 53 53 53 52 54 56 58 61 65 68 70 72
47 44 43 43 44 45 43 42 41 39 37 37 37 37 38 38 38 39 40 42 44 46 47 48 48 49 51 52 52 53 54 54 55 56 58 59 60 62 64 66 69 71 72

GEFSSE_500_meanwind_018.txt.gz
Wind_Speed
18 20 20 20 20 20 22 22 22 21 19 18 17 17 15 14 13 13 13 13 12 12 12 13 13 14 14 15 14 15 15 16 17 17 18 18 19 19 20 21 21 21 22
19 20 20 20 19 19 21 22 23 22 21 20 20 18 16 15 14 14 14 14 14 14 14 15 15 15 15 16 16 16 17 18 18 18 19 19 19 20 21 22 22 23 23
21 22 21 20 19 19 20 21 22 22 22 22 21 20 18 17 16 15 15 16 15 15 16 16 16 17 17 17 17 18 18 19 19 19 19 19 20 21 22 22 23 24 25
23 23 22 21 20 20 21 22 22 22 22 22 21 20 19 18 17 16 16 16 17 17 17 17 17 17 17 18 18 19 19 20 20 20 20 21 22 23 23 24 24 24 24
23 23 23 23 21 21 20 21 21 21 22 22 21 20 19 19 18 17 16 16 17 18 18 18 17 16 16 16 17 18 19 20 20 21 22 22 24 24 24 25 25 25 26
24 24 24 24 24 23 22 21 21 21 21 22 21 20 20 20 19 18 17 17 17 17 17 17 17 17 17 17 17 18 19 20 21 22 23 24 26 26 26 26 26 26 26
25 24 25 25 25 25 25 24 24 23 23 23 22 22 21 21 21 19 18 18 17 17 17 17 17 16 17 17 17 17 19 20 22 23 23 25 25 24 24 24 24 24 25
26 25 26 26 26 26 26 26 25 24 24 24 24 23 22 23 22 20 19 18 17 17 17 16 16 16 16 17 19 21 23 24 25 27 27 28 28 26 25 24 24 25 25
28 26 28 28 28 28 27 26 26 25 23 23 24 23 23 23 23 21 20 19 18 17 17 17 17 18 18 20 22 23 24 25 26 27 28 29 29 27 26 26 26 26 26
30 28 29 30 29 28 28 27 27 26 24 23 24 24 24 24 23 23 22 21 20 20 19 20 20 21 22 23 24 24 24 24 24 22 23 25 25 26 26 26 27 27 27
31 31 30 30 30 29 28 27 27 27 26 24 23 23 24 24 24 25 25 24 24 23 23 24 24 25 26 26 26 26 26 24 22 20 21 21 21 22 23 24 25 26 27
33 33 32 31 30 30 29 27 27 28 27 25 24 23 23 24 24 26 26 27 27 27 28 28 29 29 29 29 29 29 28 27 25 21 22 21 21 22 23 24 26 27 28
36 35 34 33 32 32 30 29 28 29 29 27 26 25 24 24 25 26 27 28 28 29 30 31 32 33 32 31 31 31 31 30 28 25 25 25 24 25 26 27 28 30 31
36 35 36 36 35 34 32 31 30 30 30 30 29 28 27 26 26 26 27 28 29 31 31 32 33 34 34 33 33 33 32 31 31 29 29 29 29 29 29 29 31 32 33
35 35 36 38 37 36 34 32 31 31 31 31 31 31 30 29 29 29 28 28 29 30 31 32 33 33 33 34 35 35 34 33 32 32 32 33 32 32 32 32 33 34 35
33 34 36 38 38 37 35 33 33 32 32 33 33 33 33 32 31 31 31 30 30 30 31 32 33 33 34 35 36 36 35 34 34 33 34 34 34 34 34 34 35 35 36
32 34 34 36 38 37 36 34 34 33 33 34 34 35 35 34 34 34 33 32 32 33 33 33 35 35 34 35 35 35 35 35 35 34 33 33 33 34 35 35 36 37 38
33 34 34 34 35 36 37 37 36 35 35 35 35 36 36 35 36 36 35 35 35 35 35 36 36 35 34 34 34 35 35 35 34 33 33 33 34 35 36 37 38 39 40
36 36 36 34 33 35 37 38 39 38 37 37 36 36 36 36 37 37 37 37 37 37 37 37 37 36 35 35 35 36 35 35 35 35 35 36 37 38 39 40 41 42 44
38 39 39 36 34 35 35 37 38 39 38 38 37 36 36 36 36 37 37 38 38 39 39 39 39 38 37 37 38 37 37 37 38 38 39 40 41 42 43 44 44 46 47
40 43 43 41 37 37 35 35 37 39 40 39 37 37 37 36 36 36 37 39 40 40 39 40 39 39 39 40 40 40 41 42 42 42 42 43 44 44 45 46 47 49 50
40 44 46 45 42 40 38 38 40 40 39 38 38 39 38 37 37 37 38 39 40 40 40 40 40 39 40 41 42 43 44 45 45 46 46 46 46 47 47 48 50 52 54
42 44 46 47 46 45 43 42 42 40 39 39 40 40 40 39 39 38 38 39 40 40 40 40 40 40 41 43 44 46 47 48 47 47 47 47 48 49 50 51 53 55 57
47 46 46 47 49 48 47 45 43 41 41 41 42 42 41 40 39 38 38 39 40 40 41 41 41 42 43 44 46 48 49 50 49 48 47 48 49 50 52 53 55 57 59
52 51 49 49 50 50 48 47 46 44 43 43 43 41 40 40 38 38 38 39 40 41 41 42 43 44 46 47 48 49 50 50 49 49 48 49 51 52 53 54 55 58 61
57 55 53 52 51 49 49 48 47 46 44 44 43 42 41 40 39 38 38 39 40 40 41 43 44 46 48 49 50 50 50 49 50 51 51 51 51 52 54 56 59 61 63

GEFSSE_500_meanwind_024.txt.gz
Wind_Speed
16 16 17 18 19 19 20 20 19 19 19 20 20 19 19 19 19 18 18 17 17 17 17 17 17 17 17 17 16 16 15 15 15 16 17 17 18 19 20 20 21 21 22
17 17 17 17 18 18 18 18 18 18 20 20 21 21 21 21 21 20 19 19 18 17 18 17 18 18 18 17 16 16 16 16 16 17 17 17 18 19 20 21 21 22 22
18 18 19 18 18 18 19 19 19 19 20 21 22 22 23 23 23 22 21 20 20 19 18 18 18 18 18 18 18 17 17 18 18 19 19 19 20 21 22 23 23 24 24
19 19 19 19 19 19 20 20 21 21 21 22 22 23 23 24 24 23 22 22 21 20 19 19 19 18 19 18 18 18 17 17 18 19 20 20 21 22 23 24 25 25 26
20 20 19 19 19 20 21 21 21 22 23 23 23 23 24 24 24 23 23 22 22 22 21 20 20 20 20 19 19 18 17 17 18 20 21 22 23 24 25 26 26 26 27
22 21 21 21 21 22 22 22 22 23 23 23 24 24 24 24 24 24 24 23 23 23 23 21 20 20 20 20 19 19 18 18 18 20 22 23 24 26 27 27 28 28 27
24 24 23 23 23 23 24 23 23 23 23 24 25 25 25 26 26 25 25 25 25 25 24 23 21 20 20 20 19 18 18 18 19 21 23 24 26 27 28 29 29 29 28
28 26 26 25 25 25 25 25 24 23 22 22 22 23 24 25 25 25 25 25 25 25 24 23 21 20 20 19 19 19 18 19 21 23 24 25 25 26 27 28 28 28 28
29 27 27 26 26 26 25 24 24 23 23 22 21 21 22 23 24 24 24 24 25 25 24 23 21 20 20 20 21 21 21 22 23 25 26 26 25 25 25 26 25 25 26
30 29 28 27 27 26 26 25 25 24 23 23 22 21 21 22 22 22 23 23 23 24 24 24 23 22 22 23 24 24 24 25 26 27 27 27 27 26 26 25 24 24 24
31 31 30 29 28 28 27 27 27 26 25 23 23 22 22 22 22 21 21 21 22 22 24 25 26 26 26 27 28 28 29 30 30 30 30 29 29 28 28 27 25 25 25
31 32 33 32 30 29 29 30 29 28 26 25 24 23 22 22 21 21 21 20 21 22 23 24 26 28 30 30 31 32 34 34 34 34 33 33 32 31 30 29 28 27 27
31 31 32 32 31 31 31 32 32 31 29 27 26 25 24 23 22 21 21 21 21 21 22 23 25 27 29 31 33 34 35 36 36 36 35 35 34 33 32 32 32 31 30
29 29 30 30 30 31 32 33 33 32 31 30 28 27 26 25 24 23 23 22 22 23 23 24 25 25 27 28 29 30 31 33 35 36 36 36 36 36 35 34 34 34 34
28 29 29 29 29 31 33 33 33 33 32 32 30 29 28 27 26 25 25 25 24 25 25 26 26 27 27 28 28 29 31 32 33 34 35 36 36 36 35 35 35 35 35
31 30 30 29 29 30 31 32 33 33 33 32 31 30 29 29 28 28 27 27 27 28 28 28 28 29 29 29 30 31 32 33 33 33 33 33 34 34 34 34 35 34 34
33 33 31 30 30 30 30 31 32 33 33 32 32 31 30 29 29 29 29 29 30 30 30 30 31 31 31 31 32 32 33 33 33 32 32 32 32 32 33 33 34 34 35
36 35 33 32 31 31 31 31 32 32 32 32 32 31 30 29 30 30 30 31 31 31 31 31 31 31 32 33 33 33 34 34 34 33 33 33 33 34 34 35 36 37 38
38 37 36 34 33 32 32 33 33 32 30 31 31 31 30 31 32 32 32 32 32 32 32 32 32 32 33 33 34 35 35 35 35 34 35 35 36 37 38 39 40 41 42
40 40 38 37 35 34 35 35 34 32 31 31 31 31 31 32 33 33 32 32 32 33 33 33 32 33 33 35 35 36 36 36 36 35 36 37 38 40 42 43 44 45 46
41 42 41 40 38 37 37 36 36 35 35 35 34 32 32 33 33 33 33 33 33 33 34 34 34 34 35 36 36 36 36 37 37 37 37 38 40 41 43 45 47 48 48
43 44 44 43 42 41 41 40 40 40 40 39 36 34 33 33 34 34 33 33 33 33 35 35 36 36 36 36 36 36 37 37 38 39 40 41 42 44 46 47 49 49 49
46 46 46 46 47 46 45 45 44 44 43 41 38 36 36 37 37 36 35 34 33 34 35 36 36 36 36 37 36 37 38 38 40 40 42 44 45 47 48 49 49 49 49
48 49 49 49 50 50 49 48 47 46 45 44 43 42 42 41 40 39 37 36 35 36 36 36 36 36 36 37 37 38 39 40 41 42 43 44 46 47 48 49 49 50 50
51 52 53 53 53 53 54 52 51 48 47 47 48 47 45 44 43 42 40 38 37 37 37 36 36 36 37 38 39 40 41 41 42 43 44 45 46 47 49 50 51 52 53
55 56 57 58 58 58 58 57 55 53 50 49 49 49 48 47 46 45 43 41 40 39 38 37 37 37 38 39 40 41 41 42 43 44 44 45 46 48 50 53 54 55 55

GEFSSE_500_meanwind_030.txt.gz
Wind_Speed
16 15 15 15 15 16 17 17 17 17 17 17 17 17 17 17 17 16 16 16 16 16 16 16 15 15 15 16 16 16 17 17 17 16 16 16 16 16 17 18 18 18 18
17 16 15 15 15 16 16 16 15 15 15 16 16 16 17 17 18 18 18 18 18 18 18 18 18 17 17 17 17 18 18 18 17 17 17 17 17 17 18 18 19 19 19
18 17 17 16 17 17 17 16 16 16 16 16 16 15 16 17 18 19 19 19 19 19 19 19 19 19 18 18 19 19 19 19 18 18 17 17 17 17 18 18 19 20 21
18 17 17 17 17 17 17 17 17 17 17 17 17 17 17 18 18 19 19 19 19 20 20 20 20 20 20 19 20 20 19 19 18 18 17 17 18 18 18 19 20 21 22
19 18 17 18 18 18 17 17 18 18 18 18 18 18 19 19 19 19 19 19 19 19 20 20 20 20 20 21 21 21 20 20 19 19 18 18 18 19 19 20 21 22 23
21 21 20 20 20 20 19 19 18 19 19 20 20 20 20 20 20 20 20 20 20 20 20 20 20 21 21 21 22 22 21 21 20 20 19 19 19 20 20 21 21 22 23
25 25 24 24 23 22 22 21 20 20 20 20 20 20 20 19 19 19 19 19 19 20 20 20 20 21 22 22 22 22 22 21 21 21 20 20 21 22 22 23 23 23 22
29 28 28 27 26 25 24 23 22 21 21 20 20 19 19 18 18 18 18 19 19 20 20 21 21 21 22 22 23 23 22 22 22 22 22 23 23 24 25 25 25 24 24
30 30 30 29 28 27 26 25 24 23 22 21 20 19 19 18 17 17 18 18 19 19 20 21 21 21 21 22 23 23 23 23 23 24 25 25 26 27 27 27 27 27 26
30 30 30 30 29 28 28 27 26 25 23 21 21 20 19 19 18 17 18 19 19 20 20 20 21 21 21 22 23 23 24 25 26 27 28 29 30 31 31 31 31 30 29
28 29 30 30 30 29 29 28 28 26 25 23 22 21 20 20 19 19 18 19 19 20 20 20 20 21 21 22 23 24 26 27 29 31 32 33 34 34 35 35 34 34 32
28 29 29 29 30 30 29 29 28 28 26 25 24 23 22 21 21 20 19 19 20 20 21 21 21 21 22 22 23 24 25 27 30 32 34 35 36 36 36 36 36 36 35
29 29 28 28 29 29 29 29 29 29 28 27 26 25 24 24 22 21 21 21 21 21 22 22 22 22 22 22 23 24 25 26 28 30 31 32 33 33 34 34 34 35 35
29 29 30 29 29 28 29 29 29 29 29 29 29 27 26 26 25 23 23 23 23 23 23 24 24 24 24 24 24 25 26 26 27 29 29 30 31 31 32 32 32 32 32
29 30 31 31 30 30 30 30 30 30 31 31 30 29 28 28 27 26 26 26 25 25 25 25 25 25 25 25 26 27 27 28 29 30 31 31 32 32 32 32 31 30 30
29 30 33 33 33 32 31 31 31 32 32 32 31 30 29 29 29 28 28 28 28 27 27 27 26 26 26 26 27 28 29 29 30 31 32 33 33 33 33 32 31 31 30
30 31 33 35 36 35 33 33 33 33 33 32 31 30 29 30 30 30 29 30 29 29 28 28 28 28 28 28 28 29 30 30 30 31 32 33 34 34 33 33 32 32 32
32 33 34 36 37 37 36 36 36 35 34 33 32 31 30 30 30 30 30 31 30 30 30 30 30 30 30 30 30 31 31 31 32 32 33 34 34 34 33 33 33 33 34
36 36 36 37 38 39 39 39 38 38 36 35 34 32 31 31 31 31 31 32 31 31 32 32 32 31 31 32 32 32 32 33 33 34 34 35 35 34 33 33 33 33 34
39 39 39 39 40 41 41 41 41 39 38 37 36 35 35 34 34 33 33 33 33 33 33 33 33 33 33 33 33 33 33 34 34 35 35 36 35 34 34 34 34 35 36
42 42 42 42 42 43 43 44 43 42 41 41 40 39 39 37 36 35 35 35 35 34 34 34 34 34 34 34 34 34 34 34 35 36 36 36 35 35 35 35 36 36 37
45 45 44 45 45 46 46 46 46 46 45 45 45 44 41 39 38 38 38 38 38 37 37 36 36 35 35 35 35 35 35 36 36 36 36 36 36 36 37 37 37 38 38
48 47 48 48 49 49 50 50 49 49 49 48 47 45 43 42 42 42 42 42 41 40 39 38 38 38 38 38 38 38 37 37 38 38 38 37 37 38 39 39 39 40 40
48 49 49 50 51 52 53 53 52 51 50 49 47 47 46 46 46 46 46 46 45 44 43 42 41 40 40 40 40 39 39 40 39 39 39 39 39 40 41 41 41 42 42
48 48 49 50 51 53 55 56 56 55 54 52 51 50 50 49 49 49 49 49 48 48 46 45 44 43 42 41 41 41 41 41 41 41 40 41 41 42 43 43 44 45 45
47 48 50 51 52 54 55 57 58 58 57 56 54 53 52 52 51 50 50 50 50 50 49 48 47 46 44 43 43 43 43 43 43 43 43 43 43 44 45 46 47 48 48

GEFSSE_500_meanwind_036.txt.gz
Wind_Speed
16 15 15 16 16 16 16 16 17 17 17 18 18 18 18 18 18 18 18 18 18 17 16 15 14 14 14 14 14 14 15 15 16 16 16 16 15 15 15 15 16 16 16
15 15 15 15 15 16 16 15 16 16 16 16 16 16 17 17 18 18 19 19 19 19 19 18 17 17 16 16 16 16 16 17 17 17 17 17 17 16 16 16 16 17 17
16 16 16 16 17 17 17 17 17 16 16 16 16 16 16 16 16 16 17 18 19 20 20 20 19 18 17 17 17 17 18 18 18 19 19 18 18 17 17 17 17 17 17
17 16 16 17 17 17 17 17 17 17 16 16 16 16 16 16 16 17 17 17 18 18 18 19 19 18 18 17 18 18 18 19 19 19 19 19 18 18 18 18 18 18 18
17 16 16 16 17 16 16 16 16 16 16 16 16 16 16 17 17 18 18 18 18 18 17 18 18 18 18 18 18 19 19 19 20 20 20 20 19 19 19 19 18 18 19
17 17 17 17 17 17 17 16 16 17 18 18 18 18 18 18 19 19 19 19 19 18 18 18 18 19 19 19 19 19 20 20 21 21 21 21 21 20 20 20 19 19 20
18 19 19 20 20 20 20 19 19 19 19 20 20 20 20 19 20 20 20 20 19 18 18 18 18 19 19 19 20 20 21 21 21 22 22 22 22 22 21 21 21 21 22
21 22 23 23 23 23 23 22 21 21 21 21 21 21 20 19 19 20 19 19 19 19 18 19 19 19 20 20 21 21 21 22 22 23 23 24 24 24 24 24 24 24 24
25 26 26 26 26 26 25 24 23 22 22 21 21 21 21 20 19 19 19 19 19 19 19 19 19 20 20 21 21 22 22 22 23 23 24 25 26 26 27 27 28 28 28
28 29 29 29 29 28 28 26 25 24 23 23 22 22 22 21 20 20 20 19 19 19 19 19 19 19 19 20 21 21 21 22 22 23 24 26 27 28 29 30 30 31 31
30 31 31 31 30 30 29 28 27 26 25 25 24 23 23 22 21 21 21 20 20 20 20 20 20 19 20 20 20 20 20 21 21 22 23 25 26 28 29 30 30 31 31
31 31 30 30 30 30 30 29 29 28 27 26 25 25 24 23 23 22 22 22 22 22 21 21 21 21 21 20 20 20 21 21 22 23 24 25 26 27 28 28 29 29 30
30 29 29 29 30 30 31 31 30 29 29 28 27 27 26 25 24 23 23 23 23 23 23 23 23 23 23 22 22 22 22 22 23 24 25 26 26 27 27 28 29 29 29
28 28 29 29 30 31 32 32 31 31 30 30 29 28 27 26 26 25 25 25 25 25 25 25 25 25 25 24 24 23 23 24 24 25 25 26 27 27 28 28 29 30 30
29 29 29 30 30 32 32 33 33 32 32 32 31 30 29 28 28 27 27 27 27 27 27 27 27 27 27 26 26 25 25 25 25 26 26 27 27 28 28 29 29 30 30
30 30 30 30 31 32 32 33 33 33 34 34 33 32 32 31 30 29 29 29 29 29 29 29 29 29 29 28 27 27 26 26 26 26 26 27 27 28 28 28 28 28 29
32 32 32 32 33 33 33 34 34 34 35 35 35 34 34 33 32 32 31 31 31 31 31 31 30 30 30 29 29 28 28 27 27 27 27 27 27 27 28 28 28 28 28
34 34 35 35 35 35 35 36 36 37 36 36 36 36 36 35 35 35 34 34 33 33 33 32 32 31 31 31 30 30 29 29 28 27 27 27 27 27 27 27 28 28 28
35 36 36 37 37 37 38 39 39 39 39 39 39 39 38 38 38 38 38 37 37 36 35 34 34 33 33 32 32 31 31 30 29 28 28 28 28 28 28 28 28 28 29
37 37 37 38 38 39 40 41 41 41 42 42 42 42 42 42 42 42 41 41 40 39 38 37 37 36 35 34 34 33 33 32 31 30 29 29 29 30 30 30 30 30 30
39 39 39 39 39 41 42 42 43 44 45 45 45 46 46 46 46 45 44 43 43 42 42 41 40 39 37 36 36 36 35 33 32 32 31 31 32 32 33 33 33 33 32
41 41 41 41 42 43 43 44 45 46 47 48 49 49 49 49 49 48 48 47 47 46 46 45 44 42 41 40 39 38 37 36 35 35 34 35 35 35 35 36 36 36 36
43 43 43 43 44 44 45 46 47 48 49 50 50 50 50 51 52 52 51 51 51 50 49 48 48 46 44 43 42 41 40 38 38 38 37 38 38 38 38 38 38 39 39
44 44 44 44 44 45 46 46 47 48 49 50 51 52 53 54 55 55 55 54 54 54 52 51 50 50 48 47 45 44 44 43 42 40 40 41 41 41 41 41 41 42 42
44 44 44 44 44 45 46 47 48 49 49 50 52 53 54 55 56 57 57 57 57 56 55 54 53 52 51 50 49 48 47 46 45 44 43 44 43 43 44 44 45 45 46
42 42 42 43 43 44 45 46 47 49 50 51 52 54 55 56 57 58 59 60 60 59 58 57 56 55 54 53 52 51 50 50 48 47 46 46 46 46 46 47 47 48 49

GEFSSE_500_meanwind_042.txt.gz
Wind_Speed
16 15 15 14 13 13 12 12 12 12 13 13 14 14 15 16 16 16 16 16 16 16 17 18 18 18 17 16 16 15 15 15 15 15 15 16 16 16 16 16 16 16 16
16 15 15 14 13 12 12 11 12 12 13 13 14 15 15 16 16 17 17 17 16 17 17 18 19 19 18 18 17 17 17 16 16 16 17 17 17 16 16 16 16 16 17
16 16 15 14 14 13 12 12 12 13 13 14 15 15 16 16 17 17 17 17 17 17 18 18 19 19 18 18 17 17 17 17 17 17 18 18 17 17 17 16 17 17 17
17 17 16 15 15 14 13 13 13 14 14 15 15 16 16 16 17 17 17 17 18 18 18 18 18 18 18 18 18 18 18 18 18 18 18 18 18 18 17 17 17 18 17
19 18 17 17 16 15 14 14 14 14 15 15 16 16 16 16 16 16 17 17 18 18 19 19 19 18 18 18 18 18 18 18 18 18 18 18 18 18 18 18 18 18 18
20 19 19 18 18 17 16 15 14 15 15 16 17 17 18 18 18 18 18 18 18 19 19 19 19 19 18 18 18 19 19 19 19 18 18 19 19 19 19 19 19 20 20
21 21 20 20 19 18 17 17 16 16 17 18 19 19 20 20 20 19 19 19 19 19 19 19 19 19 19 19 19 19 20 20 19 19 19 19 19 20 20 20 20 21 22
23 23 22 21 20 19 19 19 19 19 19 19 20 21 21 21 21 20 20 20 20 19 19 19 19 19 19 20 20 20 20 20 20 19 19 19 19 19 20 20 21 22 23
25 25 24 23 22 21 21 21 22 21 21 21 22 22 22 22 22 21 21 21 21 20 19 19 20 20 20 20 20 20 20 19 19 19 19 18 18 19 19 20 21 22 24
27 27 26 24 23 23 23 24 24 24 24 23 23 23 23 22 22 22 22 22 22 21 20 20 20 20 20 21 21 20 20 19 19 18 18 18 18 19 19 20 21 22 23
29 28 27 26 25 25 25 26 26 26 25 25 24 23 23 23 23 23 23 23 23 22 21 21 21 21 21 21 21 21 20 20 19 19 19 19 19 20 20 21 22 22 23
30 29 28 27 27 27 27 28 27 27 26 25 25 24 24 23 23 23 24 24 24 23 22 22 22 22 22 22 22 22 22 21 20 21 20 20 21 21 21 21 21 22 22
31 30 29 29 29 29 28 28 28 27 26 26 26 26 25 24 24 24 25 25 25 24 24 23 23 23 23 23 24 24 24 23 22 22 22 22 22 22 22 22 22 22 22
32 31 31 30 30 29 29 28 28 27 27 27 27 27 26 26 25 25 26 26 26 26 26 25 25 25 25 25 26 26 26 25 24 24 24 24 23 23 23 23 23 23 22
33 32 31 30 30 30 29 28 28 27 27 27 27 27 28 27 27 27 27 27 27 28 28 28 28 27 28 28 28 28 28 28 26 25 26 26 25 25 24 24 23 23 22
33 32 32 31 31 30 29 29 28 28 28 28 28 28 29 28 28 29 29 28 29 29 29 30 30 30 30 30 31 30 30 29 29 27 27 28 27 27 26 25 24 23 22
34 33 32 32 31 30 30 29 29 29 29 29 29 29 30 30 30 30 31 31 31 32 32 32 33 33 33 33 33 33 32 32 31 30 28 29 29 29 28 27 26 25 24
34 33 33 32 31 31 31 31 30 31 31 31 31 31 32 33 33 33 33 34 34 35 35 35 35 36 36 36 36 35 34 34 33 32 30 30 30 30 30 29 28 27 26
34 34 33 33 32 32 32 32 32 32 32 33 34 34 35 35 36 36 36 37 38 38 38 38 39 39 39 39 39 38 37 36 36 34 33 32 31 31 32 32 30 29 28
35 35 34 34 34 34 34 34 34 33 34 35 36 37 38 39 39 40 40 40 40 41 41 42 42 42 42 42 42 41 40 39 39 37 35 34 33 33 33 33 33 32 31
36 36 36 36 35 35 35 36 36 36 37 38 39 40 41 42 42 43 43 43 44 44 44 44 45 45 46 46 46 45 45 43 41 40 39 37 36 36 35 35 35 34 34
36 36 37 37 37 37 37 38 39 39 39 40 41 42 43 45 46 47 47 47 47 48 48 48 48 49 49 49 49 49 48 47 44 43 43 41 40 39 38 37 37 37 37
36 36 37 37 38 39 39 39 40 41 42 42 43 44 45 47 48 49 50 50 51 51 51 51 52 52 52 53 53 53 51 50 49 47 46 45 44 42 42 41 40 40 40
36 36 37 38 39 39 40 41 42 43 43 44 45 46 46 48 49 50 51 52 53 54 54 54 55 55 55 55 56 56 55 54 53 51 49 48 47 46 45 45 44 43 43
36 37 38 39 39 40 41 42 43 43 44 44 45 46 47 48 49 50 51 53 55 56 57 57 57 58 58 58 58 58 59 58 56 55 53 51 50 50 49 48 47 46 45
38 39 39 39 40 40 41 42 42 43 44 44 45 46 47 48 49 50 51 53 55 56 58 59 60 61 61 61 61 61 61 60 59 58 57 55 54 52 52 51 50 49 49

GEFSSE_500_meanwind_048.txt.gz
Wind_Speed
18 17 15 14 13 11 10 9 8 7 7 7 7 8 9 10 11 12 12 13 13 13 13 14 14 15 15 14 13 13 13 13 14 15 15 16 17 17 16 16 16 15 15
18 18 17 15 13 11 10 8 7 7 7 7 8 9 10 11 12 12 13 14 14 15 15 16 16 16 15 15 14 14 14 15 15 16 16 17 17 17 17 17 16 16 15
18 18 16 14 13 11 10 9 8 8 7 8 8 9 10 11 12 13 14 14 15 15 16 16 16 16 16 15 15 15 15 16 16 17 18 18 18 18 18 17 17 16 16
17 16 15 14 12 11 10 9 9 9 9 9 10 11 11 12 13 14 15 15 15 15 16 16 16 16 16 16 16 16 17 17 18 18 18 19 19 19 18 18 18 17 17
17 16 15 13 12 11 11 10 10 10 11 11 11 12 12 13 14 15 15 15 15 15 16 16 16 16 16 16 16 16 17 19 19 19 20 20 20 20 20 19 19 19 18
18 17 16 14 14 13 12 12 12 12 12 13 13 14 14 15 16 16 16 16 16 16 16 16 16 16 16 16 16 17 18 19 19 20 21 21 21 21 20 20 20 20 20
19 18 17 16 15 15 14 14 14 14 14 14 15 16 16 17 17 17 17 17 17 16 16 16 16 16 16 17 17 18 18 19 19 20 20 20 20 20 20 20 20 20 20
21 20 19 18 18 17 17 16 16 16 16 16 16 17 18 18 19 19 18 18 17 17 17 17 17 17 17 18 18 18 19 19 19 19 20 20 20 19 19 19 19 19 19
23 22 21 20 20 20 19 19 18 18 18 18 18 18 18 19 19 19 19 19 18 18 18 18 18 18 19 19 19 19 19 20 20 19 19 20 19 19 19 19 19 19 19
25 24 23 23 23 22 22 21 20 20 20 19 19 19 19 19 20 20 19 19 19 19 19 19 19 19 20 20 20 21 21 21 20 20 20 20 20 20 20 20 20 20 20
28 27 26 26 25 25 24 23 22 21 21 21 20 20 19 19 19 20 20 20 20 21 21 21 21 21 21 21 21 22 22 22 22 21 21 21 21 21 21 21 21 21 21
30 29 29 28 28 27 26 25 23 23 22 22 22 21 20 19 20 20 21 21 21 22 22 23 23 23 23 23 23 23 23 24 24 24 23 23 23 23 22 22 22 22 22
32 31 31 30 29 29 28 26 25 24 24 24 23 23 22 21 21 21 22 22 23 23 24 24 25 25 25 26 26 25 25 25 25 26 26 25 25 25 25 24 24 24 23
34 34 33 32 31 30 29 28 26 25 25 25 24 24 23 22 22 23 24 23 24 25 25 26 26 26 27 27 28 28 27 27 27 28 28 28 27 27 27 27 26 26 25
36 35 34 34 33 31 30 29 28 27 26 26 25 25 25 24 24 24 25 25 26 27 27 28 28 28 28 29 30 30 30 29 29 29 29 29 29 29 29 29 28 28 27
38 37 36 35 34 32 31 31 30 29 28 27 26 27 27 26 26 26 26 27 28 29 29 30 30 30 30 31 31 32 32 32 31 31 31 31 31 31 30 30 30 30 29
39 38 37 36 35 33 33 32 31 30 29 28 28 28 28 28 28 28 28 29 30 31 31 32 32 33 33 34 34 35 35 35 34 34 34 34 33 33 32 32 32 32 32
40 39 38 37 36 35 34 33 32 31 30 29 30 29 30 30 31 31 30 31 32 33 33 34 35 36 37 37 38 38 38 38 38 37 37 36 36 36 35 35 34 34 34
40 39 38 37 36 36 35 34 33 32 31 31 31 31 32 32 33 33 33 34 35 35 36 37 38 39 39 40 41 41 42 42 42 41 40 39 39 39 38 38 37 36 36
41 40 39 38 37 37 36 35 34 33 33 33 33 33 34 34 35 35 36 36 38 38 39 40 41 42 42 43 44 44 45 45 45 44 44 44 43 42 42 41 40 39 39
41 41 40 39 39 38 37 36 35 35 35 35 35 36 36 37 37 38 38 39 40 41 42 43 44 44 45 46 47 47 48 48 48 48 48 48 47 46 45 44 43 42 42
42 41 41 41 40 39 38 38 37 37 37 37 37 37 38 39 40 41 41 42 43 44 44 45 46 47 47 48 49 50 50 50 49 51 51 51 50 49 48 47 47 46 45
42 42 42 42 41 41 40 39 39 38 38 38 38 39 40 41 42 43 44 45 46 46 47 47 48 49 49 50 51 52 53 52 52 52 52 53 53 52 51 50 49 49 49
42 43 43 43 42 42 41 40 40 39 39 40 40 40 41 42 43 44 46 47 47 48 48 49 49 50 51 51 52 52 54 54 55 55 55 55 55 54 54 53 52 52 51
42 42 43 42 42 42 41 40 39 39 40 40 41 42 43 44 45 45 46 47 48 48 49 49 50 51 51 51 52 53 54 55 56 57 58 57 57 57 56 57 56 55 54
42 42 42 42 41 41 40 40 40 40 41 42 43 44 45 45 46 46 47 48 48 48 48 48 49 50 50 51 53 54 55 57 58 60 61 60 60 59 59 59 58 57 56

GEFSSE_500_meanwind_054.txt.gz
Wind_Speed
15 14 14 12 11 10 9 8 8 7 6 4 4 4 4 5 6 7 8 9 10 10 11 11 12 13 13 12 12 12 12 12 13 14 15 15 16 17 17 18 18 18 18
16 16 15 14 13 12 10 9 8 7 6 4 4 4 5 6 7 8 9 10 10 11 12 12 13 13 14 14 13 13 13 13 14 15 15 16 17 18 18 19 19 19 19
18 16 16 15 13 12 11 10 9 7 5 4 4 5 6 7 9 10 11 11 11 12 12 13 13 14 14 14 14 14 14 15 15 16 17 18 19 19 19 20 20 20 20
18 16 15 14 13 12 11 9 8 6 5 5 5 6 7 8 10 11 12 12 13 13 13 13 14 14 15 15 15 15 16 16 17 17 18 19 20 20 20 20 20 20 20
18 17 15 14 13 11 10 9 8 7 6 6 6 7 8 10 11 12 13 14 14 14 14 14 14 15 15 16 16 16 17 17 18 18 19 20 20 20 20 20 20 20 20
19 17 16 14 13 11 10 9 8 7 7 7 8 9 10 12 12 13 14 15 15 15 15 15 15 16 16 17 17 18 18 19 19 20 21 21 21 21 21 21 20 20 20
19 17 16 14 13 12 10 9 8 8 8 9 10 12 13 14 15 15 16 16 16 16 16 16 16 16 17 18 19 19 20 21 22 22 22 22 22 22 22 22 21 21 21
19 17 16 15 13 12 11 10 9 9 10 11 12 13 15 16 16 17 17 17 17 17 16 17 17 17 18 19 20 21 22 22 23 24 24 24 24 23 23 23 22 22 21
21 19 17 16 15 14 12 11 11 11 11 12 13 14 15 17 17 18 18 19 18 18 18 18 18 18 19 20 21 22 23 24 24 25 25 25 25 25 25 24 24 23 23
23 21 19 17 16 15 14 13 13 13 13 14 15 15 16 17 18 19 19 20 20 19 19 19 19 20 20 21 22 23 24 25 26 26 27 27 27 26 26 26 26 25 25
25 23 21 20 18 17 16 15 15 15 15 16 16 17 17 18 19 19 20 20 20 21 21 21 21 22 22 23 23 24 25 26 27 28 28 28 28 28 28 27 27 27 27
28 26 24 22 21 20 18 18 17 17 18 18 18 19 19 20 20 20 20 21 21 21 22 22 23 23 24 24 25 26 27 28 28 29 29 29 29 29 29 29 29 28 28
29 28 26 24 23 22 21 20 20 20 20 20 20 20 21 21 22 22 21 21 22 22 23 23 24 24 25 26 27 27 28 29 30 30 31 31 31 31 31 31 30 30 30
31 30 28 27 26 25 24 23 22 22 22 22 22 22 23 23 24 23 23 23 23 23 24 24 25 26 27 27 28 29 30 31 32 32 33 33 33 33 33 33 33 32 32
34 32 31 30 29 28 27 26 25 25 24 24 24 24 25 25 26 26 25 25 25 25 25 26 27 27 28 29 30 31 32 33 33 34 35 35 35 36 36 35 35 35 34
36 35 34 33 32 31 30 29 28 28 27 27 27 26 26 27 27 27 27 27 27 27 27 28 29 29 30 31 32 33 34 35 36 36 37 37 38 38 38 38 38 38 37
39 38 37 36 35 34 33 32 31 30 29 29 29 28 28 29 29 29 29 29 29 29 29 30 31 31 33 34 35 36 37 38 38 39 39 40 40 41 41 41 41 41 40
41 40 39 38 37 37 36 35 34 33 32 32 31 31 31 31 31 30 30 31 31 31 31 32 33 34 35 37 38 39 40 41 41 42 42 43 43 43 44 44 44 44 43
43 42 41 40 39 39 38 37 36 36 35 34 34 33 33 33 32 32 32 32 33 33 34 35 36 37 38 40 41 42 43 44 44 44 44 45 45 45 46 46 46 46 45
46 44 43 42 41 41 40 40 39 38 38 37 36 36 35 35 34 34 34 34 35 35 36 37 38 39 41 42 44 44 45 46 46 46 46 47 47 47 47 47 47 46 46
47 46 45 44 43 43 43 42 41 40 40 39 38 37 37 36 36 36 36 36 37 38 38 39 41 42 43 45 47 47 47 47 47 47 48 47 47 47 47 47 47 47 47
47 47 46 45 45 44 44 44 43 42 41 40 40 39 39 38 38 38 38 38 39 40 41 42 43 45 46 48 49 49 48 47 47 47 47 47 47 47 47 47 48 47 48
46 46 47 46 45 45 45 44 44 43 42 41 41 40 40 40 40 40 40 41 42 42 43 44 46 48 49 50 50 51 51 49 48 46 46 46 46 47 47 48 49 50 51
45 46 46 46 46 46 45 45 44 44 43 42 42 42 41 42 42 42 42 43 43 44 45 47 49 50 51 51 51 51 51 50 50 48 46 46 46 47 48 50 51 52 53
45 45 46 46 46 46 46 46 45 45 44 43 43 43 43 44 44 44 44 44 45 46 48 49 50 51 51 51 51 50 50 49 49 49 47 46 47 48 50 52 53 54 54
44 45 45 46 47 47 47 47 46 46 46 45 45 45 45 45 45 45 45 46 47 48 50 50 51 51 51 50 50 49 49 48 48 48 47 47 48 49 51 53 54 54 54

GEFSSE_500_meanwind_060.txt.gz
Wind_Speed
15 14 13 12 10 8 7 6 5 4 4 4 3 3 2 1 1 2 3 4 5 6 7 8 8 9 9 9 9 10 10 11 11 12 13 14 15 16 17 18 18 19 19
16 15 14 12 11 9 7 7 6 5 5 4 4 3 1 0 1 2 4 5 6 7 8 8 9 9 9 10 11 11 11 11 12 13 14 14 16 17 18 19 19 19 19
18 16 15 13 12 10 8 7 7 6 5 4 3 3 1 1 2 3 5 6 7 8 8 8 9 9 10 11 11 11 12 12 13 14 15 16 17 18 19 19 20 20 20
19 17 16 14 12 10 9 8 7 6 5 4 3 3 2 2 3 4 5 7 8 9 9 9 9 10 10 11 11 12 13 13 14 15 16 17 18 19 20 20 21 21 21
20 18 17 15 13 11 10 9 8 7 6 5 4 3 3 3 4 5 6 7 8 9 10 10 10 10 11 11 12 13 14 15 16 17 18 19 19 20 21 22 22 22 22
21 19 18 16 14 12 11 10 9 8 7 6 5 4 4 4 5 6 7 8 9 10 11 11 11 11 11 12 13 14 15 16 17 18 19 20 20 21 22 23 24 24 24
23 20 19 18 16 14 12 11 10 9 7 6 6 5 5 6 6 7 8 9 10 11 11 11 12 12 12 13 13 14 15 16 17 18 20 21 22 23 23 24 25 25 25
24 22 20 19 17 16 14 13 11 10 9 8 7 7 7 7 8 9 9 10 11 12 12 12 12 13 13 14 14 15 16 17 18 20 21 22 23 24 25 25 26 26 26
26 23 21 20 18 17 16 14 13 11 10 9 8 8 8 9 9 10 11 11 12 13 13 13 14 14 15 15 16 17 17 19 20 21 22 23 24 25 26 27 27 27 27
27 25 23 21 20 18 17 16 14 13 12 10 10 9 9 10 10 11 11 12 13 14 14 14 15 16 16 17 17 18 19 20 21 22 23 24 25 26 27 28 28 29 28
28 26 24 23 21 20 18 17 16 14 13 11 11 10 11 11 11 12 12 13 13 14 15 15 16 17 17 18 19 20 20 21 22 23 24 25 26 27 28 29 30 30 30
31 29 27 25 23 22 20 19 17 16 14 13 12 12 12 12 13 13 13 14 14 15 15 16 17 17 18 19 20 21 22 23 23 24 25 26 27 29 30 31 31 31 31
34 31 29 27 25 24 22 21 19 18 16 15 14 14 14 14 14 15 15 15 16 16 17 17 18 19 20 21 22 23 24 24 25 26 27 28 29 30 31 32 33 33 33
36 34 32 30 28 26 25 23 22 20 18 17 17 16 16 16 17 17 17 17 18 18 18 19 20 20 21 22 24 24 25 26 28 29 30 31 32 33 33 34 35 35 35
38 36 34 32 31 29 28 26 25 23 21 20 19 19 19 19 19 19 20 20 20 20 21 21 22 23 24 25 26 27 28 29 30 31 32 33 35 35 36 37 37 37 37
40 38 37 35 33 32 31 29 27 26 25 24 23 22 22 22 22 22 22 23 23 23 23 24 24 25 26 27 28 29 30 31 32 33 35 36 37 38 39 39 39 38 38
41 40 39 37 36 35 33 32 31 30 28 27 26 25 25 25 25 25 25 26 25 25 26 26 27 28 29 30 30 31 32 33 34 36 37 39 40 41 41 41 41 40 39
42 41 41 40 38 38 37 35 34 33 32 30 30 29 28 28 28 28 28 29 28 28 28 29 30 30 31 32 33 34 35 36 37 38 40 41 42 43 43 42 41 41 40
43 43 42 42 42 41 40 39 37 36 35 34 33 32 32 31 31 30 30 31 31 31 31 32 33 33 34 34 35 36 37 38 39 41 43 44 44 45 44 43 42 42 41
45 44 43 43 43 43 42 41 40 39 38 37 36 36 35 34 34 33 33 33 34 34 34 34 35 36 36 37 38 38 39 40 41 43 45 46 46 45 45 44 43 42 41
47 46 46 45 44 45 44 44 43 42 41 40 39 39 38 37 37 36 36 36 36 36 36 37 38 38 39 40 41 41 41 42 43 45 46 47 46 45 45 44 43 42 41
50 49 48 48 47 47 47 47 46 45 44 43 42 42 41 40 40 39 39 38 38 39 39 39 40 41 41 42 43 44 43 43 44 45 47 47 46 45 44 44 43 42 42
50 50 50 49 48 48 48 48 47 47 47 46 45 45 44 43 43 42 42 41 41 41 41 41 42 43 43 44 44 46 46 46 46 45 45 45 45 45 44 44 43 43 43
50 50 50 50 50 50 50 49 48 48 48 48 47 47 46 45 45 44 43 43 42 43 43 43 44 44 45 45 46 46 48 49 49 47 45 43 43 43 43 43 44 43 43
50 50 50 50 50 51 51 51 50 49 49 49 48 48 47 47 46 45 44 44 44 44 44 44 45 45 46 47 47 47 48 49 49 48 46 44 43 43 43 43 43 42 43
50 50 49 49 49 50 50 50 49 49 49 49 49 49 49 48 47 46 46 46 46 46 45 45 46 46 47 47 48 48 48 48 47 46 45 44 43 43 43 43 43 43 43

GEFSSE_500_meanwind_066.txt.gz
Wind_Speed
17 15 14 13 12 11 10 9 8 6 5 5 4 4 4 4 3 3 1 0 2 3 4 4 5 6 6 7 8 8 9 9 10 11 11 12 13 14 15 16 17 18 19
18 17 15 14 13 12 11 10 8 7 6 5 5 4 5 4 4 3 2 1 2 3 4 4 5 6 6 7 8 8 9 9 10 11 11 12 13 14 15 16 18 19 19
20 18 16 15 13 12 11 10 9 8 7 6 6 5 5 5 4 3 2 1 2 3 4 5 5 6 6 7 8 8 9 9 10 11 12 13 13 15 16 17 18 19 20
21 19 17 16 14 13 12 11 10 9 8 7 7 7 6 5 4 3 2 2 2 3 4 5 5 6 6 7 7 8 9 9 10 11 12 13 14 15 16 17 18 20 21
23 21 18 16 15 14 13 12 11 10 9 9 8 8 7 6 5 4 3 2 3 3 4 5 5 6 6 7 7 8 8 9 10 11 12 13 14 15 17 18 19 20 21
25 22 19 18 16 15 14 13 12 11 11 10 10 9 8 6 5 4 3 3 3 4 4 4 5 5 6 6 7 8 9 10 10 11 13 14 15 16 18 19 20 21 22
26 23 21 19 18 16 15 14 13 13 12 12 11 10 9 7 6 5 4 4 4 4 4 5 5 6 6 7 8 8 9 10 11 12 14 15 16 18 19 20 22 23 24
27 25 22 20 19 18 17 16 15 14 13 13 12 11 10 8 7 6 5 5 5 5 5 5 6 6 7 8 9 10 10 12 13 14 15 16 18 19 20 22 23 24 25
28 27 24 22 21 20 18 17 16 16 15 14 13 12 10 9 8 7 7 6 6 6 6 6 7 7 8 9 10 11 12 13 15 16 17 18 20 21 22 24 25 26 26
29 28 26 24 22 21 20 19 18 17 16 15 14 13 11 10 9 9 8 8 8 8 8 8 9 9 10 11 12 13 14 15 16 18 19 20 22 23 24 25 26 27 28
30 29 27 25 24 23 22 21 20 19 18 17 15 14 13 11 11 10 10 9 9 10 10 10 11 11 12 13 14 15 16 17 18 19 21 22 23 24 26 27 28 29 30
32 31 29 27 25 24 23 23 22 21 20 19 17 16 14 13 12 12 11 11 11 11 12 12 13 13 14 15 16 17 18 19 20 21 23 23 25 26 27 29 30 31 32
34 32 30 28 26 25 24 24 23 23 22 21 19 17 16 15 14 14 13 13 13 13 13 14 14 15 16 17 18 19 19 20 22 23 24 25 26 27 29 30 31 33 34
36 33 32 30 28 26 26 26 25 25 24 23 21 20 18 17 16 16 15 15 15 15 15 16 16 17 18 19 20 20 21 23 24 25 26 27 29 30 31 32 33 34 35
38 36 34 32 30 28 27 27 27 27 26 25 24 22 21 20 19 18 17 17 17 17 17 18 18 19 20 21 22 22 23 25 26 27 28 29 31 32 33 34 35 36 36
40 38 36 34 33 31 29 28 28 28 28 27 26 25 23 22 21 20 20 20 19 19 20 20 21 21 22 23 24 25 25 27 28 29 30 31 32 34 35 36 37 37 38
42 41 39 37 36 34 33 31 30 30 30 29 29 28 26 25 24 23 23 22 22 22 22 23 23 24 24 25 26 27 28 29 30 31 32 33 34 35 37 38 38 39 39
43 42 41 40 38 37 35 34 33 32 32 32 31 31 30 29 27 26 26 26 25 25 25 26 26 26 27 28 29 29 30 31 32 33 35 36 37 37 38 39 40 41 41
46 44 43 41 40 39 38 37 35 34 34 34 34 34 33 32 31 30 30 29 29 28 28 29 29 29 30 31 31 32 33 34 35 35 36 38 39 39 40 40 41 42 42
47 46 44 43 42 41 39 39 37 36 35 36 36 36 36 36 35 34 34 33 32 32 32 32 32 32 33 34 34 34 35 36 37 37 38 39 40 41 42 42 43 43 43
48 46 45 44 43 42 41 40 39 38 37 37 38 38 38 38 38 38 37 36 36 35 35 36 36 36 36 37 37 37 37 37 38 39 39 40 42 42 43 43 44 43 43
48 48 47 46 45 44 43 42 41 40 40 39 39 40 41 42 42 41 41 40 39 39 39 39 39 39 39 39 40 40 39 38 39 40 40 41 42 43 44 45 44 44 44
47 47 48 48 47 46 45 45 44 43 42 42 42 42 42 43 44 44 44 43 43 43 43 43 43 42 42 41 42 43 43 41 40 40 41 41 42 43 44 45 45 44 44
46 47 48 48 49 49 48 47 46 46 45 45 45 44 45 45 46 47 47 47 47 46 46 45 45 44 44 43 43 44 44 44 44 42 42 42 43 44 44 45 45 44 43
46 46 47 47 48 48 49 49 49 49 49 48 47 48 49 48 49 49 49 49 49 48 47 47 46 46 45 45 45 45 44 45 44 44 43 44 45 44 45 45 45 44 43
46 46 46 47 47 47 48 49 49 49 49 49 50 50 50 49 49 49 50 49 49 48 48 47 47 46 46 46 46 46 45 44 44 44 44 45 45 45 45 45 44 43 42

GEFSSE_500_meanwind_072.txt.gz
Wind_Speed
21 19 17 15 13 11 9 9 8 8 8 7 7 7 7 6 6 6 6 5 4 4 4 3 3 3 3 3 3 3 3 3 3 4 5 6 7 8 9 11 12 13 15
23 20 18 16 14 13 11 10 10 9 8 8 8 8 8 7 7 7 7 6 5 5 4 4 4 3 3 3 3 3 3 3 3 4 5 6 7 9 10 11 13 14 15
25 22 20 18 16 14 13 12 11 10 10 10 9 9 9 9 8 8 7 7 6 6 5 5 5 4 4 4 3 3 3 3 4 5 6 6 8 9 10 11 13 14 16
27 24 22 19 17 16 14 13 12 11 11 11 11 10 10 10 9 9 8 7 7 6 6 6 5 5 5 5 4 4 4 4 5 6 7 7 8 9 10 12 13 15 16
29 26 23 21 19 17 15 14 13 13 12 12 12 12 12 11 11 10 9 8 7 7 7 6 6 6 6 5 5 5 5 5 6 7 7 8 9 10 11 12 14 15 17
30 28 25 22 20 18 16 15 14 14 13 13 13 13 13 12 12 11 10 9 8 8 7 7 7 7 6 6 6 6 6 7 7 7 8 9 10 11 12 13 15 16 18
31 29 26 23 21 19 17 16 15 15 14 14 14 14 14 14 13 12 11 10 9 8 8 8 7 7 7 7 7 7 7 7 8 8 9 10 11 12 13 15 16 17 19
33 30 27 24 22 20 18 17 16 16 15 15 16 16 16 15 14 13 12 11 10 9 9 9 8 8 8 8 8 8 8 8 9 9 10 11 12 13 14 16 17 18 20
34 31 28 26 23 21 19 18 17 17 17 17 17 17 17 16 15 14 13 12 11 10 10 10 9 9 9 9 9 9 9 10 10 11 12 12 13 15 16 17 19 20 21
34 33 30 27 25 22 20 19 18 18 18 18 18 18 18 18 17 15 14 13 12 12 11 11 10 10 10 10 10 10 10 11 12 12 13 14 15 16 18 19 20 21 23
36 34 31 29 26 23 22 20 19 19 19 19 19 19 19 19 18 17 15 14 13 13 12 12 12 11 11 11 11 11 12 12 13 14 15 16 17 18 19 21 22 23 24
36 34 32 29 26 24 23 21 20 20 20 20 20 20 20 20 19 18 17 16 15 14 13 13 13 13 13 12 12 13 13 14 15 16 17 18 19 20 21 23 24 25 26
37 36 34 30 27 25 24 22 21 21 21 21 21 21 21 21 20 19 18 17 16 15 15 15 14 14 14 14 14 14 15 16 17 18 19 20 21 22 24 25 26 27 28
37 35 35 32 29 26 25 23 22 21 21 22 22 22 22 22 21 21 20 19 18 17 17 16 16 16 16 16 16 17 17 18 19 20 21 22 23 24 26 27 28 29 29
37 35 34 32 30 28 26 24 22 22 22 22 22 23 24 23 23 22 21 21 20 19 19 18 18 18 18 18 19 19 20 20 21 22 24 25 26 27 28 29 30 30 31
37 35 34 33 32 30 28 25 23 22 22 23 23 24 24 24 24 24 24 23 22 22 21 21 20 20 20 20 21 21 22 23 24 25 26 27 28 29 31 31 32 32 32
39 36 35 35 34 32 29 27 25 24 24 24 24 25 25 26 26 26 26 26 25 24 24 23 23 22 22 23 23 24 24 25 26 28 29 30 31 32 33 33 33 33 33
41 40 38 36 36 34 31 29 28 27 27 26 26 26 26 27 27 28 28 28 27 27 26 26 26 26 26 26 26 27 27 28 29 31 31 32 33 34 34 35 35 34 34
43 42 41 38 37 35 33 32 31 30 30 29 28 28 28 28 29 29 30 30 30 30 30 30 29 29 29 29 29 30 31 32 33 34 34 35 35 36 36 36 36 35 34
43 44 43 41 38 36 36 34 33 33 32 31 31 30 31 31 31 31 32 32 32 32 33 33 33 32 33 33 32 33 34 35 36 37 37 37 38 38 38 37 36 36 35
41 43 43 43 42 40 38 37 36 35 34 34 34 33 33 33 32 32 33 33 34 35 36 36 36 36 37 37 37 36 37 38 38 39 40 40 40 40 39 38 37 37 37
41 40 41 42 43 43 43 40 39 38 37 36 36 36 35 35 35 35 35 35 35 36 38 38 39 39 39 40 41 41 40 39 41 41 42 42 41 41 40 39 38 38 38
42 42 41 42 43 42 43 44 44 42 41 39 38 38 38 38 38 38 38 38 38 39 40 40 40 41 41 42 44 44 44 43 42 41 42 42 42 42 40 39 39 39 38
41 42 43 43 43 44 43 43 43 44 43 42 42 42 41 40 41 41 41 41 41 42 42 43 43 43 44 45 45 46 47 46 44 42 41 42 42 41 40 40 40 39 39
40 41 42 43 43 43 44 44 45 44 45 45 44 43 43 43 43 43 44 44 43 44 45 45 46 46 47 47 46 46 46 45 45 45 43 42 42 42 41 40 40 40 40
39 40 41 41 42 42 43 44 45 45 45 46 46 46 45 45 46 46 47 47 47 48 48 48 48 47 46 47 46 46 45 46 46 46 45 44 43 43 42 42 42 41 41

GEFSSE_500_meanwind_078.txt.gz
Wind_Speed
28 26 23 21 18 16 15 13 12 11 9 8 8 7 7 6 6 6 5 5 5 5 5 5 6 6 6 6 6 6 5 5 4 5 5 5 6 7 8 9 10 12 13
31 28 25 23 20 18 16 15 14 12 10 9 9 8 8 8 7 7 7 6 6 6 6 6 6 6 6 6 6 6 6 5 5 5 5 6 6 7 8 9 11 12 14
32 29 27 24 22 20 18 17 15 14 12 11 10 10 9 9 8 8 8 8 7 7 7 7 7 7 7 7 7 6 6 5 5 6 6 6 7 8 8 10 11 13 14
34 31 29 26 24 22 20 18 17 15 14 12 11 11 10 10 10 9 9 9 8 8 8 8 8 8 8 7 7 7 6 6 6 6 6 7 8 8 9 11 12 14 15
35 33 31 28 26 24 22 20 18 17 15 14 13 12 12 11 11 10 10 9 9 8 8 8 8 8 8 7 7 7 7 7 7 7 7 8 8 9 10 11 13 14 16
38 35 33 30 28 26 24 22 20 18 17 16 15 14 13 13 12 12 11 10 10 9 9 9 9 8 8 8 8 8 8 7 8 8 8 8 9 10 11 12 13 15 16
40 38 35 32 30 28 26 24 22 20 18 17 16 15 14 14 13 13 12 11 11 10 10 9 9 9 9 9 9 8 8 8 8 9 9 9 10 10 11 13 14 15 17
42 40 37 35 32 30 27 25 23 22 20 18 17 17 16 15 15 14 13 13 12 11 11 10 10 10 10 10 10 9 9 9 10 10 10 10 11 12 13 14 15 16 18
44 42 40 37 34 31 29 27 25 23 21 20 19 18 17 16 16 16 15 14 13 13 12 11 11 11 11 11 10 10 10 10 11 11 11 11 12 13 14 15 16 18 19
47 44 42 39 36 33 31 28 26 24 22 21 20 19 18 18 17 17 16 15 15 14 13 13 12 12 12 12 12 12 12 12 12 12 12 13 13 14 15 17 18 20 21
48 46 44 42 38 35 32 30 27 25 24 22 21 20 20 19 19 18 18 17 16 16 15 14 14 13 13 13 13 13 13 13 13 14 14 14 15 16 17 18 19 21 22
46 45 45 43 40 36 33 30 28 26 25 24 22 21 21 20 20 20 19 19 18 17 17 16 15 15 15 15 15 15 15 15 15 15 16 16 17 18 19 20 21 23 24
47 46 45 44 41 37 34 31 29 27 26 25 23 22 22 21 21 21 21 20 20 19 18 18 17 16 16 16 16 16 16 17 17 17 18 18 19 19 21 22 23 25 26
46 46 46 45 43 39 35 32 30 28 27 26 24 23 23 22 22 22 22 22 21 21 20 20 19 18 18 18 18 18 18 18 19 19 20 20 21 22 23 24 26 27 28
43 44 45 44 42 39 36 34 31 29 28 26 25 24 24 24 24 23 24 24 23 23 22 21 21 20 20 20 20 20 20 21 21 22 22 23 24 25 25 27 28 30 31
40 42 42 43 42 40 38 36 34 32 29 27 26 26 25 25 24 24 25 25 25 25 24 24 23 23 23 23 23 23 23 23 24 24 25 26 27 28 29 30 31 32 33
37 39 39 40 41 40 39 38 35 33 31 29 28 27 26 26 25 25 26 26 26 26 26 26 26 26 26 26 26 26 26 26 27 28 28 29 30 31 32 33 34 35 36
34 36 37 38 39 39 38 38 37 36 34 32 30 29 28 27 27 27 27 27 27 27 28 28 28 28 28 28 29 29 29 30 31 31 32 33 33 34 35 36 37 37 38
33 34 34 35 36 38 38 37 36 36 35 34 32 31 30 29 27 27 27 27 27 28 29 30 30 31 31 31 31 32 32 33 34 35 36 36 37 37 38 39 39 40 40
33 33 34 34 34 36 37 37 36 36 35 34 33 33 32 30 29 28 28 29 29 30 30 31 32 33 33 34 34 34 35 35 37 38 39 39 40 40 41 42 42 42 42
35 33 32 32 33 35 35 36 35 35 36 35 34 33 32 31 30 29 30 30 31 31 32 33 34 34 35 36 36 37 37 38 39 40 40 41 42 43 43 44 44 43 42
36 35 34 33 33 34 34 35 35 36 37 37 35 34 33 33 32 32 32 32 32 33 34 35 36 37 37 38 38 39 38 38 40 41 42 43 44 45 45 45 45 43 42
36 34 34 35 34 34 33 35 36 36 36 37 37 36 35 34 34 35 35 35 35 36 36 37 37 38 38 39 39 40 40 40 40 41 43 44 45 46 46 46 44 44 43
37 37 36 35 34 34 34 33 34 34 34 35 36 35 36 35 36 36 37 38 38 39 39 39 40 40 41 41 42 43 43 44 44 43 43 45 46 45 45 45 44 43 43
37 37 37 36 36 35 36 36 35 35 35 35 35 35 36 36 37 38 38 38 39 40 41 41 42 43 43 43 43 44 44 45 46 46 45 45 45 45 45 45 45 44 44
38 38 37 37 37 36 37 37 37 36 36 35 36 36 37 38 38 39 39 39 40 41 41 42 43 44 45 45 46 46 46 47 47 47 47 46 46 46 46 46 46 46 45

GEFSSE_500_meanwind_084.txt.gz
Wind_Speed
37 34 32 29 27 25 23 21 19 17 16 15 14 13 12 11 10 9 8 7 6 5 4 3 3 3 3 3 3 3 2 2 1 1 2 2 3 4 5 7 8 10 11
40 37 34 32 29 27 25 23 21 19 18 17 16 15 14 13 11 10 9 8 7 6 5 4 4 4 4 3 3 3 3 3 2 2 3 3 4 5 6 7 8 10 11
41 39 37 34 32 29 27 25 23 21 20 19 18 17 16 14 13 11 10 9 8 7 6 5 5 5 5 4 4 3 3 3 4 4 4 4 5 6 7 8 9 10 12
43 41 39 36 34 31 29 27 25 23 22 20 20 18 17 16 14 13 12 10 9 8 7 6 6 6 5 5 4 4 4 4 4 4 4 5 6 7 7 8 10 11 12
45 42 40 38 36 33 31 29 27 25 23 22 21 20 19 17 16 14 13 12 11 10 9 8 7 6 6 5 5 5 5 5 5 5 5 6 7 7 8 9 10 11 13
47 45 42 40 38 35 33 31 29 27 25 24 22 22 20 19 17 16 15 14 12 11 10 9 8 7 7 6 6 6 6 6 6 6 6 7 7 8 9 10 11 12 14
49 47 45 42 40 38 35 33 31 28 27 26 24 23 22 21 19 18 16 15 14 13 12 11 10 9 8 7 7 7 7 6 7 7 7 8 8 9 10 11 12 13 14
51 50 47 45 42 40 38 35 33 31 29 28 26 25 24 22 21 19 18 17 16 14 13 12 11 10 10 9 8 8 8 8 8 8 8 9 9 10 11 12 13 14 15
53 52 50 48 45 42 40 37 35 32 31 30 28 27 26 24 22 21 20 19 18 16 15 14 13 12 11 11 10 9 9 9 9 9 10 10 11 11 12 13 14 15 16
54 54 52 50 47 44 42 39 37 35 33 31 30 29 27 26 24 23 22 21 20 18 17 16 15 14 13 13 12 11 11 11 11 11 11 12 12 13 14 15 16 17 18
54 55 54 52 50 47 44 41 39 37 35 33 32 30 29 27 26 25 24 22 21 20 19 18 17 16 15 15 14 14 13 13 13 13 13 14 14 15 16 16 17 18 19
54 55 54 53 52 49 46 43 41 39 37 35 34 32 31 29 28 27 25 24 23 22 21 20 19 18 17 17 16 16 15 15 15 15 15 16 16 17 17 18 19 20 21
55 53 54 54 52 51 48 45 43 41 39 37 36 34 33 31 30 28 27 26 25 24 23 22 21 21 20 19 19 18 18 17 17 17 17 18 19 19 20 21 22 23 24
55 53 53 54 54 52 50 48 45 43 41 39 37 36 34 33 31 30 29 28 27 26 25 24 23 23 22 21 21 21 20 20 20 19 20 20 21 22 22 23 24 25 26
50 52 52 52 54 53 52 50 47 45 43 41 40 38 36 35 33 32 30 29 28 28 27 26 26 25 24 24 23 23 22 22 22 22 22 23 23 24 25 26 26 27 28
49 48 51 51 52 53 52 51 49 47 45 43 41 39 37 36 35 33 32 31 30 29 29 28 28 27 27 26 25 25 25 25 25 25 25 26 26 27 28 28 29 30 31
46 48 52 51 51 52 53 52 51 49 47 45 43 41 39 38 36 35 34 33 32 31 30 30 30 29 29 29 28 27 27 27 27 28 28 29 29 30 30 31 32 33 34
42 46 51 50 50 52 52 52 52 50 48 46 44 42 40 39 38 36 35 34 33 32 32 31 31 31 30 30 29 29 29 29 29 30 30 31 32 32 33 34 34 35 36
40 42 47 49 49 51 52 52 52 50 49 48 46 44 42 40 39 37 37 36 35 34 33 33 32 32 31 31 31 31 31 31 32 32 33 33 34 35 35 36 36 37 38
39 40 43 48 49 49 51 52 51 51 50 49 47 46 44 41 40 39 38 37 36 35 35 34 34 33 33 33 33 33 33 33 33 34 34 35 35 36 37 38 38 39 39
36 36 40 45 47 48 49 50 49 48 48 49 48 47 44 43 42 41 39 38 36 36 36 36 36 35 35 34 34 34 34 35 35 35 35 36 37 37 38 39 39 40 41
36 34 35 38 41 43 45 46 46 46 47 47 48 47 44 43 43 42 41 40 38 37 37 37 37 37 36 35 35 35 35 35 35 36 36 37 38 39 39 40 40 41 42
36 35 34 35 35 39 41 42 45 45 44 43 44 43 42 42 41 40 40 39 38 37 37 37 37 37 37 37 36 36 36 36 36 36 38 39 40 41 41 41 42 42 42
36 33 33 34 34 34 38 40 42 43 43 42 41 40 41 40 39 39 39 39 38 38 38 38 38 38 38 37 37 37 38 38 37 37 38 39 41 41 42 42 43 43 43
33 31 29 31 32 32 32 34 37 39 41 41 41 41 41 42 42 41 40 40 40 41 41 40 39 39 38 38 38 38 38 38 39 39 39 40 41 41 42 43 44 44 45
33 30 29 29 28 30 32 33 34 35 37 40 41 44 44 45 45 44 44 43 43 43 42 41 39 39 38 38 38 38 38 38 39 40 40 40 41 42 43 44 45 46 47

GEFSSE_500_meanwind_090.txt.gz
Wind_Speed
35 36 36 35 33 30 28 26 24 23 21 20 18 17 16 15 14 13 11 10 9 7 6 6 5 4 4 3 2 2 2 2 2 2 1 2 2 3 4 5 7 8 9
36 37 38 38 36 33 31 29 27 25 24 22 20 19 17 16 15 14 13 12 11 9 8 7 6 5 5 4 3 3 3 3 3 2 2 3 3 3 5 6 7 8 9
37 38 39 39 38 36 33 31 29 28 26 24 22 21 19 18 17 16 15 14 12 11 10 9 8 7 6 5 5 4 4 4 4 4 4 4 4 4 5 6 7 8 9
39 39 41 41 40 38 36 34 32 30 28 27 25 23 21 20 19 18 17 15 14 13 12 11 10 9 8 7 6 6 5 5 5 5 5 5 5 5 6 6 7 8 10
41 42 42 43 42 40 38 36 34 32 31 29 27 25 24 22 21 20 19 17 16 15 14 13 11 10 9 8 8 7 6 6 6 5 5 6 6 6 7 7 8 9 10
43 44 44 45 44 43 41 39 36 34 33 31 29 28 26 24 23 22 20 19 18 17 16 14 13 12 11 10 9 8 8 7 7 7 6 7 7 7 8 8 9 10 11
45 45 46 46 46 45 43 41 39 36 35 33 32 30 28 26 25 23 22 21 20 18 17 16 15 13 12 11 10 10 9 9 8 8 8 8 8 8 9 9 10 11 12
46 47 48 49 48 47 45 43 41 39 37 35 34 32 30 28 27 25 24 23 21 20 19 18 16 15 14 13 12 11 11 10 10 9 9 9 9 9 10 10 11 12 13
48 48 49 50 50 50 48 45 43 41 39 37 36 35 32 30 28 27 26 25 23 22 21 20 18 17 16 15 14 13 12 11 11 11 11 11 11 11 11 11 12 13 14
50 50 51 51 51 51 50 47 45 43 41 39 38 37 35 32 30 29 28 26 25 24 23 21 20 19 18 17 16 15 14 13 13 13 13 12 12 12 13 13 14 14 15
50 51 52 52 52 52 52 50 47 45 43 41 40 38 36 34 32 31 30 28 27 26 24 23 22 21 20 19 18 17 16 15 15 14 14 14 14 14 14 15 16 16 17
51 52 53 52 53 52 52 52 50 47 45 43 41 40 38 36 34 32 32 30 29 27 26 25 24 23 22 21 20 19 18 17 17 16 16 16 16 17 17 17 18 18 19
52 53 54 53 54 52 52 53 52 50 48 45 43 42 40 38 36 34 33 32 31 29 28 27 26 25 24 23 22 21 20 19 19 19 18 18 19 19 19 19 20 20 21
53 54 55 53 54 52 51 53 53 52 50 48 46 44 42 40 38 37 35 34 33 31 30 29 28 27 26 25 24 23 22 22 21 21 21 21 21 21 21 22 22 23 24
53 55 57 55 53 54 52 53 54 53 52 51 48 46 44 42 41 39 38 36 35 33 32 31 30 28 28 27 26 25 24 24 23 23 23 23 23 23 24 24 25 25 26
53 54 56 55 55 54 53 53 54 53 53 53 51 49 47 46 44 42 40 38 37 35 34 33 31 30 30 29 28 27 27 26 26 25 25 25 25 26 26 27 27 28 29
52 54 55 56 55 54 53 52 53 53 53 52 52 51 50 48 46 44 42 40 39 38 36 35 33 32 31 31 30 29 28 28 28 28 27 27 27 28 28 29 29 30 30
52 53 53 54 53 53 52 51 51 51 52 52 52 52 51 49 47 46 44 42 41 39 38 37 35 34 33 32 32 31 30 30 30 30 29 29 29 29 30 31 31 32 32
50 50 51 50 50 52 52 50 52 51 52 53 53 52 52 50 49 48 46 44 42 41 40 39 37 36 35 34 33 32 32 31 31 31 31 31 31 31 32 32 33 33 34
48 46 47 50 49 51 50 47 50 49 50 53 54 53 52 51 50 49 48 46 44 43 42 41 39 38 36 35 34 34 33 33 33 33 33 33 33 33 33 33 34 34 34
45 44 44 46 46 48 48 47 49 50 50 51 53 53 53 53 51 51 50 49 47 45 43 41 40 38 36 35 35 35 35 34 34 34 34 35 35 35 34 34 34 35 35
42 42 41 42 44 47 47 46 47 49 49 49 51 53 53 51 50 50 50 49 48 46 44 42 41 39 37 37 36 36 35 34 34 34 35 36 36 35 35 35 35 36 36
41 40 39 41 43 43 42 42 45 47 48 49 49 51 52 52 52 51 50 50 49 48 46 44 43 42 40 39 38 36 35 36 35 35 35 36 36 36 36 36 36 36 36
35 35 36 37 38 38 39 40 42 44 47 48 49 50 51 51 52 50 49 48 47 47 46 46 44 42 40 39 38 37 37 36 37 36 35 35 35 36 36 37 36 36 36
31 32 33 35 35 35 35 36 38 42 43 46 48 48 48 47 48 48 48 45 45 45 44 44 42 40 39 39 38 38 38 38 38 37 37 37 37 37 37 37 37 36 36
26 28 29 30 33 33 33 31 33 36 39 42 43 43 45 45 45 45 46 45 44 43 42 40 40 39 40 40 39 38 38 39 40 40 39 38 38 38 37 37 37 37 38

GEFSSE_500_meanwind_096.txt.gz
Wind_Speed
27 26 26 28 29 30 29 27 25 23 21 20 19 18 17 15 15 14 13 12 11 11 10 9 8 7 6 6 5 5 5 5 5 5 4 4 4 4 4 4 5 6 7
28 27 26 28 30 31 31 30 28 26 24 23 22 20 19 18 17 16 14 13 13 12 12 11 10 9 8 7 7 6 6 6 6 6 5 5 5 5 5 5 6 6 7
28 28 28 28 30 31 32 32 32 30 28 26 24 23 22 20 19 18 17 15 15 14 13 13 12 10 9 9 8 8 7 7 7 7 6 6 6 6 6 6 6 7 7
29 29 29 29 31 33 34 34 33 33 31 29 27 26 24 23 21 20 19 18 17 16 15 14 13 12 11 10 9 9 8 8 8 8 7 7 7 7 7 7 7 7 8
31 30 30 30 32 34 35 36 35 35 34 32 30 28 27 26 24 23 21 20 19 18 17 16 15 14 13 12 11 10 10 9 9 9 9 8 8 8 8 8 8 8 9
33 33 32 32 33 34 36 37 37 37 36 35 33 31 29 28 26 25 23 22 21 20 19 18 16 16 15 13 13 12 11 11 10 10 10 10 9 9 9 9 9 9 10
36 35 35 34 34 36 37 39 39 39 38 37 36 34 32 30 29 27 25 24 23 22 20 19 18 17 16 15 14 14 13 12 11 11 11 11 11 10 10 10 10 11 11
38 37 36 36 36 37 38 40 41 41 40 39 38 36 34 33 31 30 28 26 25 24 22 21 20 19 18 17 16 15 15 14 13 13 12 12 12 12 12 12 12 12 12
39 38 38 38 38 38 39 41 42 42 42 41 40 39 37 35 34 32 30 29 27 26 24 23 22 21 20 19 18 17 16 16 15 14 14 14 14 13 13 13 13 14 14
40 39 38 38 38 39 40 41 43 44 44 43 42 41 39 38 36 34 33 31 29 28 26 25 24 22 22 20 20 19 18 18 17 16 16 15 15 15 15 15 15 15 15
42 41 38 38 38 39 41 42 44 45 46 45 44 43 41 40 38 36 34 33 31 29 28 27 26 24 23 22 21 21 20 20 19 18 18 17 17 17 17 17 17 17 17
45 43 42 40 40 40 42 43 45 46 47 47 46 45 43 42 40 38 36 34 33 31 30 29 28 26 25 24 23 22 22 22 21 20 20 20 19 19 19 19 19 19 20
47 46 45 43 42 42 42 43 46 47 48 48 47 47 45 44 42 40 38 36 35 33 32 30 29 28 27 26 25 25 24 24 23 22 22 22 22 21 21 21 21 22 22
49 48 46 46 45 44 43 43 46 49 49 50 49 48 47 45 43 42 40 38 37 35 34 32 32 30 29 28 27 27 26 25 25 24 24 24 24 24 23 23 23 24 24
50 49 47 47 47 46 45 45 46 49 50 50 50 49 48 47 45 44 42 40 39 38 36 35 33 33 31 30 30 29 28 27 27 27 26 26 26 26 25 25 25 26 26
52 51 49 48 47 49 48 47 46 50 51 51 51 50 50 49 48 46 44 42 41 40 38 37 36 35 34 33 32 31 30 30 30 29 28 28 28 28 27 27 27 27 28
53 53 52 50 49 49 49 49 47 50 53 53 52 51 51 51 50 49 47 45 43 42 41 40 38 37 36 35 34 33 33 33 32 31 30 30 30 30 29 29 29 29 29
53 53 53 51 50 50 50 49 47 49 52 54 53 52 52 53 52 52 50 48 46 45 43 42 41 39 39 38 37 36 36 35 34 33 33 32 31 31 31 31 31 31 31
54 53 52 51 51 49 49 49 50 50 50 53 54 53 55 55 54 53 51 50 49 47 46 45 43 42 41 40 40 39 38 38 36 35 34 34 33 32 32 32 32 33 33
54 53 51 51 51 49 47 47 48 50 50 52 52 52 53 55 56 56 54 52 50 49 49 48 46 45 44 43 42 41 39 39 37 36 35 35 35 34 34 33 34 33 33
50 51 51 51 50 49 47 46 46 48 49 50 50 52 52 54 55 56 56 55 54 52 51 50 49 47 45 44 42 41 40 39 38 37 37 36 35 35 35 35 35 34 34
45 48 49 50 49 47 46 46 45 47 47 50 50 52 52 52 53 54 54 55 55 54 53 52 49 48 46 44 43 43 42 41 40 39 38 38 37 36 36 35 35 35 33
39 42 44 46 46 46 45 45 46 46 46 48 49 50 52 51 51 51 51 52 52 51 52 51 49 48 47 46 45 44 43 42 42 42 40 40 40 38 37 36 35 34 34
34 36 39 42 44 44 44 44 45 44 45 45 47 48 50 50 51 51 51 50 51 51 51 51 50 49 48 47 46 45 45 45 44 42 41 41 40 38 37 36 36 35 35
29 32 35 38 40 42 42 41 40 40 42 44 45 46 47 48 50 52 51 50 50 51 50 50 51 51 50 49 48 46 46 45 44 42 40 40 39 38 37 37 37 37 37
23 27 30 32 35 37 38 38 38 38 39 41 42 44 45 47 49 51 50 48 48 49 50 50 49 49 49 49 48 47 46 44 43 42 41 39 39 38 38 38 39 39 39

GEFSSE_500_meanwind_102.txt.gz
Wind_Speed
23 24 25 25 24 23 24 24 24 24 23 21 19 17 16 14 13 12 10 10 9 8 8 7 7 7 6 6 6 6 5 5 5 5 5 5 6 6 6 7 7 8 8
24 24 24 25 26 26 25 25 25 25 25 24 23 21 19 17 15 14 13 12 11 10 9 9 8 8 8 7 7 7 6 6 6 6 6 6 7 7 7 8 8 8 9
26 25 25 25 26 27 27 26 26 26 26 26 26 24 22 20 18 17 15 14 13 12 11 10 10 9 9 9 8 8 8 7 7 7 7 7 8 8 8 9 9 9 9
28 27 26 26 27 28 28 28 28 27 27 27 28 27 26 24 22 20 18 17 16 14 13 12 12 11 10 10 10 9 9 8 8 8 8 9 9 9 10 10 10 10 10
31 29 29 28 28 29 30 30 29 29 29 29 29 29 28 27 25 23 21 20 18 17 15 14 14 13 12 11 11 11 10 10 9 9 9 10 10 10 10 11 11 11 11
34 32 31 30 30 30 31 32 31 31 31 31 31 31 30 29 28 27 25 23 21 19 18 16 15 15 14 13 12 12 12 11 11 11 11 11 11 11 12 12 12 12 12
37 35 34 33 32 32 32 33 33 33 33 33 33 33 32 31 31 30 28 26 24 22 20 19 18 17 16 15 14 14 13 13 12 12 12 12 12 13 13 13 13 13 13
40 39 37 36 35 34 33 33 34 34 34 35 34 34 34 34 33 32 31 29 27 25 23 21 20 19 18 17 16 15 15 15 14 14 14 14 14 14 14 14 14 14 15
43 41 40 38 38 37 36 35 35 35 36 36 36 36 36 36 36 35 34 32 30 28 26 24 22 21 20 19 18 17 17 17 16 16 16 16 16 15 15 16 16 16 16
46 44 43 42 40 39 38 38 37 36 37 37 38 38 38 38 38 37 36 35 33 31 29 27 25 23 22 21 20 19 19 18 18 18 18 17 18 17 17 17 18 18 18
49 47 46 44 43 42 41 40 40 38 39 39 39 40 40 40 39 39 38 37 35 33 31 29 28 26 24 23 23 22 21 21 20 20 19 19 19 19 19 19 19 20 20
51 49 48 47 45 45 44 43 42 41 40 40 41 41 41 41 41 41 40 39 37 36 34 32 30 28 27 26 25 24 23 23 22 22 21 21 21 21 21 21 21 22 22
52 51 50 49 48 47 46 45 43 43 42 42 42 41 42 42 42 42 41 41 39 38 36 34 32 31 29 28 27 27 26 25 25 24 24 23 23 23 23 23 23 24 24
54 54 53 52 51 50 49 48 46 46 45 43 42 43 42 43 43 43 43 42 41 40 39 37 35 34 32 31 30 29 28 28 27 26 26 26 26 25 25 25 25 26 26
56 56 55 55 54 53 52 50 49 47 46 44 43 43 43 44 45 45 45 44 43 42 41 39 38 36 35 33 32 31 30 30 29 29 28 28 28 28 27 27 27 27 28
57 57 56 57 57 56 54 52 51 49 48 46 44 44 43 44 45 46 46 46 45 43 42 42 40 39 37 36 34 33 33 32 32 31 31 31 30 30 30 30 30 30 30
58 58 58 58 58 58 57 55 53 51 50 49 47 46 45 45 46 46 46 46 45 45 45 44 42 41 40 38 37 36 35 34 34 34 33 33 33 33 32 32 32 32 32
59 58 59 60 59 59 59 57 56 55 54 52 50 48 47 46 46 47 47 47 47 47 47 46 45 43 42 41 40 39 38 37 36 36 35 35 35 35 35 34 34 34 34
57 57 58 59 59 59 60 59 59 57 55 55 52 50 49 48 48 48 48 49 49 48 48 48 46 46 45 44 43 42 41 39 39 38 38 38 37 37 36 35 35 34 34
54 55 56 58 58 59 59 59 59 58 56 55 53 52 51 51 50 49 50 50 50 51 50 49 49 49 48 47 47 46 44 43 41 40 40 39 38 38 36 35 35 35 35
50 52 54 55 56 58 59 59 59 57 57 56 54 53 52 52 52 52 52 52 52 52 51 51 51 51 50 49 48 48 47 45 43 41 40 40 39 39 38 37 37 37 38
44 47 50 52 53 55 57 57 57 57 56 56 55 55 54 53 53 54 53 53 54 54 54 52 53 54 53 53 51 49 47 46 45 43 42 41 41 41 40 39 39 39 39
36 40 44 46 48 50 53 55 55 54 53 52 52 52 53 54 53 52 53 53 53 53 54 54 54 54 53 52 52 51 49 46 45 45 44 44 44 44 43 42 42 42 42
29 32 34 38 42 45 48 51 53 53 51 49 49 49 50 51 52 53 51 51 53 52 52 53 54 53 52 51 51 50 49 48 48 46 46 46 46 46 46 46 45 44 43
25 28 29 32 35 38 41 44 47 48 49 49 48 47 48 50 51 53 53 51 51 50 50 50 52 53 53 52 51 51 50 49 48 48 48 48 48 48 47 47 47 45 45
21 24 26 29 31 33 34 38 42 44 45 47 47 47 47 49 50 51 51 51 51 50 50 50 50 53 54 54 53 53 52 51 50 50 50 49 49 48 49 48 47 46 44

GEFSSE_500_meanwind_108.txt.gz
Wind_Speed
21 20 20 20 21 21 20 20 20 21 21 21 21 20 19 18 16 15 13 12 10 9 8 6 5 4 4 3 3 3 3 4 4 4 4 5 5 5 6 6 7 8 8
22 21 21 21 21 21 22 22 22 22 22 22 22 22 21 20 19 18 16 15 13 12 10 9 8 6 6 5 5 4 4 5 5 5 5 6 6 6 6 7 8 8 8
25 24 23 22 22 22 22 22 23 23 23 23 23 23 24 23 22 21 19 18 16 15 13 11 10 9 8 7 7 6 6 6 6 6 6 7 7 7 7 8 8 9 9
28 27 26 25 24 24 24 24 23 24 24 24 24 24 24 24 24 23 22 21 19 18 16 14 13 12 11 10 9 8 8 7 7 8 8 8 8 8 8 9 9 9 10
31 30 28 27 26 25 25 25 25 25 25 26 26 26 26 26 25 25 25 23 22 21 19 17 16 15 13 13 12 11 10 9 9 9 9 9 9 9 10 10 10 10 10
34 33 32 30 29 28 28 28 28 27 27 27 28 28 28 28 27 27 26 25 25 24 22 21 19 18 16 15 14 13 12 11 11 11 10 10 10 11 11 11 11 12 12
38 37 35 34 33 31 30 29 29 29 29 29 29 30 30 29 29 29 28 27 27 26 25 23 22 21 19 18 17 16 15 14 13 13 12 12 12 12 12 12 13 13 13
41 40 39 38 37 36 34 33 32 31 31 31 31 31 31 31 31 30 30 30 29 28 27 26 25 23 22 21 19 18 17 17 16 15 15 14 14 14 14 14 14 14 15
43 43 43 42 41 39 38 36 35 34 33 33 33 33 32 32 32 32 33 32 31 30 29 28 27 26 25 23 22 21 20 19 19 18 17 17 16 16 16 16 16 16 16
45 45 45 45 44 43 42 40 38 37 36 36 35 34 34 34 34 34 34 34 34 33 32 31 30 29 28 26 25 24 23 22 21 20 20 19 19 18 18 17 17 17 18
46 47 47 47 46 46 45 44 42 40 39 39 38 37 37 36 36 35 36 36 36 35 34 33 32 32 30 29 28 27 26 25 24 23 22 22 21 21 20 19 19 19 19
47 48 48 48 48 48 48 47 45 44 42 41 40 40 39 38 38 38 38 38 38 37 36 36 35 34 33 32 31 30 29 28 27 26 25 24 24 23 23 22 22 21 21
47 48 49 50 50 50 50 49 48 47 46 45 44 42 41 40 39 39 39 39 39 39 38 38 37 36 35 35 34 33 31 30 29 29 28 27 26 26 25 25 24 24 23
47 48 49 50 51 52 52 51 51 50 49 48 47 46 44 43 42 41 41 40 39 40 41 40 39 38 38 37 36 35 34 33 32 31 30 30 29 28 28 27 27 26 26
48 49 51 51 52 53 53 54 54 53 52 52 50 49 48 47 45 44 43 43 41 40 41 42 41 40 40 39 38 37 36 36 34 33 33 32 31 31 30 30 29 29 28
50 51 52 53 54 54 55 55 56 55 55 54 53 52 51 50 48 47 45 44 43 42 42 42 43 43 42 41 40 39 38 38 37 36 35 34 34 33 32 32 32 31 31
52 53 54 55 55 56 56 57 57 57 57 57 56 55 53 52 51 50 48 47 45 44 44 44 44 44 44 42 42 41 40 39 39 38 37 36 36 35 35 34 34 33 33
53 53 54 56 56 57 58 59 59 59 59 58 59 59 57 55 53 53 51 49 47 47 46 46 45 45 45 44 44 43 42 41 41 40 39 39 38 37 37 36 36 35 35
51 51 52 54 56 57 58 59 60 60 60 60 61 60 59 58 56 54 53 52 49 48 48 47 47 46 45 45 45 45 44 43 43 42 41 41 40 40 40 39 38 38 37
49 50 51 53 54 56 57 57 59 60 61 61 61 61 60 59 58 56 54 53 51 50 48 48 49 48 47 46 46 46 46 45 44 44 43 43 43 43 42 41 41 40 40
46 47 49 50 52 54 55 56 56 58 59 60 61 61 61 60 59 58 56 55 53 51 50 50 50 49 49 48 48 48 48 48 47 46 45 45 45 45 45 44 43 42 41
41 43 45 47 49 51 52 53 54 54 56 57 58 59 61 61 60 59 57 56 54 53 51 52 51 51 51 50 50 50 50 49 48 48 48 47 47 46 46 45 44 43 43
36 37 40 42 44 47 49 51 52 52 52 54 55 56 58 59 59 59 59 57 56 54 54 53 52 50 51 51 52 52 50 49 49 48 48 48 47 46 46 45 44 44 44
29 31 33 35 38 41 44 46 47 48 49 50 51 51 53 56 57 57 57 57 56 55 54 54 53 52 52 52 52 52 51 50 51 50 50 48 48 47 46 45 45 46 46
25 25 26 27 30 33 37 40 42 43 45 47 48 48 49 51 52 54 55 56 56 56 55 54 53 53 52 53 53 52 51 51 50 51 50 49 49 48 48 47 47 47 48
21 21 22 22 24 27 30 34 38 40 41 43 44 45 46 48 49 50 53 54 55 55 56 56 54 54 53 53 53 52 52 52 51 50 50 51 52 51 50 49 49 50 50

GEFSSE_500_meanwind_114.txt.gz
Wind_Speed
19 19 19 19 19 18 18 18 18 18 19 18 18 17 17 17 16 15 15 14 13 12 11 10 9 9 8 7 7 6 5 5 5 5 5 4 4 4 4 4 4 5 5
21 21 21 20 20 20 20 20 19 19 19 19 19 19 19 18 18 18 17 16 16 15 14 13 12 11 11 10 9 8 8 7 7 6 6 6 6 5 5 5 5 5 6
23 23 22 22 22 22 21 21 21 21 20 20 20 20 20 20 19 19 19 19 18 17 16 15 14 13 13 12 12 11 10 9 9 8 8 7 7 7 7 6 6 6 6
27 26 25 25 24 24 23 23 23 22 22 22 21 21 21 21 21 20 20 20 20 19 19 18 17 16 15 14 14 13 13 12 11 10 9 9 9 8 8 8 8 8 8
30 29 28 27 27 26 26 25 24 24 24 23 23 23 22 22 23 22 22 22 21 21 21 20 20 19 18 17 16 16 15 14 13 12 12 11 11 11 10 10 10 10 10
33 32 31 31 30 29 28 28 27 27 26 26 25 24 24 24 24 24 24 23 23 23 22 22 21 21 21 20 19 18 17 17 16 15 14 14 13 13 12 12 12 11 11
36 35 35 34 33 32 31 31 30 30 29 28 27 27 26 26 25 25 25 25 25 25 24 24 24 23 23 22 21 21 20 19 18 18 17 16 15 15 14 14 14 13 13
38 38 37 37 36 35 35 34 34 33 32 31 30 30 29 28 27 27 27 26 26 26 27 26 25 25 25 24 24 23 22 22 21 20 20 19 18 17 17 16 16 15 15
39 39 39 39 39 38 38 38 37 37 35 34 33 32 32 31 30 29 29 28 28 28 28 28 27 27 27 26 26 25 25 24 23 22 22 21 21 20 19 19 18 18 17
40 41 41 41 41 41 40 40 40 39 39 38 37 36 35 34 33 32 31 31 30 30 30 30 30 30 29 28 28 27 27 26 26 25 24 24 23 22 22 21 21 20 19
39 40 41 42 43 43 42 42 42 41 41 40 40 39 38 37 36 36 35 34 33 33 32 32 32 32 31 30 30 30 29 29 28 27 26 26 26 25 24 24 23 22 22
39 40 41 42 43 44 44 44 44 44 43 43 42 41 41 40 39 38 37 37 36 35 34 34 34 33 33 33 32 32 31 31 30 29 29 28 28 27 27 26 26 25 24
40 40 41 41 42 43 45 45 46 45 45 45 44 44 43 42 42 41 39 39 38 37 36 36 35 35 35 35 34 34 33 33 32 32 31 31 30 30 29 29 28 28 27
41 41 42 42 43 44 44 46 46 47 46 46 46 46 45 45 44 43 42 41 40 39 38 38 37 38 37 37 36 36 35 35 34 33 33 33 32 32 32 31 30 30 29
44 44 45 45 45 46 46 47 48 48 48 48 48 48 48 47 46 46 45 44 43 42 42 40 39 39 39 38 37 37 37 37 37 35 35 35 34 34 33 33 33 32 31
46 47 47 47 48 48 49 49 50 51 51 51 51 50 50 50 49 48 47 47 46 45 44 44 43 41 40 40 39 37 37 38 38 37 36 36 36 35 35 35 34 34 33
47 48 49 49 50 50 51 52 52 53 54 54 54 54 53 53 52 51 50 49 48 47 47 47 46 45 43 42 41 40 39 39 39 39 38 38 38 37 37 36 36 36 35
45 46 47 49 50 51 51 52 53 54 55 55 56 56 56 56 55 55 53 52 51 50 50 49 48 47 46 44 43 42 42 41 40 40 40 40 39 39 39 38 38 37 37
43 44 45 47 48 50 51 52 53 53 54 55 56 56 56 56 57 57 57 55 54 53 52 51 50 48 48 47 46 45 45 44 43 42 41 41 41 41 41 40 40 39 39
42 43 44 45 46 48 49 50 51 52 53 54 55 56 56 56 57 57 58 58 57 56 54 53 53 52 51 49 48 47 47 46 45 44 43 43 42 42 42 42 42 41 41
41 41 42 43 44 45 46 48 49 50 51 52 54 55 55 55 56 57 56 57 58 58 57 56 55 54 53 52 51 50 49 49 48 47 46 44 43 43 43 43 43 43 43
37 38 40 41 42 43 44 46 47 48 49 51 52 54 53 53 54 55 54 55 56 57 56 56 55 54 54 54 54 53 51 50 49 48 47 46 45 45 44 44 44 43 44
35 35 36 38 39 39 41 42 43 45 47 49 50 51 52 53 52 52 51 51 54 55 56 56 55 55 54 54 55 54 53 51 50 49 48 48 47 47 46 46 45 44 44
32 33 34 34 35 36 37 38 39 40 42 44 47 48 49 50 50 51 52 52 52 53 53 53 54 55 55 54 54 55 55 55 54 51 49 48 47 48 48 47 47 47 45
30 31 31 32 32 32 33 34 35 36 38 39 41 45 46 48 48 50 51 51 51 51 51 52 54 55 54 54 54 54 54 54 54 54 51 49 48 48 49 49 49 47 46
28 28 28 29 29 29 29 30 31 32 33 35 37 40 43 44 46 48 49 50 50 49 49 50 52 54 53 53 54 54 54 54 54 54 53 52 51 49 49 49 49 48 47

GEFSSE_500_meanwind_120.txt.gz
Wind_Speed
14 14 14 14 14 14 14 14 14 15 15 15 15 15 16 16 15 15 15 14 13 12 12 11 11 10 10 10 10 9 9 9 9 9 9 8 8 7 7 6 6 5 5
16 16 16 17 17 17 17 17 17 17 17 17 17 17 17 17 17 17 16 16 15 15 14 13 13 13 12 12 12 11 11 11 10 10 10 10 10 9 9 8 8 7 7
18 18 18 18 18 19 19 19 19 19 19 19 18 18 18 18 18 18 18 18 17 17 16 16 16 15 15 14 14 14 13 13 12 12 12 12 11 11 10 10 10 9 9
21 20 20 21 21 21 21 21 21 21 21 20 20 20 20 19 19 19 19 18 18 18 18 18 18 17 17 16 16 15 15 15 15 14 14 13 13 12 12 12 12 11 11
24 24 24 24 24 23 23 24 24 23 23 22 22 22 22 21 21 21 21 20 20 19 19 19 19 19 18 18 18 17 17 17 17 16 16 15 15 14 14 14 13 13 13
27 27 27 27 27 26 26 26 26 26 26 25 25 24 24 24 23 23 22 22 22 22 21 21 20 20 20 20 19 19 19 18 18 18 18 17 17 16 16 16 15 15 15
30 29 30 30 29 29 29 29 29 29 28 28 28 27 27 26 26 25 25 24 23 23 23 22 22 22 22 21 21 21 21 20 20 20 20 19 19 19 18 18 18 17 17
31 31 31 32 31 31 32 31 31 31 31 31 31 30 30 30 29 28 27 27 26 25 25 25 24 24 23 24 23 23 22 22 21 21 21 21 21 21 20 20 20 19 19
33 33 33 33 33 33 34 34 34 33 33 33 33 33 32 32 32 31 31 30 29 28 28 27 27 26 26 26 25 25 24 23 23 23 23 23 23 23 22 22 22 22 21
33 34 34 35 35 35 35 35 36 36 36 35 35 35 35 34 34 34 33 33 32 32 31 30 30 29 29 28 27 27 27 26 25 25 25 25 25 25 24 24 24 24 24
33 34 35 35 36 36 36 37 37 38 38 38 38 38 38 37 37 36 36 35 35 35 34 33 33 32 31 31 30 30 29 28 27 27 27 27 26 26 26 26 26 26 25
34 34 35 36 36 37 37 38 38 39 39 40 40 40 40 40 39 39 38 37 37 37 36 36 36 35 34 34 33 32 31 31 30 30 29 29 29 28 28 28 28 28 27
36 36 36 36 37 37 38 38 39 40 40 41 42 42 42 42 42 42 41 40 39 39 38 38 37 37 37 36 36 35 34 33 33 32 32 31 31 30 30 30 30 30 29
36 37 37 38 39 39 40 40 41 42 42 43 44 44 44 44 44 44 43 42 42 41 41 40 40 39 38 38 38 37 36 36 35 34 34 34 33 33 33 32 32 32 31
36 37 38 39 40 41 42 42 43 44 45 45 46 46 46 46 46 46 45 45 45 44 44 43 42 41 41 41 40 39 39 38 37 36 35 35 35 35 35 34 34 34 33
37 38 38 39 40 42 43 44 45 45 46 47 47 48 48 49 48 48 48 48 47 47 47 46 45 44 44 43 43 42 41 41 40 39 38 38 37 37 36 36 36 36 36
38 39 40 40 41 42 43 44 45 46 47 48 49 49 50 50 51 51 52 51 50 50 50 49 48 47 47 47 46 44 44 43 43 42 41 40 39 38 38 37 37 37 38
39 39 40 40 41 41 42 43 45 46 47 48 49 50 51 52 52 52 53 53 53 53 53 52 51 50 49 49 49 48 47 46 45 44 43 42 41 40 39 39 39 38 39
38 38 39 40 41 42 43 44 45 46 47 48 49 49 50 52 52 53 53 53 53 54 54 54 54 53 52 52 52 51 50 49 49 48 46 45 45 44 43 42 41 41 41
37 38 38 39 39 40 41 42 43 44 45 47 48 49 50 51 52 52 53 54 54 54 54 55 56 55 54 54 54 53 52 51 51 50 49 48 48 47 45 45 44 43 43
37 37 37 37 37 38 39 39 41 42 43 44 46 48 49 50 51 52 53 53 54 54 54 55 55 55 55 55 55 55 54 52 52 51 50 50 49 48 47 46 44 44 43
36 36 36 36 37 37 38 39 40 41 41 43 45 46 47 48 49 50 52 52 53 54 54 54 54 54 54 56 56 57 56 54 52 51 51 50 50 50 49 48 47 47 46
34 35 35 35 36 37 38 39 39 40 40 41 42 45 45 46 47 47 49 50 51 53 53 53 54 53 54 55 56 56 57 56 54 52 50 50 51 51 51 50 50 49 48
33 33 34 34 35 36 36 37 37 37 37 38 39 40 42 43 44 45 46 47 49 51 51 52 53 53 52 52 54 55 56 57 56 54 52 51 52 52 51 51 51 50 49
30 31 31 32 32 33 33 33 34 34 34 34 34 36 38 40 41 43 45 46 47 48 50 50 51 53 53 52 52 54 55 56 56 56 54 52 52 52 52 53 52 52 52
27 28 28 29 30 31 31 31 31 32 32 32 33 33 34 35 37 39 42 44 45 47 49 49 51 52 54 54 53 52 53 54 55 55 56 55 54 53 52 52 52 51 52

GEFSSE_500_meanwind_126.txt.gz
Wind_Speed
13 13 13 13 13 13 12 12 12 12 12 12 12 12 12 11 11 11 12 12 12 11 12 11 11 11 10 10 9 9 9 9 9 9 9 9 9 9 9 9 9 9 8
15 15 15 15 15 15 15 14 14 14 14 14 14 14 14 14 13 13 13 12 12 13 13 13 13 13 13 12 12 11 11 11 11 11 11 10 10 10 10 10 10 10 10
17 17 17 17 18 18 17 17 16 16 16 16 16 15 15 15 15 15 15 14 14 13 13 14 14 14 14 14 14 14 14 13 13 13 13 12 12 12 11 11 11 11 11
19 19 19 19 20 20 20 19 19 19 18 18 18 18 18 17 17 17 17 17 17 16 16 15 15 16 16 16 16 15 15 15 15 15 14 14 14 14 13 13 13 12 13
20 20 21 21 21 22 22 22 22 21 21 21 21 21 21 21 20 20 19 19 19 19 18 18 18 18 17 17 17 17 17 17 17 16 16 16 16 16 15 15 14 14 14
23 23 23 23 23 23 24 24 24 24 23 23 23 23 23 22 22 22 22 22 21 21 21 20 20 20 20 19 19 19 19 19 18 18 18 17 17 17 17 17 16 16 16
25 25 25 25 25 25 26 26 26 26 26 25 25 25 25 25 24 24 24 24 24 24 23 23 23 23 23 22 22 21 21 21 21 20 20 19 19 19 19 19 18 18 18
28 28 28 28 28 28 28 28 27 28 28 27 27 27 27 27 27 26 26 26 26 26 26 25 25 25 25 25 24 24 23 23 23 23 23 22 22 21 21 21 20 20 20
30 30 30 30 30 30 30 30 29 29 29 29 29 29 29 29 29 29 29 29 29 29 28 28 28 28 28 27 27 27 26 26 26 25 25 25 24 24 23 23 22 22 22
32 32 32 32 32 32 32 32 32 32 32 32 32 32 31 31 31 31 31 32 31 31 31 31 31 30 30 30 30 30 29 29 28 28 28 27 27 26 26 25 25 24 24
33 34 34 34 34 34 34 34 34 34 34 34 34 34 34 34 34 34 34 34 34 34 34 34 34 33 33 33 33 33 32 31 31 31 30 30 29 29 28 28 28 27 26
33 33 34 34 35 35 36 36 36 36 36 36 36 37 37 37 36 36 36 36 36 36 36 36 36 36 36 36 36 35 35 34 34 34 33 32 32 31 31 30 30 30 30
32 33 33 34 35 35 36 36 36 37 37 37 38 38 39 39 39 39 39 39 39 38 38 38 38 38 38 38 38 38 37 37 37 36 36 35 35 34 33 33 33 32 32
33 33 34 35 35 36 36 36 36 36 37 38 39 40 41 41 41 42 42 42 42 42 41 41 41 41 40 40 40 40 40 39 38 38 38 37 37 36 36 35 35 34 34
33 34 34 35 36 36 37 37 37 38 38 39 40 40 41 42 43 43 44 44 44 45 44 44 43 43 42 42 43 42 42 41 41 40 40 39 39 38 38 38 37 36 35
34 34 35 36 36 37 38 38 38 39 39 40 39 39 40 42 43 44 45 46 46 47 46 46 46 46 45 45 45 45 44 44 44 43 42 42 41 41 40 39 39 38 37
34 35 35 35 36 37 38 38 38 39 39 39 40 40 41 41 42 44 45 46 47 48 49 49 49 49 48 47 47 47 47 47 47 46 45 45 45 44 42 41 41 40 39
33 33 33 34 35 36 37 38 38 38 39 39 39 40 41 42 42 44 45 47 48 48 49 50 50 50 50 50 49 49 49 49 49 48 48 48 47 46 46 44 43 43 42
34 34 34 35 35 36 36 37 38 38 39 39 40 41 41 42 43 43 44 45 47 48 48 49 50 51 51 52 52 51 50 50 50 50 49 49 48 47 47 46 46 45 44
35 36 36 36 36 36 36 36 37 38 39 40 40 41 42 43 43 43 43 44 46 47 48 49 50 51 51 52 53 53 52 51 51 51 49 50 50 49 49 48 48 48 47
37 37 37 36 36 36 37 37 38 38 39 40 40 40 41 42 42 42 43 44 45 47 49 50 51 51 51 51 52 53 53 54 53 52 51 51 51 51 50 50 50 49 49
36 36 36 36 36 37 37 38 38 38 38 39 40 40 40 41 42 42 42 42 43 45 46 47 49 50 51 51 52 53 54 54 54 54 55 54 54 54 52 52 51 50 49
35 35 36 36 36 37 37 37 37 37 38 39 40 40 41 41 41 41 42 42 43 44 44 44 46 48 49 50 50 52 53 54 55 54 55 56 55 55 54 54 53 52 51
35 35 35 35 35 35 35 35 36 36 37 37 38 39 39 40 40 40 41 42 42 43 43 44 45 46 48 50 51 51 52 52 53 52 52 53 54 55 55 54 55 55 53
33 33 33 33 33 33 34 35 35 35 36 36 37 37 38 39 40 40 41 41 41 40 41 42 43 44 46 47 49 50 51 51 52 52 52 52 53 53 54 53 54 55 54
31 31 32 32 33 33 33 33 34 35 36 36 37 37 38 39 39 39 39 39 39 39 39 40 41 42 43 45 47 49 50 51 52 52 52 52 53 53 52 52 53 54 56

GEFSSE_500_meanwind_132.txt.gz
Wind_Speed
13 13 12 12 12 12 12 12 12 12 12 12 12 12 12 11 11 10 10 10 10 10 10 11 11 11 11 11 11 11 11 11 10 10 9 9 9 9 9 9 9 9 8
15 14 14 14 14 14 13 13 14 14 14 14 14 14 14 14 13 13 13 12 12 12 12 12 12 12 12 12 12 12 12 12 12 12 12 12 11 11 11 11 10 10 10
17 16 16 16 16 16 16 16 16 16 16 16 16 16 16 16 15 15 14 14 14 14 14 14 14 14 14 14 14 14 15 15 14 14 14 14 14 14 13 13 12 12 12
18 18 18 18 18 18 18 18 18 18 18 18 18 18 18 18 18 17 17 17 16 17 17 17 17 16 16 16 16 16 16 16 16 16 16 16 15 15 15 15 15 14 14
19 19 19 19 20 20 20 20 20 20 20 20 20 20 20 20 20 20 20 19 19 19 19 19 19 19 19 19 18 18 18 18 18 18 18 18 17 17 17 17 17 16 16
21 21 21 21 21 21 21 21 22 22 22 22 22 22 22 22 22 22 22 22 21 21 21 21 21 22 22 21 21 21 21 21 20 20 20 20 20 19 19 19 19 18 18
23 23 23 23 23 23 23 23 23 24 24 24 24 24 24 24 24 24 24 24 23 23 23 23 23 23 23 24 23 23 23 23 23 22 22 22 22 22 22 22 21 21 20
25 25 25 25 25 25 26 26 26 26 26 26 26 26 26 26 26 26 26 26 26 26 26 25 25 25 25 25 25 25 25 25 25 25 25 24 24 24 24 24 24 24 23
27 27 27 27 27 27 27 28 28 28 28 28 28 28 28 28 29 29 28 28 28 28 28 28 28 28 28 28 27 27 27 27 27 28 28 27 27 27 27 27 26 26 26
27 27 27 27 28 28 28 28 29 29 30 30 30 31 31 31 31 31 31 31 31 31 31 31 31 31 30 30 31 30 30 30 29 29 29 29 29 29 29 29 29 28 28
28 28 29 29 29 29 30 30 30 31 31 32 32 32 33 33 33 34 34 34 34 34 34 34 33 34 33 33 33 34 33 33 32 32 32 32 31 31 31 31 31 31 31
29 29 29 30 30 31 32 32 33 33 33 34 34 34 34 34 35 35 35 36 36 36 36 36 36 36 36 35 35 35 36 36 35 35 34 34 34 34 34 34 33 33 33
29 29 30 30 31 31 32 33 34 34 35 35 35 35 35 35 35 36 36 36 37 38 38 38 38 38 38 38 37 37 37 38 38 37 37 37 37 36 36 36 36 35 35
30 30 30 31 31 31 31 32 33 34 34 35 35 35 36 36 37 37 37 37 38 38 39 39 40 40 40 40 40 39 39 40 40 39 39 39 39 38 38 38 38 37 37
29 29 29 29 30 30 30 31 31 32 32 33 34 35 36 36 37 37 37 38 38 39 39 39 40 41 41 42 42 42 41 42 42 42 41 41 41 41 40 40 39 39 39
29 29 29 29 30 31 31 31 31 32 32 33 34 35 35 36 36 37 37 38 38 38 39 40 40 41 42 43 43 43 43 44 44 44 44 44 44 44 44 43 42 42 42
29 29 29 30 30 30 31 31 31 32 33 33 34 35 35 36 37 37 38 38 39 40 40 41 42 42 43 44 44 45 45 46 46 46 47 47 46 46 46 45 45 44 44
30 30 30 30 30 31 31 31 31 32 32 33 34 35 36 37 37 38 39 39 40 40 41 41 42 42 44 44 45 46 46 47 47 47 48 48 48 48 48 48 46 45 45
30 30 30 30 31 31 31 31 32 32 33 33 34 35 36 36 36 37 38 39 39 40 41 41 42 42 42 43 44 45 46 47 47 48 48 48 48 49 50 50 49 48 48
30 30 31 31 32 32 33 33 33 34 34 34 34 35 35 36 37 37 37 38 38 39 40 40 41 43 44 44 44 45 46 47 48 50 50 49 48 49 50 51 52 51 51
31 32 32 32 32 33 33 34 35 35 35 35 35 35 35 35 36 36 37 37 37 38 39 40 41 43 44 45 45 46 47 47 49 49 50 50 50 50 51 52 52 53 53
32 32 32 33 33 33 34 34 34 34 35 35 35 35 36 36 37 37 37 37 38 38 39 40 41 42 43 44 45 46 46 47 48 49 49 49 51 51 51 52 53 54 54
32 33 33 34 34 34 34 34 35 35 35 35 36 36 36 36 37 37 36 36 37 37 38 39 39 40 41 42 43 44 45 46 47 49 50 51 52 52 52 53 53 54 54
32 33 34 33 33 33 33 34 34 34 34 35 35 36 35 36 36 36 37 37 37 37 37 38 39 39 40 40 41 42 43 44 45 46 48 49 50 50 51 51 52 53 54
32 32 32 32 32 33 33 33 34 34 35 35 35 36 36 37 37 37 37 38 38 38 38 39 40 40 41 41 41 42 43 44 45 44 45 46 47 48 48 49 50 51 53
30 31 31 32 33 33 33 34 34 35 35 36 36 36 37 37 37 38 38 38 39 39 40 40 40 41 41 41 41 42 43 44 45 45 45 46 46 48 48 48 49 50 51

GEFSSE_500_meanwind_138.txt.gz
Wind_Speed
14 13 13 13 13 13 13 13 13 13 13 13 13 12 13 13 13 13 12 12 13 13 13 13 12 12 12 12 12 12 12 11 11 11 11 11 11 11 11 11 10 10 10
15 15 15 15 14 14 15 15 15 15 15 15 15 15 15 15 15 15 15 14 14 14 14 14 15 15 14 14 14 13 13 13 13 13 13 13 13 13 12 12 12 12 12
17 17 16 16 16 16 16 16 16 16 16 16 16 16 16 16 16 17 17 16 16 16 16 16 16 16 16 16 16 16 16 15 15 15 15 15 15 15 15 15 14 14 14
18 18 18 18 18 17 17 17 18 18 18 18 18 18 18 18 18 19 19 19 19 18 18 18 18 18 18 19 18 18 18 18 17 17 17 17 17 17 17 17 17 16 16
20 20 20 19 19 19 19 19 19 20 20 20 20 20 20 21 21 21 21 21 21 21 20 20 20 20 20 20 20 20 20 20 20 20 19 19 19 19 19 19 19 18 18
21 21 21 21 20 21 21 21 21 21 22 22 22 23 23 23 23 23 23 23 23 23 23 23 22 22 22 22 22 22 22 22 22 22 22 22 21 21 21 21 20 20 20
22 22 22 22 21 21 21 21 22 22 23 23 23 24 24 24 25 25 25 25 24 24 24 24 24 24 24 24 24 23 23 23 23 24 24 24 24 23 23 23 22 22 22
23 23 22 22 22 23 23 23 23 23 24 24 25 25 25 26 26 27 27 27 27 27 27 26 26 26 26 26 25 25 25 25 25 25 25 25 25 25 25 25 25 24 24
25 24 24 23 23 23 24 24 25 25 26 26 26 26 27 27 27 27 27 28 28 29 29 29 29 29 28 28 28 28 28 28 28 27 27 26 26 27 27 27 26 26 27
26 25 25 24 24 24 24 25 26 26 26 27 27 28 28 29 29 29 28 29 29 29 30 31 31 31 31 31 31 31 31 31 31 30 30 29 29 29 28 28 28 28 28
26 25 25 25 25 25 25 25 26 26 26 27 28 28 29 29 30 30 30 31 31 31 32 32 33 33 33 33 33 33 33 33 33 33 32 32 32 32 32 31 31 30 30
26 26 26 26 27 27 27 27 27 27 28 28 29 29 29 30 31 31 32 32 32 33 33 33 33 34 35 35 35 36 36 36 36 35 35 35 35 35 35 34 34 33 32
27 27 27 27 27 27 28 28 28 29 29 30 30 31 31 32 32 32 32 32 32 32 33 33 33 34 35 35 36 36 37 37 37 37 37 37 37 37 37 37 36 36 35
27 27 27 27 27 28 29 29 30 30 30 30 30 31 31 32 32 33 33 33 33 33 33 34 34 34 34 35 35 36 36 37 37 37 38 38 38 38 38 38 38 38 37
28 28 28 28 28 29 29 29 29 29 29 30 31 31 32 32 33 33 33 33 34 34 34 34 35 35 35 35 36 36 37 37 38 38 38 38 38 39 39 39 39 39 39
28 28 28 29 28 29 29 29 29 29 30 31 32 32 32 33 33 34 34 34 35 35 35 34 34 35 36 36 36 37 37 38 39 39 39 39 39 39 40 41 41 41 41
29 29 29 29 29 29 30 31 31 31 32 32 32 32 32 32 33 33 34 34 35 35 34 34 34 35 36 36 36 36 37 38 38 39 39 40 40 41 41 41 42 42 42
29 29 29 30 30 30 31 31 32 32 32 32 32 32 32 32 32 33 33 33 34 34 34 35 35 35 36 36 37 37 37 38 38 39 40 41 42 42 42 42 42 43 43
29 29 30 30 31 31 31 31 32 32 32 32 32 32 32 32 32 32 32 33 33 34 34 35 35 35 36 36 37 38 38 39 39 40 41 41 42 42 42 43 43 44 44
30 30 31 31 32 32 32 32 33 33 33 33 32 32 32 33 32 32 33 33 33 34 34 35 36 36 36 37 38 38 39 39 40 40 41 42 43 44 44 44 45 46 46
31 32 32 32 32 33 33 33 33 33 32 33 33 33 33 33 33 33 33 33 34 34 35 36 36 36 37 38 38 38 38 39 39 40 41 42 44 45 46 46 47 48 48
31 32 33 33 33 33 33 33 33 33 33 33 33 33 33 33 33 33 33 33 34 34 35 36 37 37 38 38 38 37 37 37 39 40 42 43 43 44 45 46 47 48 48
31 32 33 34 34 34 34 34 34 33 33 34 34 34 33 33 33 33 33 34 35 35 36 37 37 37 38 38 39 39 39 39 39 40 41 42 43 44 45 46 46 47 48
31 32 33 33 33 34 34 34 34 33 33 33 33 33 33 33 34 34 34 35 36 37 37 37 37 38 38 39 39 40 40 40 39 39 41 42 42 43 44 45 45 45 46
32 32 33 33 33 34 34 34 34 34 34 34 34 35 35 36 36 36 37 38 39 39 38 38 39 39 39 40 40 40 41 40 40 39 39 40 41 42 42 43 44 44 44
31 32 33 34 34 34 35 35 35 36 36 36 36 36 37 38 38 38 39 39 40 40 40 40 40 41 41 41 41 41 41 41 41 41 41 40 41 41 41 42 42 44 44

GEFSSE_500_meanwind_144.txt.gz
Wind_Speed
11 11 10 10 10 10 9 10 10 11 11 12 12 12 13 13 13 13 13 13 13 13 13 13 13 13 13 13 13 13 13 13 12 13 13 13 13 13 13 13 13 13 13
13 12 12 12 11 11 12 12 12 12 13 14 14 14 15 15 15 15 15 15 15 15 15 15 15 15 15 15 15 15 15 15 15 15 15 14 15 15 15 15 15 15 15
15 14 13 13 13 13 13 14 14 14 15 16 16 17 17 17 17 17 17 17 17 17 17 17 17 17 17 17 17 17 17 17 17 17 17 17 17 16 17 17 17 17 17
16 16 15 15 14 15 15 15 15 16 16 17 18 18 18 18 19 19 19 19 19 19 19 20 20 20 20 20 20 20 20 20 20 19 19 19 19 19 19 19 19 19 19
18 17 17 16 16 16 16 16 16 17 17 18 18 19 19 19 20 20 20 20 21 21 21 21 22 22 21 22 21 21 22 22 22 22 22 22 22 22 21 21 20 20 20
19 19 18 18 18 17 17 17 17 17 17 18 18 19 20 20 21 21 21 22 22 22 22 22 23 23 23 23 23 23 23 23 23 23 22 23 23 23 23 23 23 22 22
21 20 20 20 20 19 19 19 19 19 19 19 19 19 20 21 21 22 23 23 23 23 23 24 24 25 25 25 25 25 25 25 24 24 24 24 24 24 24 24 24 24 24
22 22 21 21 21 21 20 20 20 20 20 20 21 21 21 22 22 23 23 24 24 25 26 26 26 26 27 27 27 27 27 27 27 27 26 26 26 26 26 25 26 26 26
23 23 23 22 22 22 22 21 21 21 21 22 22 22 23 23 24 25 25 25 26 26 26 27 27 28 28 29 29 29 29 29 29 29 29 29 29 28 28 28 28 28 27
24 23 23 23 22 22 22 22 22 22 23 23 23 24 25 25 25 25 26 26 27 27 27 28 28 29 29 30 30 31 31 32 31 31 31 31 31 31 31 31 30 30 30
23 24 24 23 23 23 23 23 23 24 24 24 24 25 25 26 26 26 26 26 27 28 28 29 30 30 30 30 31 31 32 33 33 33 33 33 33 33 33 33 33 33 32
24 24 23 23 23 23 24 24 24 24 24 24 25 25 26 26 26 27 27 28 28 29 30 31 32 32 32 32 32 32 33 33 34 34 35 35 35 35 35 36 36 35 35
25 24 24 24 24 24 24 24 24 24 25 25 25 26 26 27 27 28 29 29 30 31 31 32 32 32 32 32 32 33 34 34 34 35 35 35 36 36 36 37 37 37 37
25 25 24 24 25 25 24 24 25 25 26 26 27 27 28 28 29 29 30 30 30 31 32 32 32 32 32 33 33 34 34 34 34 34 35 35 36 36 36 36 37 37 38
25 25 25 25 26 26 25 26 26 27 27 28 28 28 29 29 29 30 30 31 31 32 32 32 32 32 33 33 33 33 33 33 34 34 34 35 36 36 36 36 37 38 38
26 26 26 26 26 26 27 27 27 28 29 29 29 29 29 30 30 31 31 31 31 31 31 31 32 32 32 32 32 32 33 33 33 33 34 34 35 36 37 37 38 39 39
26 26 27 26 27 27 28 29 29 29 30 30 30 30 30 31 31 31 31 31 32 32 32 32 32 32 32 32 33 33 34 34 34 34 34 35 35 36 37 38 39 41 40
27 27 27 27 28 29 30 30 30 30 31 31 31 31 31 32 32 32 32 32 32 32 32 32 32 32 32 33 33 33 34 34 34 35 35 36 37 37 38 39 40 40 41
28 28 29 28 29 30 31 31 31 32 32 33 32 32 33 33 34 34 34 33 33 32 32 32 32 32 32 32 33 33 34 34 35 36 36 37 37 38 38 39 40 40 41
28 29 30 30 31 31 31 32 33 34 34 34 34 33 34 34 34 34 33 33 33 32 32 32 32 32 32 32 32 33 34 36 37 38 38 38 38 39 39 40 40 41 42
29 29 31 31 31 31 32 32 32 32 33 34 35 34 34 34 34 34 33 33 33 33 33 33 33 33 33 34 34 35 35 36 37 37 37 37 38 39 39 40 41 42 43
29 30 31 32 32 32 32 32 32 33 33 33 34 34 33 33 34 34 33 33 33 33 34 34 34 34 35 36 37 37 37 38 38 38 38 39 39 39 40 41 41 42 43
30 31 31 32 32 32 32 33 33 34 34 34 33 33 33 33 32 32 33 33 33 34 34 35 36 36 36 37 38 39 39 39 39 40 40 40 40 41 41 42 42 42 42
30 31 31 32 33 33 33 34 34 34 33 33 33 33 33 33 34 34 34 34 35 36 36 37 37 38 39 39 40 40 41 41 41 40 41 42 42 42 42 43 43 43 44
29 30 30 32 33 33 34 34 34 33 33 33 33 33 34 35 35 35 36 37 37 38 39 39 40 40 41 41 41 42 42 42 42 41 41 42 43 44 44 44 44 44 44
28 29 30 30 31 32 32 32 33 33 32 33 34 35 35 36 37 38 38 39 40 40 41 41 42 42 43 43 43 43 43 43 43 43 42 42 42 44 44 44 44 44 44

GEFSSE_500_meanwind_150.txt.gz
Wind_Speed
10 10 9 8 8 8 8 7 7 7 7 8 8 8 9 10 10 11 11 12 12 12 12 12 12 12 13 13 13 13 13 13 13 13 13 13 14 14 14 14 14 14 14
12 11 11 10 10 10 9 9 9 9 9 9 9 10 10 11 11 12 13 13 14 14 14 14 14 14 14 15 15 15 15 16 16 16 16 16 16 16 16 16 16 16 16
13 13 13 12 12 12 11 11 11 11 11 11 11 11 12 12 12 13 13 14 15 15 15 15 16 16 16 17 17 17 17 18 18 18 18 18 18 18 18 18 18 18 18
15 14 14 14 14 13 13 12 12 12 12 12 12 13 13 14 14 14 15 15 15 16 16 17 17 18 18 19 19 19 19 19 19 19 20 20 20 20 20 20 20 20 20
17 16 16 15 15 15 14 14 14 14 14 14 15 15 15 16 16 16 16 16 16 17 18 19 19 20 20 20 20 20 21 21 21 21 21 21 21 21 21 21 21 21 21
18 18 18 17 17 16 16 16 16 15 16 16 16 16 16 16 17 17 17 18 18 19 19 19 20 20 21 21 21 22 22 22 22 22 22 22 22 22 22 22 23 23 23
20 20 19 19 18 18 18 17 17 17 17 17 17 17 17 17 17 18 18 19 19 19 19 20 20 21 22 22 23 23 24 24 24 24 24 24 24 24 24 24 24 25 24
21 21 21 20 20 20 19 19 18 18 18 18 18 18 17 18 18 18 19 19 20 20 21 21 22 22 23 23 24 24 25 25 26 26 26 26 27 27 27 27 26 26 27
22 22 22 22 21 21 20 20 19 19 19 19 18 18 19 19 19 20 20 20 21 21 22 22 23 24 24 25 26 26 27 27 28 28 28 28 28 28 28 28 28 28 29
24 23 23 23 22 22 22 21 20 20 20 20 20 20 21 21 21 21 21 22 22 22 23 24 25 25 26 26 27 27 28 28 28 29 29 30 30 30 30 30 30 30 30
25 25 24 24 24 23 23 22 21 21 21 21 21 22 21 22 22 22 23 23 23 24 24 25 25 26 27 27 28 29 29 30 30 30 30 31 31 32 32 32 32 32 32
25 25 25 25 25 24 24 23 23 22 22 22 23 23 22 23 23 24 24 25 25 25 25 26 27 27 28 28 29 30 30 30 31 31 31 32 32 32 33 33 34 34 34
24 24 24 24 24 24 24 24 24 24 23 24 23 24 24 25 25 26 26 26 26 27 27 27 28 28 29 30 30 31 31 31 31 32 32 33 33 33 33 33 34 34 35
24 24 25 24 24 24 24 25 25 25 24 24 24 25 25 26 26 27 27 28 28 28 28 29 30 30 31 31 31 32 32 31 31 31 32 33 33 33 33 33 33 34 34
25 25 25 25 25 25 25 25 26 26 25 25 26 26 27 27 28 28 28 28 29 30 31 31 32 32 33 32 32 32 32 31 31 31 31 32 32 33 33 33 33 34 35
26 25 26 25 26 26 26 27 27 27 27 27 27 28 28 28 28 28 29 30 31 32 33 33 33 33 32 31 31 31 31 31 31 31 31 31 32 33 33 33 34 34 35
28 27 27 27 27 27 28 28 29 29 28 28 28 29 30 29 29 30 31 32 33 33 33 33 33 32 31 31 31 31 30 30 30 31 32 32 32 33 33 34 35 36 36
28 28 28 28 28 28 29 29 29 29 29 29 29 30 30 29 30 31 32 33 33 33 32 32 32 32 32 31 31 31 31 30 31 32 32 33 33 34 34 35 36 37 37
29 29 29 29 29 30 30 30 31 30 30 30 30 30 30 31 32 33 33 33 33 33 33 33 33 32 32 32 32 32 32 31 32 33 33 34 35 35 36 36 37 37 38
29 30 30 30 30 30 31 32 32 31 31 31 31 31 32 33 34 34 34 34 34 34 33 33 33 33 33 34 34 33 33 33 34 34 35 36 36 37 38 38 38 38 38
29 29 30 31 31 31 31 32 32 32 32 33 32 33 33 34 35 34 33 33 33 34 34 33 33 33 34 34 35 35 35 36 36 37 37 37 37 38 38 38 39 38 39
30 30 31 31 32 33 33 33 32 33 34 34 34 35 35 35 35 34 33 33 34 34 34 34 35 36 36 37 37 37 37 37 38 39 39 39 39 39 40 40 40 40 41
32 32 32 33 33 34 34 34 34 35 35 35 36 36 35 35 34 34 34 34 35 35 36 36 37 38 38 39 39 40 40 40 40 40 41 41 41 41 42 42 43 43 43
33 33 33 33 33 33 34 34 35 36 36 36 36 36 35 35 35 35 35 36 36 36 37 37 37 38 39 40 41 41 42 43 42 42 43 43 44 44 44 44 45 45 45
32 33 34 34 34 34 34 35 35 36 36 36 37 35 35 36 36 36 36 37 38 38 39 40 40 41 41 42 42 43 43 44 44 44 44 45 45 46 46 47 47 47 47
31 32 32 33 33 34 34 34 35 36 36 36 35 34 34 35 35 36 37 38 39 40 41 41 42 43 44 44 44 45 45 46 46 47 47 47 47 48 48 49 49 49 49

GEFSSE_500_meanwind_156.txt.gz
Wind_Speed
9 8 8 7 7 7 6 6 6 5 5 5 5 5 5 5 6 6 6 7 7 7 8 8 9 9 10 10 10 10 10 11 11 12 12 12 13 13 13 13 14 14 14
11 10 9 9 9 8 8 8 7 7 7 7 7 7 7 7 7 8 8 9 9 9 9 10 10 11 11 12 12 12 12 13 13 13 14 14 15 15 15 15 16 16 16
13 12 11 11 10 10 10 10 9 9 9 8 8 8 8 8 9 9 9 10 10 11 11 12 12 13 13 14 14 14 15 15 15 15 15 16 16 17 17 17 17 18 18
15 14 13 13 12 12 12 11 11 11 10 10 10 10 10 10 10 10 11 11 12 13 13 14 14 14 14 15 15 16 16 16 16 17 17 17 17 18 18 18 18 19 19
17 16 15 14 14 13 13 13 13 12 12 12 12 12 12 12 12 12 13 13 13 14 14 14 14 14 14 15 15 16 16 17 17 17 18 18 18 19 19 19 20 20 21
19 18 17 16 16 15 15 15 14 14 14 14 14 14 14 14 14 14 14 14 14 14 14 15 15 15 16 16 17 17 18 18 18 19 19 19 20 20 21 21 22 22 22
20 19 19 18 17 17 16 16 16 16 16 15 15 15 15 15 15 15 15 15 15 15 15 16 16 17 18 18 19 19 19 19 20 21 21 21 22 22 22 23 23 24 24
21 21 20 19 19 18 18 17 17 17 17 17 17 16 16 16 16 16 16 16 16 16 17 17 18 18 19 19 20 20 21 21 22 23 23 23 23 24 24 24 25 25 25
22 22 21 21 20 20 19 19 19 18 18 18 18 18 17 17 17 17 17 17 17 18 18 18 19 19 20 20 21 22 22 23 24 24 25 25 26 26 26 27 27 27 27
24 23 22 22 21 21 20 20 20 19 19 19 19 19 19 18 18 18 18 18 18 19 19 19 19 20 21 21 22 23 23 24 25 25 26 27 27 27 28 28 29 29 29
25 25 24 23 22 21 21 21 21 21 21 20 20 20 20 20 20 20 20 20 20 20 20 21 21 22 22 23 23 24 25 25 26 27 27 28 29 29 29 29 29 30 30
26 26 25 24 23 22 22 22 22 22 22 22 22 22 21 21 21 21 21 21 21 22 22 22 23 24 24 25 25 26 26 27 27 27 28 28 29 29 30 30 30 30 30
27 27 26 25 24 23 23 24 23 23 23 23 23 23 23 23 23 23 23 23 23 23 24 24 25 25 25 26 26 27 27 28 28 27 28 28 29 30 30 30 30 31 31
28 28 27 26 25 24 24 25 25 25 24 24 25 24 24 24 25 25 24 24 24 25 25 26 26 26 26 27 27 27 27 27 27 28 28 29 29 29 29 29 30 31 31
29 28 27 27 26 26 25 26 26 25 25 26 26 26 26 26 26 26 26 26 26 26 26 27 27 27 28 28 27 27 27 27 28 28 28 29 29 29 29 30 30 31 31
30 29 28 28 27 27 27 27 27 27 26 27 27 27 27 28 28 27 27 27 27 27 27 28 29 29 29 28 28 28 28 29 29 28 28 29 29 30 30 30 31 32 32
30 29 29 29 29 28 28 28 28 28 28 28 28 28 28 29 29 28 28 28 28 29 29 30 29 28 28 29 29 29 29 29 29 29 30 30 30 30 31 31 32 33 34
30 30 30 29 29 29 29 29 28 29 29 29 29 29 30 30 30 30 30 30 30 30 31 30 29 29 29 29 29 30 29 29 29 30 31 31 31 31 32 32 33 34 35
30 30 31 30 30 30 30 30 30 30 30 30 30 30 30 31 31 31 31 31 31 31 30 30 30 29 30 30 31 30 30 30 31 31 32 32 33 33 34 35 35 36 36
29 29 30 31 31 31 31 31 30 30 30 31 31 32 31 32 32 32 32 32 32 31 31 31 31 31 31 31 31 31 32 32 33 33 34 34 35 36 36 37 37 38 38
30 30 30 30 31 32 32 31 32 32 32 31 31 32 33 33 33 33 33 32 32 32 32 32 32 32 32 32 33 33 34 34 34 35 36 36 37 37 38 39 39 39 40
29 29 31 32 32 33 33 33 33 34 34 33 33 33 33 34 34 33 33 32 33 33 32 32 32 31 32 33 33 34 34 34 35 37 37 38 38 38 39 40 41 41 42
28 29 29 31 31 33 34 34 35 35 35 34 35 34 34 34 34 33 33 33 33 32 32 32 32 33 34 35 35 36 36 37 37 38 38 39 40 41 41 42 43 43 44
29 30 31 31 32 32 33 35 36 37 37 36 36 35 36 35 35 34 33 33 33 33 33 34 35 36 36 37 38 39 39 39 40 40 40 41 42 43 44 45 45 46 47
29 30 31 32 32 33 34 35 35 36 36 36 35 36 35 36 35 34 34 34 35 35 35 36 37 38 38 39 40 40 41 42 42 43 43 44 45 46 46 47 47 48 48
30 31 32 33 34 34 34 34 34 34 35 36 36 36 35 35 35 35 35 36 36 37 38 39 39 40 41 42 42 43 43 44 45 45 46 47 48 48 49 49 49 49 49

GEFSSE_500_meanwind_162.txt.gz
Wind_Speed
12 11 10 9 9 9 8 8 7 7 7 6 6 6 6 6 6 7 7 7 7 7 8 8 8 9 9 9 10 10 11 12 12 12 12 12 12 13 13 13 13 13 14
14 13 12 11 10 10 10 9 9 8 8 8 8 7 7 7 8 8 8 8 9 9 9 9 10 10 10 11 11 12 12 13 14 14 14 14 14 14 14 15 15 15 15
16 15 14 13 13 12 11 11 10 10 10 10 9 9 9 9 9 10 10 10 10 10 10 10 11 12 12 12 12 13 13 13 14 15 15 16 16 16 16 16 16 17 16
18 17 16 15 14 13 13 12 12 12 11 11 11 11 11 11 11 11 11 11 11 11 11 12 12 13 13 13 14 14 14 14 15 15 16 16 17 17 18 18 18 18 18
20 19 17 16 16 15 14 13 13 13 13 13 13 13 13 13 13 13 12 12 12 12 12 13 13 13 14 14 15 15 16 16 16 16 17 17 18 18 19 19 19 19 19
22 21 19 18 17 16 15 15 14 14 14 14 14 14 14 14 14 13 13 13 13 13 14 14 14 15 15 16 16 17 17 17 17 18 18 19 19 20 20 21 21 20 20
24 22 21 20 19 18 17 16 15 15 16 15 15 15 15 15 14 14 14 14 14 14 15 15 15 16 16 17 17 17 18 18 18 19 19 20 21 22 22 22 22 22 22
25 24 23 22 21 20 18 18 17 16 16 16 16 16 15 15 15 15 15 15 15 15 16 16 16 16 17 17 17 17 18 18 19 20 20 21 22 23 23 23 24 24 24
27 25 24 23 22 21 20 19 18 17 17 17 17 17 17 16 16 16 16 17 17 17 17 17 17 17 17 17 18 19 19 19 20 21 22 23 23 24 24 24 25 25 25
28 27 25 24 23 22 22 21 20 19 18 18 18 18 18 18 18 18 18 18 18 18 18 18 18 18 18 19 20 20 20 21 22 22 23 24 24 25 25 25 26 26 26
29 28 27 26 25 24 23 22 21 20 20 20 20 19 19 19 19 19 20 20 20 20 20 20 20 20 20 20 21 21 22 22 23 24 24 25 25 25 25 26 26 27 27
31 29 28 27 26 25 24 23 23 22 22 21 21 21 21 21 21 21 21 21 22 22 22 22 21 21 21 22 22 23 23 23 24 25 25 25 25 25 26 26 26 27 27
31 30 29 28 28 26 25 25 24 24 23 23 23 22 22 22 23 23 23 23 23 24 24 23 23 23 24 24 24 24 24 24 25 25 25 24 25 25 25 26 26 26 27
32 31 30 29 28 27 26 25 25 25 25 24 24 24 24 24 24 24 25 25 25 25 25 25 25 25 25 25 25 25 25 25 25 25 24 25 25 25 25 25 25 26 27
33 32 31 30 29 28 27 27 26 26 26 25 25 25 25 25 25 26 26 26 26 27 26 26 26 26 26 27 26 26 26 26 25 25 26 26 26 26 26 26 26 27 27
33 32 32 31 30 29 29 28 27 27 27 27 27 27 27 27 27 27 28 28 28 28 29 28 28 27 28 28 28 27 27 26 26 27 27 27 27 27 27 27 28 28 29
33 32 32 31 30 30 29 29 28 28 28 28 28 28 28 29 29 29 29 29 29 29 29 29 29 29 29 28 28 28 28 27 28 28 28 28 28 28 28 29 29 30 31
34 33 32 31 31 30 30 30 29 29 29 30 30 30 30 30 30 30 30 31 30 30 31 30 30 30 29 29 29 29 29 29 29 29 29 29 28 29 29 30 31 32 32
34 34 33 32 31 31 31 31 30 30 30 30 30 30 31 32 32 31 32 31 31 31 31 31 31 31 30 30 30 30 30 30 30 30 29 29 30 31 32 33 33 33 34
33 33 33 32 32 31 31 32 31 31 32 32 32 31 32 33 33 33 33 32 33 33 33 32 32 32 32 31 31 31 31 31 31 31 31 32 32 33 34 35 35 35 36
32 32 32 33 33 33 32 32 32 33 34 33 33 33 33 34 35 35 34 34 34 33 33 33 33 33 33 32 33 33 33 33 33 33 34 35 35 36 37 37 37 37 38
31 31 31 31 32 33 34 33 33 34 35 35 36 36 35 35 35 35 35 35 35 35 34 34 34 34 34 35 35 35 35 35 35 35 36 37 38 38 39 39 39 39 40
31 31 31 32 31 33 34 34 34 34 35 35 35 35 36 37 36 35 35 35 36 36 35 35 35 36 36 37 37 37 37 36 36 36 37 38 39 40 40 40 41 41 42
30 31 31 32 33 33 34 35 35 35 36 36 37 37 37 37 37 36 35 35 35 36 36 36 36 36 37 38 38 38 38 39 39 38 39 40 41 41 41 42 42 43 44
30 31 32 32 33 34 35 36 36 35 36 36 37 37 37 37 36 37 37 36 36 36 37 37 37 37 38 38 38 39 40 41 41 42 41 42 42 43 44 44 45 46 47
29 30 32 33 33 34 35 36 37 37 37 37 38 38 38 38 38 38 38 38 38 39 39 40 39 39 39 40 40 41 42 43 44 44 44 45 45 46 47 47 48 48 48

GEFSSE_500_meanwind_168.txt.gz
Wind_Speed
12 11 10 9 9 8 7 7 7 7 7 7 7 7 7 7 7 7 7 7 7 7 7 7 8 8 8 9 9 9 10 10 11 11 12 12 12 13 13 13 13 13 14
14 13 12 11 11 10 9 9 8 8 8 8 8 8 8 8 8 9 9 9 9 9 9 9 9 9 9 10 10 10 11 11 11 12 12 13 13 13 14 14 14 15 15
16 15 14 13 12 12 11 11 10 10 10 9 9 10 10 10 10 10 10 10 10 10 10 10 10 10 10 11 11 12 12 13 13 13 13 13 14 14 15 16 16 16 16
19 18 17 16 15 14 13 13 12 11 11 11 11 11 11 11 12 12 12 12 11 11 11 11 11 11 12 12 13 13 13 14 14 14 14 14 14 15 16 17 17 17 18
22 21 19 18 17 16 15 14 14 13 12 12 12 12 12 12 12 12 12 12 12 12 12 12 12 13 13 13 14 14 14 14 14 14 14 14 15 16 17 17 18 19 19
24 23 22 20 19 18 17 16 15 15 14 13 13 13 13 13 12 13 13 13 13 13 13 13 13 14 14 14 14 14 15 15 15 15 16 16 16 17 18 19 19 19 19
26 25 24 22 20 19 18 17 17 16 15 14 14 14 14 14 13 13 14 14 14 14 14 14 15 15 15 15 15 15 16 16 16 17 17 17 17 17 18 19 20 20 20
27 27 26 24 22 21 20 19 18 17 17 16 15 15 15 15 15 14 15 15 15 15 16 16 16 16 16 16 16 16 17 17 17 17 18 18 18 18 19 20 21 21 22
29 28 27 26 25 23 22 20 19 18 18 17 17 17 16 16 16 16 16 16 17 16 17 17 17 17 17 17 17 18 18 18 18 18 18 19 19 19 20 20 21 21 22
30 29 29 28 27 25 24 23 21 20 19 19 18 18 18 18 17 17 17 18 18 17 17 18 18 18 19 19 18 19 19 19 19 19 19 20 20 20 21 21 21 22 23
32 31 29 29 28 27 26 25 23 22 21 21 20 20 20 19 19 19 19 19 19 19 19 19 19 19 19 20 20 20 20 20 21 20 20 21 21 21 22 22 22 23 24
33 33 31 30 30 29 27 26 25 24 23 22 22 22 21 21 20 20 20 20 20 20 20 21 21 21 21 21 21 22 22 22 22 22 22 22 22 23 23 23 23 24 24
34 34 33 31 31 30 29 27 26 25 25 24 24 23 23 23 22 22 22 22 21 22 22 22 22 22 23 23 23 23 24 24 23 23 23 24 24 24 24 24 24 24 24
34 34 33 33 31 31 30 29 28 27 26 26 25 25 25 24 24 24 23 23 23 24 24 24 24 24 24 25 25 25 25 25 25 25 25 25 25 25 25 25 25 25 24
35 34 33 33 32 31 31 30 30 29 28 27 27 26 26 26 26 25 25 25 25 26 26 26 26 26 26 26 26 26 26 26 26 26 26 26 25 25 25 25 25 25 24
37 35 34 33 32 32 32 31 31 30 29 29 28 27 27 27 27 27 27 27 27 27 28 27 28 28 28 28 28 27 27 27 27 26 26 26 26 26 26 26 26 26 26
37 37 35 33 33 33 32 32 32 31 30 30 29 29 29 29 29 29 29 29 29 29 29 29 29 29 30 29 29 28 28 28 28 28 28 27 27 27 27 28 28 28 28
36 36 34 32 32 32 32 32 32 32 31 31 30 30 30 30 30 30 30 31 31 30 30 30 30 31 31 30 30 30 30 29 29 29 29 29 29 30 30 30 30 30 30
35 35 34 33 33 32 32 32 33 33 32 32 32 31 31 31 31 31 31 32 32 32 31 32 31 31 31 31 31 32 31 31 30 30 31 31 32 32 32 32 32 32 33
34 35 35 35 33 33 33 33 33 33 33 33 32 32 32 32 32 32 32 33 33 33 33 32 32 32 33 33 33 33 33 32 32 32 33 33 34 34 34 35 35 35 36
34 35 36 36 34 33 32 32 31 32 33 33 32 33 33 33 33 33 34 34 34 34 34 33 34 34 34 34 34 34 34 34 34 35 35 35 35 36 36 36 37 37 38
33 33 34 34 34 33 33 31 33 33 33 33 33 33 33 33 34 33 35 35 35 35 35 35 36 36 35 35 35 35 35 36 36 37 37 38 38 38 38 38 39 39 39
32 32 32 33 34 33 34 34 34 34 34 34 34 34 35 34 34 34 35 35 36 35 36 36 36 36 36 36 36 36 36 37 38 38 39 39 39 40 40 40 40 41 41
30 31 32 32 32 33 33 34 34 34 34 33 33 34 35 35 36 36 36 37 37 37 37 37 37 37 37 37 37 37 38 39 40 40 41 41 41 42 42 42 43 43 43
29 30 31 32 33 34 34 34 35 35 35 34 35 36 37 37 38 38 38 38 38 38 39 39 39 38 39 39 39 39 40 40 41 42 41 42 43 43 43 44 44 45 45
27 28 29 31 33 34 35 35 34 34 35 36 36 36 37 38 38 39 40 40 39 40 40 40 40 40 40 41 41 41 42 42 43 43 43 44 44 44 44 45 46 47 48

GEFSSE_500_meanwind_174.txt.gz
Wind_Speed
14 13 12 11 10 9 8 7 6 6 5 5 5 5 4 4 4 4 5 5 5 6 6 6 6 6 7 7 7 8 9 9 9 9 10 10 10 11 11 11 12 12 13
16 15 14 13 12 11 10 9 8 8 7 6 6 6 6 5 5 5 6 6 7 7 7 7 7 7 7 8 8 9 9 10 10 10 10 10 11 11 12 12 13 14 14
18 18 17 16 15 13 12 11 10 9 9 8 8 7 7 7 7 7 7 7 8 8 8 8 8 8 9 9 9 10 10 11 11 11 11 11 11 12 12 13 14 15 15
20 20 19 18 17 16 14 13 13 12 11 10 9 9 8 8 8 7 7 8 8 8 9 9 9 10 10 10 11 11 12 12 12 12 13 13 13 13 13 13 14 15 16
22 22 22 21 20 18 17 16 15 14 13 12 11 10 9 9 9 8 8 9 9 9 10 10 11 11 11 11 12 12 13 13 13 14 14 14 14 14 14 15 15 16 16
24 24 24 23 22 21 19 18 17 16 15 14 13 12 11 11 10 10 10 10 10 10 10 11 11 11 12 12 12 13 14 14 15 15 15 15 15 15 15 16 16 17 16
26 26 25 24 23 23 21 20 19 18 17 16 15 14 13 12 12 12 12 12 11 11 11 12 12 12 12 13 14 14 15 15 15 16 16 16 16 16 16 16 17 17 17
27 27 26 26 25 25 23 22 21 20 19 17 16 16 15 14 14 13 13 13 13 13 13 13 13 14 14 14 15 15 15 16 16 16 16 16 17 17 17 18 18 18 18
28 28 28 27 27 26 25 24 23 22 21 19 18 17 17 16 15 15 14 14 14 14 15 15 15 15 16 16 16 16 17 17 17 17 17 17 18 18 18 18 19 19 19
30 30 30 30 28 29 27 26 25 24 22 21 20 19 19 18 17 16 16 16 16 16 16 16 17 17 17 17 17 18 18 18 18 18 18 19 19 19 19 19 20 20 20
31 31 31 32 30 30 29 28 27 26 24 23 22 20 20 20 19 19 18 18 18 18 18 18 18 18 18 18 18 19 19 20 20 20 20 20 20 20 20 21 21 21 22
30 31 32 33 31 30 31 30 29 28 26 25 24 22 22 21 21 20 20 19 19 20 19 19 19 19 19 19 20 20 20 21 21 21 21 21 21 21 22 22 22 23 24
31 31 32 33 32 31 32 31 30 29 28 27 26 24 23 23 22 21 21 21 21 21 21 21 20 20 21 21 21 21 21 22 22 23 23 23 22 22 23 23 24 24 25
32 32 32 33 33 33 33 33 32 31 30 29 28 26 25 24 24 23 23 23 23 22 22 22 22 22 22 22 22 22 23 23 24 24 24 24 24 24 24 24 25 25 25
33 33 34 34 34 34 34 33 33 32 31 30 29 28 27 26 25 25 24 24 24 24 23 23 23 23 23 23 23 24 24 25 25 25 25 25 26 25 25 25 26 26 26
34 34 35 36 35 35 34 35 34 33 32 31 31 29 28 28 27 26 26 26 26 25 25 25 25 25 25 25 25 26 26 26 26 26 27 27 27 27 26 27 27 27 27
34 34 34 36 36 35 35 35 35 34 34 33 32 31 30 29 28 28 28 27 27 27 27 27 27 26 26 26 27 27 27 28 27 28 28 28 28 28 28 29 29 29 29
32 33 34 36 36 35 35 36 35 35 35 34 34 33 32 31 30 30 29 29 29 28 28 28 28 28 28 29 29 29 29 29 29 29 30 30 30 30 30 31 31 31 31
32 34 35 35 36 35 34 35 36 37 36 34 34 34 33 32 31 31 30 30 30 30 30 30 30 30 30 31 31 31 31 31 31 31 31 31 32 32 32 33 33 33 33
33 34 36 35 37 36 34 34 35 36 36 35 34 33 34 34 33 32 32 31 31 31 32 32 32 32 32 32 32 33 33 33 33 33 33 33 34 34 35 35 35 35 35
32 33 35 36 36 36 36 34 34 36 36 34 35 34 35 35 35 34 33 34 33 33 33 34 34 33 34 34 34 34 34 35 35 35 35 35 36 36 36 37 37 37 38
30 32 34 35 38 38 38 36 35 36 36 35 34 35 35 35 35 36 36 35 35 35 35 35 35 35 35 36 36 36 36 36 36 37 37 37 38 38 38 39 39 40 40
29 31 33 34 36 38 38 36 34 35 37 37 35 35 36 36 37 37 37 36 36 36 37 37 37 37 38 38 38 38 38 37 38 38 38 38 38 39 40 41 41 41 41
30 31 31 33 35 36 36 35 34 35 36 37 36 35 37 36 36 37 37 37 38 37 38 39 39 39 40 40 39 39 39 38 38 38 39 39 40 40 41 42 42 43 43
29 30 31 33 35 36 35 35 34 34 35 36 37 35 36 37 36 37 37 38 39 39 39 38 39 40 40 40 40 40 40 41 41 41 40 41 42 43 43 43 44 45 45
27 28 29 32 34 35 34 34 35 35 36 36 37 36 36 37 38 38 38 38 39 40 39 39 40 40 41 42 42 42 42 42 42 43 43 43 44 44 45 46 46 47 48

GEFSSE_500_meanwind_180.txt.gz
Wind_Speed
15 14 13 13 12 11 11 10 9 8 8 7 6 6 5 5 4 4 3 3 3 3 3 3 3 2 2 2 3 3 4 5 5 6 6 6 7 7 7 7 8 8 9
17 16 15 15 14 13 13 12 11 10 9 9 8 7 7 6 6 5 5 4 4 3 3 3 3 3 3 3 3 4 4 5 6 6 6 6 7 7 8 8 9 9 10
19 18 17 17 16 16 15 14 13 12 11 10 10 9 8 8 7 7 6 5 5 4 3 3 4 4 4 4 5 5 6 6 7 7 7 7 7 8 9 9 9 10 10
21 20 19 19 19 18 17 16 15 14 13 12 12 11 10 10 9 8 8 7 6 5 4 4 4 5 5 5 6 6 7 7 8 8 8 8 8 9 10 10 10 11 11
23 22 21 21 21 20 20 19 17 16 15 14 14 13 12 11 10 9 9 8 7 6 6 6 6 6 6 7 7 7 7 8 8 9 9 9 10 10 11 11 11 11 12
25 24 24 24 23 23 22 21 19 18 17 16 15 15 14 13 12 11 10 9 9 8 8 7 7 7 7 8 8 8 9 9 9 10 10 10 10 11 11 12 12 12 12
26 26 25 25 25 25 24 23 22 21 19 18 18 17 16 15 14 13 12 11 11 10 9 9 9 9 9 9 9 9 10 10 10 11 11 11 11 11 12 12 12 13 13
27 27 26 26 26 27 26 26 24 23 22 21 20 19 18 17 16 15 14 13 13 12 11 11 11 10 10 10 11 11 11 11 11 12 12 12 12 12 13 13 13 13 14
28 28 28 27 27 27 27 27 27 26 25 23 22 21 20 19 18 17 16 15 15 14 13 13 12 12 12 12 12 12 12 12 12 13 13 13 13 13 14 14 14 14 14
29 29 29 28 28 28 28 28 28 27 27 25 24 23 22 21 20 20 18 17 17 16 15 15 14 13 13 13 14 14 13 14 14 14 14 14 14 15 15 15 15 15 16
30 30 30 30 29 29 29 29 29 28 28 27 26 25 24 23 22 21 20 19 19 18 17 16 16 15 15 15 15 15 15 15 15 15 16 16 16 16 16 17 17 17 17
31 30 31 31 31 30 30 30 30 30 30 29 28 27 26 25 23 22 22 21 20 19 19 18 18 18 17 17 16 16 16 17 17 17 17 17 17 17 18 18 19 19 19
32 32 31 32 32 32 31 31 32 31 31 31 30 29 27 26 25 23 23 22 21 21 20 20 19 19 19 18 18 17 18 18 18 18 18 18 19 19 19 20 20 21 21
32 33 33 33 33 33 33 33 33 33 32 32 31 31 30 28 27 25 24 24 23 22 22 21 21 20 20 20 19 19 19 19 19 19 20 20 20 21 21 22 22 22 23
33 33 32 33 34 34 35 35 35 35 34 33 32 32 32 30 29 28 26 25 25 24 23 22 22 21 21 21 21 20 20 20 21 21 22 22 22 23 23 24 24 24 24
35 35 35 33 34 34 36 36 36 36 36 35 33 33 33 32 31 30 28 27 26 25 24 24 23 22 22 22 22 22 22 22 23 23 23 24 24 24 25 25 26 26 26
34 35 35 35 35 35 35 37 37 37 37 37 35 34 34 33 32 31 30 29 27 27 26 26 25 24 24 24 24 24 24 24 24 25 25 26 26 26 26 27 27 28 28
34 34 35 36 36 36 36 36 38 38 37 37 37 35 35 33 32 33 32 31 30 28 28 28 27 26 26 26 26 26 26 26 27 27 27 28 28 28 28 29 29 29 30
33 34 34 35 37 37 37 38 39 38 37 37 38 37 37 35 34 34 34 33 32 31 30 30 29 29 29 29 29 29 29 29 29 29 29 30 30 30 30 30 31 31 32
33 33 33 34 35 37 37 38 39 38 38 38 38 38 38 37 36 35 34 34 34 33 32 32 32 31 31 31 31 31 31 31 30 30 31 31 32 32 32 32 33 34 34
32 32 32 33 34 35 36 37 37 38 37 39 38 38 38 39 37 36 36 36 36 36 34 34 33 33 33 33 32 32 33 33 32 32 33 33 33 34 34 35 35 36 37
31 31 31 32 32 34 36 37 37 38 38 38 38 37 37 38 37 35 36 36 36 36 36 36 35 35 35 35 34 35 35 35 34 34 34 35 36 36 36 37 37 38 38
29 30 30 30 32 33 35 36 37 37 38 38 38 37 37 38 38 38 37 37 37 38 38 37 36 37 37 37 37 37 38 37 36 37 37 38 38 38 38 39 39 40 40
27 28 29 30 31 33 34 35 36 36 37 38 38 38 37 38 38 38 38 38 38 38 39 39 39 39 39 39 39 39 40 40 40 40 40 40 40 41 41 41 42 43 43
25 26 28 30 30 31 33 34 35 36 37 38 38 38 38 38 40 40 39 39 39 39 40 40 41 41 40 40 41 40 41 42 42 42 42 42 43 43 44 44 45 45 45
24 26 27 29 29 30 31 33 34 36 36 37 38 38 38 38 39 41 41 40 40 40 42 42 42 41 42 42 43 43 43 43 44 44 44 44 45 46 46 47 47 47 47

GEFSSE_500_meanwind_186.txt.gz
Wind_Speed
16 16 15 15 14 14 13 12 12 11 10 10 9 9 8 8 8 7 6 6 6 5 5 5 5 4 4 3 3 3 3 3 3 4 4 4 4 4 4 4 5 5 5
19 18 17 17 16 16 15 14 14 13 12 12 11 10 9 9 9 8 8 7 6 6 5 5 5 5 4 4 4 4 4 4 4 4 4 4 4 4 4 5 5 6 6
21 20 19 19 18 18 17 16 16 15 14 13 13 12 11 10 10 9 9 8 8 7 6 5 5 5 5 5 4 4 4 4 4 4 4 4 4 4 5 6 6 7 7
24 23 22 21 20 19 19 18 18 17 17 16 15 14 13 12 11 10 10 10 9 8 8 7 6 6 6 5 5 5 5 4 4 5 5 5 5 5 6 7 7 8 8
26 25 24 23 22 21 21 20 20 19 18 17 17 16 15 14 13 12 12 11 10 10 9 8 8 7 7 7 7 6 6 5 5 5 5 6 6 7 7 7 7 8 9
29 28 26 25 24 23 22 22 21 21 20 19 18 18 17 16 16 15 14 13 12 11 10 10 9 9 9 8 8 8 7 7 7 7 7 7 7 8 8 8 8 9 9
30 29 28 27 26 25 24 23 23 22 22 21 20 19 19 18 17 17 16 15 14 13 12 11 11 10 10 9 9 9 9 8 8 8 8 8 9 9 9 9 9 9 10
31 31 30 28 27 26 26 25 24 24 24 23 22 21 21 20 19 18 18 17 16 15 14 13 12 12 11 11 10 10 10 10 9 9 9 10 10 10 10 10 10 10 10
32 32 31 30 29 28 27 27 26 26 25 25 25 24 23 22 21 20 20 19 18 17 16 15 14 13 13 12 12 12 12 12 11 11 11 11 11 11 11 11 11 11 11
31 32 32 31 30 29 29 28 28 27 27 26 26 25 25 24 23 22 21 21 20 19 18 17 16 15 14 14 13 13 13 13 13 13 13 13 13 13 13 13 13 13 13
31 31 31 31 30 30 29 29 28 28 28 27 27 27 26 26 25 24 23 22 21 21 20 19 18 17 16 16 15 15 14 14 14 14 14 14 14 14 14 14 14 15 14
32 32 31 31 31 31 30 30 29 29 29 28 28 28 28 27 27 26 25 25 24 23 22 21 20 20 19 18 17 17 16 16 16 15 16 16 16 16 16 16 16 16 16
33 32 32 32 32 31 31 31 31 30 30 30 29 29 29 29 28 28 26 27 26 25 23 23 22 21 20 19 19 18 18 18 17 17 17 17 17 17 17 17 18 18 19
33 33 33 33 33 32 32 32 32 32 31 31 30 30 31 31 30 29 29 28 28 27 26 25 24 23 22 21 20 20 19 19 19 19 19 19 19 19 19 19 19 20 20
33 33 34 34 33 32 33 34 33 33 33 32 33 32 32 32 32 31 30 29 29 29 28 27 26 25 24 23 22 22 21 21 20 20 20 20 21 20 21 21 21 21 22
33 34 35 34 34 32 33 34 34 35 34 34 33 34 33 33 32 32 31 31 30 30 29 29 28 27 26 25 24 23 23 23 22 22 22 22 22 22 23 23 23 24 24
32 34 35 35 35 34 34 33 33 36 36 35 35 35 35 35 34 32 33 33 31 31 31 30 30 29 28 27 26 25 25 25 24 24 24 24 24 24 25 25 25 26 26
32 33 34 35 35 36 35 34 35 35 37 37 36 36 36 36 35 34 34 34 33 32 32 32 31 30 29 28 28 27 27 26 26 26 25 26 26 26 27 27 27 28 28
30 32 32 34 35 37 36 36 36 36 37 38 38 37 37 37 37 36 34 34 34 33 33 33 32 32 31 30 30 29 29 28 28 28 28 28 28 29 29 29 29 30 30
30 31 31 33 35 37 36 34 35 37 37 38 38 38 38 38 38 38 36 35 34 34 34 34 34 34 33 31 31 31 30 30 30 30 30 30 30 31 31 31 32 32 32
29 31 31 31 33 34 35 35 34 36 37 37 38 39 39 40 40 40 40 38 36 36 35 35 36 35 35 34 33 33 33 33 33 33 32 32 33 33 33 33 33 34 34
28 29 29 29 30 33 35 36 35 34 36 37 38 38 39 40 41 40 40 39 38 36 35 36 36 36 36 36 35 34 34 34 35 34 34 34 35 35 35 35 36 36 37
27 27 28 28 29 31 33 34 34 35 35 36 36 37 38 39 40 41 41 39 38 37 37 37 37 37 38 38 37 36 36 36 36 37 37 37 37 37 37 38 38 38 39
27 28 28 27 27 29 30 31 32 32 33 35 36 37 37 38 38 40 40 40 39 38 39 39 39 39 39 40 40 39 39 39 38 39 39 39 39 40 39 40 40 41 40
26 26 27 27 27 28 29 30 30 30 31 33 34 36 36 37 38 40 40 40 40 40 39 39 39 39 40 41 41 41 41 41 41 41 41 42 42 42 42 42 42 43 43
26 26 26 26 26 27 27 28 29 30 30 31 32 34 35 35 36 37 39 40 40 40 40 39 39 40 41 43 44 44 44 43 43 43 43 43 43 44 44 44 45 45 46

GEFSSE_500_meanwind_192.txt.gz
Wind_Speed
17 16 15 14 14 14 13 12 12 11 11 11 11 10 10 10 9 8 8 7 7 8 7 7 6 6 6 6 5 4 4 3 3 3 3 3 3 3 3 4 4 4 4
21 19 18 17 16 16 15 15 14 13 13 13 12 12 11 11 10 10 9 8 8 8 8 7 7 7 7 6 6 5 4 4 3 3 3 3 3 4 4 4 4 4 4
23 22 21 20 19 18 18 17 16 15 15 14 14 14 13 12 12 11 11 10 10 9 9 8 7 7 7 7 7 6 5 4 4 4 4 4 4 4 4 4 5 5 5
26 25 24 22 21 20 20 19 18 17 17 16 16 15 15 14 14 13 12 11 11 10 10 9 9 8 7 7 7 7 6 6 5 5 5 5 5 4 5 5 5 5 6
28 27 26 25 24 23 22 21 20 19 19 18 17 17 17 16 15 15 14 13 13 12 11 11 10 9 9 8 8 8 8 7 7 6 6 6 6 6 6 6 7 7 7
29 29 28 27 26 25 24 23 22 21 20 19 19 18 18 18 17 16 16 15 15 14 13 12 12 11 10 10 9 9 9 9 8 8 8 7 7 7 7 7 7 8 8
29 30 29 29 28 27 26 25 24 23 22 21 20 20 20 19 19 18 17 17 17 16 15 14 13 13 12 11 11 10 10 10 10 9 9 9 8 8 8 8 8 8 9
28 29 31 30 29 28 27 26 25 25 24 23 22 21 21 21 20 19 19 19 19 18 17 16 15 15 14 13 13 12 12 11 11 11 10 10 10 9 10 10 9 9 10
28 29 30 30 30 29 29 28 27 26 25 25 24 23 22 22 22 21 21 21 20 20 19 18 17 17 16 15 14 13 13 13 13 13 12 12 11 11 11 11 11 11 11
28 29 30 31 31 30 30 29 28 27 26 26 26 25 24 24 23 23 22 22 22 21 21 20 19 19 18 17 16 15 15 15 14 14 14 14 13 13 13 12 12 12 12
29 29 30 31 31 31 31 30 30 29 28 28 27 26 26 25 24 24 24 23 23 23 22 22 21 21 20 19 18 17 17 16 16 16 15 15 15 15 14 14 14 14 14
29 30 31 32 32 32 31 31 31 30 30 29 28 27 27 26 26 26 25 25 25 24 24 24 23 23 21 21 20 19 19 18 17 17 17 16 16 16 16 16 16 16 16
29 30 32 33 33 33 32 31 32 31 31 30 29 29 29 28 28 28 27 26 26 26 25 25 25 24 23 23 22 21 20 20 19 18 18 18 18 18 18 18 17 17 18
28 29 31 33 34 34 33 32 32 32 31 31 31 31 30 30 30 30 30 29 28 27 27 26 26 26 25 25 24 23 22 21 21 20 20 19 19 20 20 20 19 19 19
27 28 31 32 34 35 34 34 33 33 32 32 32 32 32 32 31 31 31 31 30 29 28 28 28 27 27 27 26 25 24 23 23 22 22 22 21 21 21 22 22 22 22
26 27 30 31 33 35 35 34 35 35 34 33 33 34 33 33 33 32 32 32 33 32 31 30 30 30 29 28 28 27 26 25 25 24 24 23 23 23 23 23 24 24 24
26 27 28 31 33 35 36 36 35 35 35 35 35 35 35 35 34 34 34 34 34 34 33 33 31 31 31 30 30 30 29 28 27 27 26 26 26 25 25 25 26 26 26
26 27 28 30 33 35 36 36 36 36 36 35 36 37 37 37 37 36 36 36 36 36 35 34 34 33 33 33 32 32 31 30 29 29 29 28 28 28 28 28 27 28 28
25 26 28 29 32 34 35 35 35 37 37 36 36 38 39 39 39 37 37 37 38 38 38 37 36 35 35 35 34 34 33 32 31 31 31 31 31 30 30 30 30 30 31
25 25 26 28 31 33 35 35 35 35 35 36 36 37 38 39 39 38 38 37 38 39 38 38 38 37 35 35 36 36 36 35 34 33 34 34 33 33 33 32 33 33 33
26 26 27 27 29 31 34 34 33 33 34 35 35 36 37 37 37 39 40 39 38 39 40 39 39 38 37 35 36 38 37 37 36 36 36 36 36 35 35 35 35 35 36
27 26 28 29 29 30 32 33 34 33 33 34 35 35 36 37 37 38 40 41 40 39 39 38 39 38 37 37 37 39 39 39 39 38 38 37 37 37 37 37 37 37 37
26 27 27 28 29 30 31 32 33 33 32 33 35 35 35 36 36 37 38 39 39 39 40 41 40 39 38 39 38 38 38 38 39 39 39 39 39 39 39 39 39 39 39
26 27 28 29 30 30 30 30 32 32 32 33 35 36 36 35 36 35 36 38 39 40 40 40 40 39 38 38 38 38 39 40 40 40 40 40 40 41 41 41 41 41 41
25 27 28 28 30 30 30 30 31 31 32 32 34 35 36 36 35 35 35 36 38 39 39 39 39 40 41 41 39 39 39 40 41 40 41 42 42 42 43 43 43 43 44
25 26 27 27 29 29 29 30 31 32 32 32 33 34 34 34 35 35 36 36 37 38 38 38 39 40 41 41 41 41 40 40 41 41 42 42 43 43 44 44 45 45 45

GEFSSE_500_meanwind_198.txt.gz
Wind_Speed
17 17 16 16 15 15 14 14 12 12 11 10 9 9 8 8 7 7 7 6 6 6 6 6 5 5 5 5 5 4 4 4 4 4 3 3 3 3 3 3 3 3 2
18 18 18 18 18 17 16 16 15 14 13 12 11 10 10 9 8 8 8 7 7 7 7 6 6 5 5 5 5 5 5 4 4 4 4 3 3 3 3 3 3 3 3
21 20 20 19 19 19 18 18 17 17 16 14 13 12 11 11 10 10 9 9 9 8 8 7 7 6 6 6 6 5 5 5 4 4 4 4 4 3 3 3 3 4 4
23 23 22 21 21 21 20 19 19 18 18 17 15 14 13 12 12 11 11 10 10 10 10 9 8 7 7 7 6 6 6 6 5 5 5 5 4 4 4 4 4 4 5
24 24 24 23 23 22 22 21 20 20 19 19 17 16 15 14 14 13 12 12 12 11 11 11 10 9 9 9 8 8 7 7 7 6 6 6 6 5 5 5 5 6 6
25 25 25 25 25 24 24 23 22 21 21 20 20 18 17 16 15 15 14 14 13 13 13 12 12 11 11 10 10 9 9 8 8 8 8 8 7 7 7 7 7 7 7
26 26 26 26 26 26 25 25 24 23 23 22 21 20 19 18 17 17 16 15 15 14 14 14 14 13 13 12 12 11 11 10 9 9 9 9 9 9 8 8 8 8 8
27 27 27 27 28 27 27 27 26 25 24 24 23 22 21 20 19 18 17 17 16 16 15 15 15 15 15 14 14 13 13 12 11 11 11 11 11 10 10 10 9 9 9
27 27 28 29 29 29 29 28 28 27 26 26 25 24 23 22 21 20 19 18 18 17 16 16 16 16 16 16 16 15 15 14 13 13 13 13 13 12 12 12 11 10 10
27 27 28 30 30 31 30 30 30 29 28 27 27 26 25 24 23 22 21 21 20 19 18 18 17 17 18 18 18 18 17 16 15 15 14 14 14 14 14 13 13 12 12
27 27 28 29 29 30 31 30 31 31 29 28 29 28 27 26 25 24 23 22 22 21 20 20 19 19 19 19 19 19 19 18 17 17 16 16 16 15 15 15 14 14 14
28 28 29 29 29 30 31 32 31 32 32 30 30 30 28 28 27 26 25 24 24 23 22 22 21 21 21 21 20 20 20 19 18 18 18 17 17 17 16 16 16 16 16
30 29 30 30 30 31 31 33 32 33 33 32 31 30 30 29 29 28 27 26 26 25 25 24 23 22 22 22 22 22 21 21 20 19 19 19 19 18 18 18 18 18 18
30 30 30 30 30 31 32 33 33 34 33 33 33 32 31 31 31 30 29 28 28 27 27 26 26 25 24 24 24 24 23 23 22 22 21 21 21 21 20 20 20 20 20
31 32 30 31 32 32 33 33 33 34 35 34 34 34 34 33 32 32 31 31 30 29 29 28 28 27 27 26 26 26 25 25 25 24 24 23 23 23 23 22 22 22 22
31 32 32 32 32 32 33 33 34 35 36 35 35 35 35 35 35 34 33 32 32 31 31 31 31 30 30 29 28 28 27 27 27 26 26 26 26 25 25 24 24 24 24
30 31 32 32 32 32 32 32 33 35 37 37 37 37 36 36 36 36 35 35 34 33 33 34 33 32 32 31 31 30 29 29 29 29 28 28 28 28 28 27 27 27 26
28 30 31 32 33 33 32 32 33 36 37 38 38 38 37 37 37 37 37 37 36 36 35 35 35 34 34 34 33 33 32 32 31 31 31 31 31 30 30 30 30 29 29
27 28 30 31 33 33 33 32 33 35 37 38 38 37 37 37 38 38 38 39 38 38 37 37 37 36 36 36 36 36 35 34 34 33 33 33 33 33 33 33 33 32 32
26 27 28 29 31 32 33 32 33 34 36 37 38 38 37 37 37 39 40 40 40 40 39 39 38 38 37 37 37 37 37 37 37 36 35 36 36 36 36 36 36 36 35
27 27 28 29 30 30 32 32 33 34 35 36 37 38 37 36 36 36 38 40 40 40 41 40 40 40 39 38 39 40 40 39 39 38 37 38 38 38 39 38 38 38 38
26 27 28 28 30 30 30 32 33 35 35 35 36 38 37 37 36 35 36 38 39 38 39 40 40 40 41 40 40 40 41 41 40 40 39 39 39 40 40 41 41 41 40
26 26 27 28 29 30 30 31 32 33 34 34 35 36 36 36 36 37 37 37 38 38 38 39 40 41 41 41 41 41 41 41 40 41 41 41 40 40 40 41 42 42 41
26 26 27 28 30 30 31 31 32 32 33 33 33 35 36 36 36 37 37 38 38 37 38 39 40 40 41 42 41 41 42 43 42 42 41 41 41 41 41 42 43 44 43
26 27 27 28 30 30 30 31 31 31 31 32 32 33 34 36 37 38 38 38 38 38 38 39 40 40 41 42 41 41 41 42 42 43 42 42 41 42 43 44 44 45 45
27 27 27 27 29 30 30 30 31 31 31 31 32 34 34 35 36 38 38 39 38 38 38 38 39 40 40 41 41 41 42 42 42 42 42 41 41 42 43 44 44 45 46

GEFSSE_500_meanwind_204.txt.gz
Wind_Speed
16 16 15 15 14 14 14 13 13 12 12 11 11 11 10 10 9 9 9 9 9 9 9 8 8 8 8 7 7 7 6 6 5 5 5 4 4 3 3 3 2 2 2
19 18 18 17 16 15 15 15 14 14 13 13 12 12 12 11 11 11 10 10 10 10 10 9 9 9 9 8 8 7 7 6 6 6 5 5 4 4 3 3 3 3 3
21 21 20 19 19 18 17 16 16 16 16 15 14 14 13 13 12 12 12 12 11 11 11 10 10 10 9 9 9 8 8 8 7 6 6 5 5 4 4 4 4 4 4
23 23 22 22 21 20 19 18 17 17 17 17 17 16 15 14 14 13 13 13 13 12 12 11 11 11 10 10 9 9 9 9 8 7 7 6 6 5 5 4 5 5 5
24 24 24 24 23 22 21 20 20 19 19 19 19 18 17 16 16 15 15 14 14 14 13 12 12 12 11 11 10 10 9 9 9 8 8 7 7 7 6 6 6 6 5
25 25 25 25 24 24 23 22 22 21 21 21 21 20 20 19 17 17 16 16 16 15 15 14 13 13 12 12 11 11 11 10 10 10 9 9 8 8 7 7 7 7 6
26 26 26 26 26 26 25 24 24 23 23 23 23 22 21 21 20 19 18 18 17 17 16 15 15 14 14 14 13 12 12 12 11 11 10 10 10 9 9 8 8 8 8
27 27 28 28 27 27 27 27 27 26 25 25 24 24 23 23 22 21 20 20 19 18 18 17 16 16 15 15 15 14 13 13 13 12 12 12 11 11 10 10 9 9 9
28 28 29 29 29 29 29 29 29 29 28 27 26 26 26 25 24 23 23 22 21 20 20 19 18 17 17 17 16 16 15 15 14 13 13 13 13 12 12 11 11 11 10
29 29 30 30 30 30 31 30 30 30 29 29 29 28 27 27 26 26 25 24 23 22 22 21 20 19 19 18 18 17 16 16 16 15 14 14 14 14 13 13 12 12 12
29 29 30 31 31 30 30 31 30 30 30 29 30 30 30 30 29 28 27 26 25 24 24 23 22 22 21 20 20 19 18 17 17 17 16 16 15 15 15 15 14 14 14
30 30 30 31 31 31 30 31 30 31 30 31 31 32 32 31 31 30 29 29 27 26 26 25 24 24 23 22 22 21 20 19 19 19 18 18 17 17 16 16 16 16 16
30 31 31 31 31 31 31 32 31 31 30 31 31 32 33 32 32 31 31 30 29 28 28 27 27 26 25 24 24 23 22 21 21 21 21 20 19 19 18 18 18 18 18
30 31 31 31 32 32 32 32 32 31 30 30 31 32 33 33 32 32 33 32 31 30 30 29 29 28 27 27 26 26 25 24 23 23 22 22 22 21 21 21 21 20 20
30 31 32 32 32 33 34 33 33 32 32 31 32 32 33 34 33 33 34 33 33 32 31 31 31 30 30 29 29 28 27 27 26 26 25 25 24 24 23 23 23 23 23
31 31 32 32 32 33 34 34 34 33 33 32 32 33 34 34 34 35 35 35 34 34 33 33 32 32 32 32 31 31 30 30 29 29 28 28 27 27 26 26 26 26 25
30 31 32 32 32 33 33 34 35 34 35 34 35 35 35 35 35 35 36 36 36 35 34 34 34 34 34 33 33 33 33 32 32 31 30 30 29 29 29 28 28 28 28
29 30 30 32 33 34 34 34 34 35 35 35 36 36 36 37 36 35 36 37 37 37 36 35 34 35 36 35 35 35 35 35 35 34 33 33 32 31 31 31 31 30 30
29 29 29 31 32 33 33 33 34 35 35 35 36 36 37 38 39 37 36 37 38 39 38 38 37 37 37 37 38 37 37 37 37 37 36 35 34 34 33 33 33 32 32
28 28 29 31 31 31 32 33 33 34 35 36 36 36 37 38 40 40 39 37 38 39 40 40 39 38 38 39 39 39 38 38 39 39 39 38 37 36 36 35 35 35 35
27 28 29 30 30 30 31 32 32 33 34 34 35 36 37 38 39 40 41 40 39 40 41 41 41 40 39 40 40 40 40 40 39 39 40 40 39 38 37 37 37 37 36
27 27 28 29 30 31 31 32 33 33 33 33 35 36 37 38 38 39 40 41 41 42 42 42 41 41 40 39 40 41 41 40 40 40 40 40 40 40 40 40 39 39 38
25 26 27 29 30 30 31 32 33 33 34 34 35 36 37 38 39 39 40 41 42 41 42 42 42 41 42 42 40 41 41 41 40 40 41 41 42 42 42 41 41 41 41
25 26 28 28 29 29 29 30 31 33 35 35 35 36 36 38 39 40 40 41 41 41 41 41 42 42 42 42 43 42 42 42 41 40 42 43 43 43 43 43 43 43 43
25 26 28 29 29 29 30 31 32 32 34 35 35 36 37 37 38 39 40 41 41 41 41 41 42 41 41 42 42 42 42 43 43 43 43 44 44 44 45 45 45 45 44
24 26 27 28 29 29 31 31 32 32 33 33 34 34 36 37 37 38 38 40 40 41 41 41 42 43 41 41 41 42 43 42 43 44 43 43 44 44 44 45 46 46 45

GEFSSE_500_meanwind_210.txt.gz
Wind_Speed
14 15 15 16 15 15 15 15 14 13 13 12 12 11 11 10 9 10 10 10 10 10 9 9 10 10 9 9 8 7 7 7 6 6 6 5 5 5 4 4 3 3 3
17 17 17 17 16 16 16 16 15 15 15 14 13 13 12 12 11 11 11 11 11 11 10 10 10 10 10 10 9 8 7 7 7 7 6 6 5 5 5 4 4 3 3
20 20 19 19 18 18 18 18 17 16 16 15 15 15 14 14 13 13 12 12 12 12 12 11 11 11 10 10 10 9 9 8 8 8 7 7 6 5 5 5 5 4 4
22 22 22 21 21 20 20 20 20 19 18 17 17 17 16 16 15 15 15 14 14 13 13 12 12 12 11 11 11 10 10 9 9 9 8 8 7 7 6 6 5 5 5
24 24 24 23 23 22 22 22 22 21 20 19 19 18 18 17 17 16 16 16 15 15 14 14 13 13 12 12 12 12 11 10 10 9 9 9 9 8 7 7 6 6 6
25 25 25 25 25 24 24 24 24 23 23 22 21 20 20 19 18 18 18 17 17 17 16 16 15 14 14 14 13 13 12 12 12 11 10 10 10 9 9 8 7 7 7
26 26 26 26 26 26 25 25 26 26 25 24 23 23 22 21 20 20 19 19 18 18 18 18 17 16 16 15 15 14 14 13 13 12 12 11 11 10 10 10 9 8 8
26 26 27 27 27 27 27 27 27 28 27 26 25 25 24 24 22 21 21 21 20 20 19 19 19 18 18 18 17 16 15 15 15 14 13 13 12 11 11 10 10 10 9
28 27 27 27 28 29 28 28 28 29 28 27 27 26 26 26 25 24 22 22 22 22 21 21 21 21 20 20 19 18 17 16 16 16 15 14 14 13 12 11 11 11 11
28 28 28 28 28 29 29 28 28 29 29 29 28 27 27 27 27 26 25 24 24 23 23 23 22 23 22 21 21 20 19 18 17 17 16 16 15 14 14 13 13 12 12
29 29 29 29 29 30 31 30 28 29 29 30 29 29 28 29 29 28 27 26 25 26 26 25 24 24 24 23 23 22 21 19 19 18 18 17 16 16 16 15 15 15 14
29 30 30 30 30 30 31 31 30 30 30 30 30 30 29 29 30 29 29 28 27 27 27 27 27 26 25 25 24 24 23 22 21 20 19 19 18 18 17 17 17 17 16
30 30 30 31 30 30 31 31 31 30 30 30 31 31 30 30 30 30 30 30 29 29 29 29 29 28 27 26 26 26 25 24 23 22 22 21 20 20 19 19 18 18 18
31 31 31 31 31 31 32 31 31 30 30 31 32 31 30 30 30 30 31 31 30 30 30 30 30 30 29 28 27 27 27 27 26 25 24 23 23 22 22 21 21 20 20
30 31 32 31 32 33 33 32 32 32 32 31 32 32 32 31 31 31 32 32 32 31 32 31 31 31 30 30 30 29 28 28 28 27 27 26 25 25 24 24 23 23 23
30 31 32 32 32 33 33 33 33 33 33 33 33 32 32 33 32 33 33 32 32 32 32 33 33 32 32 32 31 31 30 30 30 29 29 29 28 28 27 27 26 25 25
30 31 32 33 33 33 34 34 33 33 34 34 33 32 33 33 32 33 34 34 33 33 33 34 34 34 34 34 33 33 32 33 32 32 31 31 31 30 30 29 29 28 28
30 30 31 32 33 34 34 34 33 34 35 35 34 34 34 34 34 34 35 36 35 34 34 34 35 36 35 35 35 34 34 34 34 34 34 34 33 33 33 32 32 31 31
30 30 31 32 32 33 35 35 35 35 35 36 36 35 34 35 35 36 36 37 37 37 36 36 36 38 37 38 37 36 36 36 36 36 36 36 36 36 36 36 35 34 33
29 30 30 31 31 31 33 35 35 35 36 37 37 37 35 36 36 36 37 37 38 38 39 39 38 39 39 39 39 38 38 38 38 39 38 38 38 38 38 38 37 36 36
28 29 29 30 31 32 32 32 34 34 35 36 36 36 36 36 36 37 37 37 38 38 38 39 39 40 41 41 40 40 40 40 40 40 39 39 39 39 40 39 39 39 39
28 29 30 30 30 30 31 32 33 34 34 35 36 35 36 36 37 37 37 38 38 38 38 39 40 40 41 41 41 40 40 40 41 41 41 41 41 41 40 40 40 41 41
28 29 29 29 29 30 31 32 32 33 33 34 35 35 35 36 37 37 37 37 37 38 38 38 39 39 41 42 42 42 42 41 41 40 41 41 41 41 41 42 42 42 42
29 29 28 28 29 29 30 31 32 33 34 34 34 34 35 35 36 36 36 36 37 38 39 39 39 39 40 41 42 43 43 43 42 42 41 41 42 41 41 41 42 42 42
29 29 28 29 28 28 29 31 31 32 32 33 33 34 34 34 34 35 36 37 37 38 39 39 39 40 40 40 41 42 43 43 43 43 43 43 42 42 42 42 42 42 43
28 29 29 29 29 29 30 31 31 32 32 32 34 34 34 35 35 35 36 36 37 38 39 39 39 40 41 41 41 41 43 43 43 43 44 45 44 43 43 44 44 44 44

GEFSSE_500_meanwind_216.txt.gz
Wind_Speed
13 13 13 13 13 13 13 13 13 12 12 12 11 11 10 10 9 9 8 8 9 9 9 9 9 9 9 10 9 9 8 8 8 8 8 7 7 7 7 6 5 5 5
15 15 15 15 15 15 15 14 14 14 13 13 13 13 12 12 11 11 10 10 10 10 10 10 10 10 10 10 10 10 9 9 9 9 9 8 8 7 7 7 6 6 5
17 17 17 17 17 17 17 17 16 16 16 15 15 15 14 14 13 13 12 12 11 11 12 11 11 11 10 10 10 10 10 10 10 10 10 9 8 8 7 7 7 6 6
19 19 19 19 19 19 19 19 19 19 18 18 17 17 16 16 15 15 15 14 13 13 13 13 13 12 12 11 11 11 11 11 11 10 10 10 9 9 9 8 8 7 7
21 21 21 21 21 21 21 21 21 21 21 20 20 19 19 18 17 17 17 17 16 16 15 15 15 14 14 13 12 12 12 12 11 11 11 11 10 10 10 9 9 8 8
21 22 22 23 23 23 22 22 23 23 23 23 22 21 21 20 20 19 19 18 18 18 17 17 17 16 16 15 14 13 13 13 13 12 12 12 11 11 11 10 10 9 9
22 22 22 23 24 24 24 24 24 24 24 24 24 23 23 23 22 21 21 20 19 19 19 19 19 18 18 17 16 15 15 14 14 14 13 13 12 12 12 11 11 11 10
23 23 23 23 25 25 25 25 25 25 25 26 26 25 25 25 24 24 23 22 21 21 21 20 21 20 20 19 18 18 17 16 16 16 15 15 14 13 13 13 12 12 12
24 24 24 24 25 26 27 27 27 27 27 27 27 27 27 27 26 25 24 24 24 23 22 22 22 22 21 21 20 20 19 19 18 18 17 17 16 16 15 15 14 14 13
25 25 25 25 26 27 28 28 29 29 28 28 28 28 29 28 28 27 26 26 25 25 24 24 24 24 23 23 22 21 21 21 20 20 19 19 18 18 17 17 16 16 15
25 26 26 26 27 28 28 29 29 30 30 30 29 29 29 29 29 29 28 27 27 27 26 26 26 26 25 24 24 23 23 22 22 22 21 21 20 20 19 19 18 17 17
26 27 27 27 28 28 28 29 29 30 30 30 31 30 30 30 30 30 30 29 28 28 27 28 27 27 27 26 25 25 25 24 24 23 23 22 22 21 21 20 20 19 19
27 27 28 28 29 29 29 29 29 29 30 30 31 31 31 31 31 31 31 31 30 29 29 29 29 29 28 28 27 27 27 27 26 26 25 24 24 23 23 22 22 22 21
28 28 29 29 30 30 30 30 30 30 30 30 31 32 32 32 32 32 32 32 31 31 31 30 31 31 31 30 29 29 29 29 28 27 27 27 26 26 25 24 24 24 24
29 29 30 30 30 31 31 30 30 31 31 31 32 33 33 33 33 33 33 32 32 32 32 32 32 32 32 31 30 30 31 30 30 30 30 30 29 28 27 27 26 26 26
29 29 30 30 30 31 31 31 31 31 32 32 32 34 35 35 35 35 35 34 33 33 33 33 33 33 33 32 32 31 32 32 32 32 32 32 32 31 30 29 29 28 28
29 29 30 30 30 31 31 32 32 32 33 33 33 34 35 35 36 36 36 35 35 34 34 34 34 33 33 33 33 33 33 33 33 33 33 33 33 33 32 32 31 31 30
29 29 30 30 30 30 31 32 32 33 34 34 34 35 36 36 37 36 36 37 36 35 35 35 35 34 35 34 34 34 35 35 34 34 35 35 35 35 34 34 34 33 33
29 29 30 30 30 30 31 32 32 32 33 34 35 35 36 37 37 37 37 37 37 37 37 36 36 36 36 35 36 36 36 37 37 37 36 36 37 37 37 37 36 36 36
29 29 30 30 30 30 31 32 32 32 32 33 35 35 36 37 38 38 38 38 38 38 37 37 37 37 36 36 35 37 37 39 39 38 38 38 38 39 39 39 38 38 38
29 29 30 30 30 30 30 31 31 32 32 33 34 36 36 37 38 38 38 38 38 38 38 38 38 38 38 38 37 38 38 39 40 40 40 40 40 40 40 40 40 39 39
31 30 29 30 30 30 30 31 31 31 32 34 34 36 36 36 36 37 38 38 38 39 39 39 39 40 39 39 39 39 39 39 40 40 40 41 41 41 41 41 41 41 40
32 31 30 30 30 30 30 31 31 31 32 33 34 35 35 36 37 37 38 38 39 39 39 39 39 40 40 40 40 41 41 41 41 42 42 42 42 42 43 43 43 43 42
32 32 31 31 31 31 31 31 31 31 32 33 33 34 35 36 37 37 37 38 39 39 40 39 39 39 39 39 39 40 41 42 42 42 42 43 44 45 45 45 45 45 44
33 33 32 32 32 32 32 32 32 32 32 33 33 34 35 37 38 37 37 38 38 39 39 39 39 39 40 40 40 40 40 41 42 42 43 43 44 45 46 46 46 46 45
33 33 33 33 33 32 33 33 32 32 33 34 34 35 36 36 37 37 37 39 39 39 39 40 40 40 41 40 41 41 41 42 43 43 43 43 44 45 45 46 46 46 47

GEFSSE_500_meanwind_222.txt.gz
Wind_Speed
13 13 13 13 13 12 11 11 10 10 9 8 7 7 7 6 6 6 6 6 6 5 6 6 6 6 6 6 6 6 6 6 6 6 6 6 6 5 5 4 4 4 4
14 14 14 14 14 14 13 13 13 12 11 11 10 9 8 8 8 8 8 8 7 7 7 7 7 7 7 7 7 6 6 7 7 7 7 7 6 6 6 5 5 5 5
16 16 16 16 16 16 15 15 15 14 13 13 12 11 11 10 10 10 9 9 9 9 9 9 9 8 8 7 7 7 7 8 8 7 8 8 7 7 7 6 6 6 5
17 17 17 17 17 17 17 17 17 16 16 15 14 14 13 12 12 12 12 11 11 11 11 10 10 10 9 9 8 8 8 9 9 8 8 9 8 8 8 8 7 7 6
19 19 19 19 19 19 19 19 19 18 18 18 17 16 15 15 14 14 14 14 13 13 13 12 12 11 11 11 10 10 9 10 10 10 10 10 10 9 9 9 8 8 7
20 20 20 20 20 20 20 21 21 20 20 20 19 19 18 17 17 17 16 16 15 15 15 14 14 13 13 13 12 12 11 11 11 11 11 11 11 11 10 10 10 9 8
21 21 21 21 22 22 21 21 22 22 22 22 21 21 21 20 19 19 19 18 18 17 17 17 16 16 15 15 14 14 14 13 13 13 12 12 13 13 12 11 11 10 9
22 22 22 22 22 23 23 23 23 23 23 23 23 23 23 23 22 21 21 20 20 19 19 18 18 18 17 17 16 16 16 15 15 15 14 14 14 14 14 13 13 12 11
24 23 23 23 23 23 23 24 24 23 24 24 25 25 25 24 24 23 23 23 22 21 21 21 20 20 20 19 18 18 18 17 17 17 17 16 16 16 16 15 15 14 14
25 25 25 25 24 24 25 25 25 25 25 25 25 26 26 25 25 25 25 25 24 23 23 23 23 22 22 22 21 21 20 19 19 19 18 19 18 18 18 17 17 16 16
27 26 26 26 26 25 26 26 26 26 26 26 27 27 27 27 27 27 27 26 26 25 25 24 24 24 24 23 23 23 23 22 21 21 20 20 20 20 20 19 19 18 18
28 28 28 27 26 26 27 27 27 28 28 28 28 28 29 28 29 28 28 28 28 27 26 25 25 26 25 25 25 25 25 24 23 23 22 22 23 22 22 21 21 20 20
29 29 29 28 28 28 28 28 28 29 29 29 29 30 30 30 30 30 30 30 30 29 28 27 27 27 27 27 27 26 27 26 26 25 25 25 25 24 24 23 23 22 22
30 30 30 30 30 29 30 30 30 30 30 30 30 30 31 32 32 32 32 32 32 31 30 30 30 29 29 29 29 29 29 29 29 28 27 27 26 26 26 26 25 25 24
31 31 31 31 31 31 31 32 32 32 32 31 32 32 32 32 32 33 33 33 33 32 32 31 31 30 30 30 30 30 30 31 31 30 29 29 29 28 29 28 28 27 27
32 32 32 32 32 32 32 33 32 32 32 32 32 33 33 33 33 33 33 33 33 33 33 32 32 32 31 30 31 31 32 32 32 31 31 31 30 30 30 31 30 30 30
32 32 32 32 32 32 32 32 32 32 32 33 33 33 33 33 33 33 33 34 34 34 34 34 33 33 33 33 32 33 33 33 33 33 33 32 32 32 32 32 32 32 32
33 33 32 33 32 32 32 32 32 32 32 33 33 33 33 33 33 34 34 35 35 35 35 35 34 33 34 35 34 34 35 34 34 35 35 34 34 34 34 34 34 34 34
33 33 33 33 32 32 32 32 32 32 33 33 33 34 34 34 34 34 34 35 36 36 36 36 37 36 36 36 36 36 36 36 35 36 36 36 36 36 36 36 36 36 36
34 35 34 33 33 33 33 33 33 33 33 33 33 34 34 34 34 34 34 35 36 37 37 37 37 37 37 37 37 37 37 37 36 36 36 37 37 37 38 38 38 38 38
36 35 34 33 34 34 34 33 33 33 33 33 33 33 34 34 34 35 35 35 36 37 37 37 37 37 37 37 37 37 37 38 37 37 37 38 39 39 39 40 40 40 40
37 36 35 34 34 34 34 34 34 34 34 34 33 33 33 34 35 35 36 36 37 37 38 38 38 38 38 39 39 38 38 38 37 37 37 38 39 39 39 40 41 41 42
38 37 36 35 35 35 35 35 35 35 34 35 34 33 34 34 35 36 37 38 38 38 38 38 38 38 39 39 39 40 39 39 39 39 39 39 39 39 40 40 41 42 42
38 38 37 37 36 36 35 35 35 34 34 35 35 35 35 35 35 36 36 37 38 38 38 38 39 39 40 40 41 41 42 41 42 40 41 41 41 42 42 42 43 43 43
38 38 38 37 37 37 36 36 35 35 35 35 35 35 36 37 37 36 37 37 37 38 39 39 39 40 40 41 41 41 41 41 42 42 42 42 42 43 43 44 44 44 45
39 39 38 38 38 38 37 37 36 36 35 35 35 35 36 36 37 37 38 38 38 39 39 40 40 40 41 41 40 40 40 41 41 42 42 42 42 42 43 43 44 44 45

GEFSSE_500_meanwind_228.txt.gz
Wind_Speed
13 13 13 13 13 12 12 11 11 10 10 9 8 7 7 7 7 7 6 7 7 7 7 6 6 6 6 6 7 7 7 7 7 7 6 6 5 5 5 5 4 5 5
15 15 14 14 14 14 14 13 13 12 12 11 10 9 9 8 8 7 7 7 7 7 7 7 7 7 7 7 7 7 7 7 7 7 7 7 6 6 5 5 5 5 5
17 17 16 16 16 16 15 15 14 14 13 13 12 12 11 10 9 9 9 9 9 8 8 8 8 8 8 8 8 8 8 7 8 8 8 7 7 7 7 6 6 6 6
18 18 18 18 17 17 17 16 16 15 15 15 14 14 13 12 12 11 10 10 10 10 9 9 9 9 9 9 10 9 9 9 8 9 9 9 8 8 8 7 7 7 7
19 19 19 19 19 19 18 18 18 17 17 17 16 16 15 15 14 13 12 12 12 11 11 11 10 10 10 10 10 10 10 10 9 9 10 10 10 10 9 9 8 8 8
20 20 20 20 20 20 20 19 19 19 19 18 18 18 17 17 16 15 14 14 13 13 13 13 12 12 12 11 12 12 11 11 11 11 11 11 11 11 11 10 10 10 9
21 21 21 21 21 21 21 21 20 20 20 19 20 19 19 19 18 18 17 16 16 16 15 15 14 14 14 14 13 13 13 13 13 13 13 13 13 13 13 12 12 12 12
22 22 22 22 22 22 22 22 22 22 21 21 21 21 20 20 20 19 19 19 18 18 17 17 17 16 16 16 15 15 16 15 15 15 14 14 15 15 15 14 14 14 14
23 23 23 23 23 23 23 23 23 23 23 23 23 23 23 23 22 22 21 21 21 20 20 19 19 19 18 18 18 18 18 18 17 17 16 16 16 16 16 16 16 16 15
25 25 25 25 25 25 25 25 25 24 24 25 25 24 24 25 25 24 24 23 23 23 22 22 21 21 21 21 20 20 20 20 19 19 18 18 18 18 18 18 18 18 17
27 26 27 27 27 26 26 26 26 26 25 25 25 25 26 26 26 26 26 26 25 25 25 24 24 24 23 23 23 23 23 22 22 21 21 20 20 20 20 20 19 19 19
28 28 28 28 28 28 28 27 27 27 27 27 27 27 27 27 27 27 27 27 27 27 27 27 26 26 25 25 25 25 25 25 25 24 24 23 23 22 22 22 22 21 21
29 29 29 29 29 29 29 29 29 29 29 28 28 28 28 28 28 28 28 28 29 29 29 29 29 28 28 27 27 27 27 27 27 27 26 26 25 25 24 24 24 24 23
31 31 30 30 31 31 31 30 30 30 30 30 30 30 30 30 30 30 30 30 30 30 30 30 30 30 30 30 30 29 29 29 29 29 29 29 28 27 27 26 26 25 25
33 32 32 32 32 32 32 32 32 32 32 32 32 32 32 32 32 32 31 31 31 31 32 32 32 31 31 31 32 31 31 31 31 31 30 30 30 30 29 29 28 28 28
34 34 33 33 33 33 33 33 33 33 33 33 34 34 33 33 33 33 33 33 33 33 33 33 33 33 32 33 33 32 32 33 32 31 31 31 31 31 31 31 30 30 30
36 36 35 35 35 35 34 34 34 34 35 35 35 35 34 34 34 34 34 34 34 34 35 34 34 34 34 34 33 33 33 34 33 33 32 32 32 33 33 32 32 32 32
37 37 37 36 36 36 35 35 35 36 36 36 36 36 36 36 35 35 35 35 35 35 36 36 35 36 36 35 34 33 34 34 35 34 34 34 35 35 34 34 33 33 34
37 37 38 38 38 37 37 37 36 36 37 37 37 37 37 37 36 36 36 36 36 36 36 36 36 36 37 37 36 35 35 35 35 35 36 36 37 36 35 36 36 35 35
37 38 38 38 38 38 38 38 37 37 37 37 37 37 37 37 37 36 37 36 37 37 36 36 36 37 37 37 37 37 37 36 37 37 37 38 38 38 38 37 37 38 37
39 39 39 39 39 38 38 38 38 37 38 38 37 37 37 37 37 36 36 36 36 37 37 36 37 36 37 37 38 38 38 37 37 37 38 38 39 39 39 39 39 39 39
40 40 40 40 40 39 39 38 38 38 38 38 38 37 37 37 37 36 36 37 37 38 38 37 37 37 38 38 39 38 39 38 38 38 39 39 40 40 40 40 39 41 41
40 40 40 40 40 40 40 40 39 39 38 38 38 38 37 37 37 37 37 36 37 37 37 37 37 38 38 39 40 40 40 39 40 40 40 41 41 42 42 42 42 41 42
39 39 40 40 40 40 40 41 40 40 39 39 38 38 37 38 37 38 38 37 37 36 37 36 37 38 38 39 40 40 40 41 41 41 41 42 42 43 44 44 44 43 43
39 40 40 40 40 41 41 41 41 41 41 40 40 39 38 38 37 37 38 38 38 38 38 38 38 38 38 39 39 40 40 41 42 42 42 42 43 43 44 44 45 44 44
40 40 40 40 40 41 41 42 42 42 41 41 41 40 40 39 38 37 38 37 37 37 38 38 39 38 39 40 40 41 41 42 42 42 43 43 43 43 43 44 44 45 45

GEFSSE_500_meanwind_234.txt.gz
Wind_Speed
14 14 14 14 13 13 13 12 12 11 11 10 10 9 8 8 7 7 7 7 7 7 7 7 6 5 6 6 5 5 6 5 5 5 5 4 4 4 4 4 3 3 3
16 16 16 16 15 15 14 14 14 13 12 12 11 11 10 9 9 8 8 8 8 8 8 8 7 7 6 7 6 6 6 6 6 6 5 5 5 5 5 5 4 4 4
17 17 17 17 17 17 16 15 15 15 14 13 13 12 12 11 10 10 9 9 9 9 9 8 8 8 7 7 7 7 7 7 7 7 6 6 5 5 5 5 5 5 5
18 18 19 18 18 18 18 17 17 16 16 15 15 14 14 13 13 12 11 11 11 10 10 10 9 9 9 9 8 8 8 8 8 8 7 7 7 6 6 6 5 5 5
20 20 19 19 19 19 19 18 18 17 17 17 17 16 15 15 15 14 14 13 12 12 11 11 10 10 10 10 9 9 9 9 9 9 9 9 8 8 7 7 6 6 6
21 21 21 21 21 21 20 20 19 19 18 18 18 18 17 17 16 16 15 15 14 13 13 13 12 11 11 11 11 10 10 10 10 10 10 10 10 10 10 9 8 8 7
22 22 22 22 22 22 21 21 21 21 20 20 20 19 18 19 18 18 17 17 16 15 15 14 14 13 13 13 12 12 12 12 12 11 11 11 11 11 11 11 11 10 10
23 22 23 23 23 23 22 22 22 22 22 22 22 21 20 20 19 20 19 19 18 18 17 17 16 16 15 14 14 14 14 14 14 13 13 13 13 13 13 13 12 12 12
24 24 24 24 24 24 24 24 24 24 24 23 23 23 23 22 22 21 21 21 21 20 20 19 19 18 17 16 16 16 16 16 16 16 15 15 15 15 15 15 14 14 14
26 25 25 25 25 25 25 25 25 25 25 25 25 25 25 24 24 23 23 22 22 22 22 21 21 21 20 19 18 18 18 17 17 17 17 17 18 17 17 17 17 17 16
27 27 27 27 27 27 27 27 26 26 27 26 26 26 26 26 26 25 25 24 24 24 24 23 23 23 22 22 21 21 20 20 19 19 19 20 20 20 20 19 19 19 19
29 29 29 29 28 28 29 28 28 28 28 28 27 27 27 27 27 27 26 26 25 25 25 25 25 25 24 24 24 23 23 23 22 22 22 22 22 22 22 22 22 21 21
31 31 31 30 30 30 30 29 29 29 29 29 29 28 28 28 28 28 28 27 27 27 26 26 26 26 26 26 26 26 25 25 24 24 24 24 24 24 24 24 24 24 23
32 33 33 32 32 32 31 30 30 30 30 30 30 30 29 29 29 29 29 29 29 28 28 28 28 28 28 27 27 27 27 27 27 27 26 26 26 26 26 26 26 26 26
34 34 34 34 34 33 33 32 31 31 31 31 31 31 31 31 30 30 30 30 30 30 30 29 29 29 29 29 29 29 29 29 28 28 28 28 28 28 27 28 28 28 27
36 36 36 35 35 35 34 34 33 32 32 32 32 32 32 32 31 31 31 31 31 31 31 31 31 30 30 30 30 31 30 30 30 29 29 29 29 29 29 29 29 29 29
37 37 37 37 37 36 35 35 35 34 34 33 33 33 33 33 32 32 32 32 32 33 33 32 32 32 32 31 31 31 31 31 31 30 30 30 31 30 30 30 30 31 31
37 37 38 38 38 38 38 37 36 36 35 35 34 35 35 34 33 34 34 34 34 33 33 33 33 33 33 33 33 33 33 33 32 31 31 31 32 32 32 32 32 32 33
39 39 39 38 39 39 39 39 38 37 37 36 36 36 36 36 35 35 35 35 35 35 34 34 34 34 33 33 34 34 34 34 34 33 33 33 33 33 33 34 34 34 34
40 40 39 39 39 40 40 40 40 39 39 38 37 37 37 37 37 37 36 36 36 36 36 36 35 35 35 35 35 35 35 35 36 36 35 34 35 35 35 36 35 36 36
40 40 40 40 40 41 41 41 41 41 40 39 38 38 38 38 38 38 37 37 37 37 37 37 36 36 36 37 37 37 36 36 36 37 37 37 36 36 36 36 37 36 36
41 41 41 41 40 40 41 41 42 41 41 40 40 40 39 39 38 38 38 38 38 38 38 37 37 37 37 37 38 38 37 37 38 38 39 39 39 39 39 38 38 38 38
42 42 42 42 41 41 41 42 42 42 41 41 40 40 40 40 39 39 39 39 39 39 38 38 38 37 38 39 38 38 38 38 38 38 39 39 39 40 41 41 40 40 39
41 42 42 42 42 41 41 42 43 42 41 40 41 41 41 41 41 40 40 40 40 40 40 39 39 39 39 39 39 39 39 39 39 39 39 40 40 40 40 40 41 41 42
41 42 42 42 43 43 43 43 42 42 42 41 42 42 42 41 41 40 41 41 41 41 41 41 40 40 39 39 40 40 39 39 40 40 40 40 42 41 41 40 40 41 42
41 41 42 42 43 44 43 43 42 42 42 42 43 43 43 42 41 41 42 42 42 42 42 41 41 40 40 40 40 40 40 40 40 40 40 41 41 41 41 41 42 42 43